GFSSGP_con_3kmhel_000.txt.gz
Helicity
23 38 -8 25 60 48 52 93 114 170 159 123 116 106 66 67 50 71 9 23 62 66 22 49 51 43 67 94 107 111 121 106 96 87 60 75 68 52 44 38 37 51 42 22 14 11 7 1 12
26 22 21 26 65 65 95 70 117 130 99 125 80 128 153 117 91 44 53 4 58 53 6 12 36 27 67 91 77 93 101 85 72 57 39 41 41 42 31 20 21 24 37 23 11 6 11 8 8
51 23 36 51 53 54 117 104 130 92 111 109 94 103 131 123 90 41 28 28 57 35 8 9 29 39 56 65 67 81 78 68 52 29 3 -30 13 35 42 34 26 46 45 33 11 3 -1 0 -3
64 71 77 67 45 53 76 188 92 92 100 113 127 142 141 65 48 21 56 66 62 35 18 30 56 52 67 62 64 75 65 50 41 21 -5 -30 -31 -9 48 43 55 64 40 14 9 0 -3 -11 -16
97 100 101 79 37 51 106 126 110 72 70 119 130 108 106 94 55 41 67 66 82 41 38 58 70 78 89 64 64 63 61 50 43 20 12 -4 -20 -10 22 27 54 54 23 4 4 0 -2 -5 -12
151 138 135 112 59 56 81 120 101 71 37 74 107 100 97 43 30 7 31 74 86 88 65 66 77 103 90 63 57 56 54 59 54 33 25 10 -1 -2 1 10 21 7 -10 -7 -10 -5 -6 -1 -3
151 182 132 97 55 59 59 122 101 85 59 62 105 112 101 52 3 2 40 94 110 112 116 95 91 77 74 61 49 50 47 59 63 59 45 34 18 -1 -6 5 1 -6 -6 -7 -6 -14 -16 -14 -14
150 176 151 119 89 31 34 105 86 64 53 39 63 105 86 52 -5 3 47 85 117 104 111 103 90 74 68 55 38 40 57 77 71 75 53 33 18 1 -6 5 -2 0 3 -5 -12 -14 -23 -25 -21
174 216 169 146 113 35 80 121 94 49 56 46 55 70 78 52 61 52 52 106 98 86 91 89 81 69 60 51 26 39 53 66 73 70 42 35 16 3 5 11 9 23 11 -4 -8 -8 -3 8 18
218 235 204 158 122 65 37 33 64 68 90 77 81 76 116 134 91 46 51 48 102 98 76 95 76 55 60 42 43 37 50 55 53 48 32 38 33 22 33 39 39 26 21 15 13 12 17 23 56
206 168 216 161 69 78 48 61 60 84 62 49 53 63 123 109 73 69 47 68 44 88 120 94 75 58 74 61 69 58 62 64 46 42 44 39 50 46 48 47 36 37 34 34 28 27 27 21 30
146 145 154 145 106 92 64 35 126 104 74 64 45 45 98 138 121 94 81 58 69 85 91 116 85 85 88 90 91 86 77 80 66 55 53 70 58 69 59 59 50 54 48 50 50 70 93 92 63
115 107 124 87 39 47 56 23 44 42 82 66 47 42 39 68 91 97 72 73 82 90 73 125 138 126 146 144 154 118 94 101 84 93 77 81 98 96 88 98 110 98 96 110 117 103 81 74 60
221 199 73 98 64 78 74 3 69 38 67 54 30 10 37 40 40 73 134 148 141 118 115 137 170 195 218 227 206 190 145 132 147 144 130 125 115 128 173 169 159 134 119 120 100 91 81 72 52
129 121 114 109 80 69 98 -11 -107 42 89 47 43 43 37 65 93 123 151 178 147 143 151 176 198 236 251 247 251 213 174 219 239 227 201 185 182 226 197 169 165 135 122 121 98 99 93 91 85
166 138 115 116 133 99 96 -108 95 92 95 85 82 76 57 63 113 131 169 211 204 205 174 174 197 216 247 253 244 257 298 320 274 248 230 231 219 186 185 166 150 126 120 107 103 100 111 109 71
139 148 177 156 134 146 113 -41 62 71 78 92 78 53 79 63 149 162 161 183 199 209 225 190 201 233 282 310 302 310 343 323 280 273 255 222 195 174 175 150 128 120 112 113 108 111 83 54 52
153 156 148 177 192 134 63 3 72 77 98 65 69 88 78 132 143 152 160 164 180 214 204 195 249 352 367 323 341 357 324 289 249 228 226 209 176 164 139 123 111 92 87 94 83 62 60 43 40
158 139 131 219 205 109 128 58 56 14 57 111 95 96 70 123 148 149 166 164 175 185 211 262 381 382 380 310 333 297 234 222 229 239 223 195 165 142 120 93 86 74 64 31 22 25 46 51 39
136 117 93 82 98 130 92 65 68 42 4 81 100 149 122 203 201 195 179 184 157 160 201 279 361 328 299 285 244 228 189 192 216 209 206 171 151 121 102 89 71 62 41 49 48 40 32 30 31
129 119 129 117 88 75 101 33 52 25 -5 10 80 175 187 201 215 208 203 178 179 171 181 216 238 245 230 248 265 258 249 231 202 184 174 146 128 115 92 72 50 44 34 34 25 36 37 31 36
121 133 86 83 121 140 68 58 40 51 28 33 24 100 208 236 269 249 244 217 191 153 166 190 192 193 185 187 194 178 147 142 103 124 126 137 126 102 76 57 41 34 21 33 26 42 41 45 57
118 73 84 90 112 130 97 146 -58 84 71 98 66 109 206 295 304 308 276 260 232 190 185 178 186 166 143 152 148 125 131 125 131 144 151 138 116 90 65 46 32 28 26 29 49 71 92 70 72
104 89 105 110 121 210 94 135 -31 35 75 69 104 101 244 327 367 362 340 335 299 229 219 205 213 164 129 133 108 117 148 158 170 142 138 112 92 78 63 48 39 35 39 49 62 79 99 98 99
106 103 210 211 235 247 51 67 53 29 41 58 48 154 236 347 398 399 358 342 325 257 245 220 203 157 140 147 141 150 160 165 174 143 128 113 85 67 60 56 51 46 55 72 85 96 106 96 91
119 137 234 287 220 154 58 33 -37 -90 26 37 -39 54 403 406 424 409 375 357 354 291 269 240 230 221 199 192 187 191 199 206 199 180 162 132 102 82 75 69 69 83 92 97 101 95 92 87 89
105 116 58 132 98 104 32 6 -26 14 -11 -37 53 289 377 446 402 383 389 359 348 276 242 242 246 245 227 226 230 229 235 251 240 226 196 159 134 120 119 109 105 106 107 104 103 97 92 92 90
117 114 154 101 74 6 -2 -23 2 47 29 -33 148 226 286 364 401 365 318 302 276 243 239 230 219 220 216 231 234 237 255 263 252 231 206 182 165 151 142 124 116 108 109 116 112 108 101 98 104
78 79 135 47 52 -44 -118 -95 3 6 119 122 138 191 314 347 367 308 262 235 261 261 229 214 216 229 234 237 250 269 267 264 250 231 211 192 170 157 135 120 119 117 131 127 123 113 95 102 108
20 -16 -3 -103 -101 -108 -74 26 53 36 -50 113 85 222 273 314 305 269 247 260 221 212 218 201 208 229 221 234 257 266 264 251 247 236 216 183 176 152 134 122 122 135 139 126 119 108 101 109 133

GFSSGP_con_3kmhel_003.txt.gz
Helicity
36 40 8 35 69 77 74 80 83 134 118 93 101 88 76 80 82 101 33 -7 18 58 -9 14 20 85 85 93 85 80 87 88 78 65 47 47 41 47 17 20 34 38 41 26 18 15 12 14 13
46 16 37 34 75 83 89 94 150 132 87 136 106 99 115 89 81 70 33 -9 35 56 24 22 49 52 60 81 73 74 74 76 74 53 28 23 7 20 13 4 -2 28 30 25 22 18 17 13 4
53 34 46 66 63 68 91 112 173 172 82 87 131 116 103 93 126 66 5 39 36 50 32 15 28 32 59 77 66 64 62 59 53 32 -11 -29 2 -0 38 29 67 44 42 34 24 19 12 15 11
86 76 100 90 61 61 68 138 163 218 82 61 85 112 92 79 105 32 44 58 50 45 33 22 28 34 72 65 57 59 59 52 36 17 -14 -29 -27 -18 12 9 65 58 43 26 17 16 11 10 4
104 117 126 111 53 57 70 90 100 213 192 88 75 95 99 110 81 61 73 47 51 43 37 34 46 48 71 69 59 59 50 42 29 24 -0 -26 -38 -14 9 4 33 49 22 17 16 16 16 16 11
161 152 156 107 79 63 77 90 96 125 150 96 85 92 94 80 64 44 59 39 49 67 58 55 62 59 80 67 61 54 48 33 32 29 16 -0 -33 -29 -6 17 29 7 -6 -12 -9 -9 -12 -14 -13
166 192 154 116 54 80 57 70 70 88 144 86 45 92 85 82 28 53 38 48 60 72 85 68 68 71 80 70 64 49 34 27 29 23 20 7 7 -15 -19 -2 6 -6 -9 -5 -8 -14 -17 -16 -16
171 191 146 115 93 22 65 107 96 98 117 58 49 68 100 103 40 62 79 70 81 79 82 82 90 86 68 60 65 46 24 22 50 30 20 11 -13 -11 -16 -7 -11 -9 -8 -8 -12 -9 -6 -2 2
177 204 125 124 134 81 68 130 133 137 150 99 58 61 57 90 122 93 93 81 91 75 85 89 91 92 75 65 48 43 39 59 63 39 23 15 8 3 4 12 3 -1 2 -2 -3 -3 1 7 14
187 180 121 111 110 55 57 80 87 90 106 75 95 74 80 82 113 118 100 85 79 70 84 80 87 99 91 64 61 61 65 65 66 44 24 28 29 32 27 28 21 22 21 15 18 15 26 35 34
203 121 151 126 55 43 32 48 55 45 57 57 44 45 49 72 98 86 46 92 100 68 94 83 87 93 101 82 83 82 85 83 69 39 39 31 49 61 61 58 62 62 49 52 42 46 56 71 63
186 160 138 109 82 70 54 23 71 88 56 94 88 99 77 61 80 92 103 90 110 110 80 94 90 98 91 91 99 102 102 92 77 64 60 63 74 65 74 75 82 81 67 65 74 72 70 63 54
139 99 114 94 54 39 36 50 59 36 64 107 97 97 63 52 58 76 121 126 68 70 110 118 116 108 102 108 111 123 106 102 96 87 78 97 88 98 101 109 111 113 100 99 96 83 65 50 50
141 146 75 73 63 39 44 23 43 9 13 67 77 80 67 51 41 70 86 29 100 63 111 179 132 128 142 136 131 116 110 122 134 140 136 120 111 127 128 140 126 111 102 92 74 61 53 46 39
91 80 93 100 96 51 86 -9 4 41 16 7 64 71 54 56 52 43 86 55 140 127 140 200 196 168 183 194 186 144 154 198 203 187 172 156 157 156 145 123 113 111 101 84 74 74 70 72 79
140 111 72 66 90 103 105 -30 74 87 80 32 41 40 48 50 36 49 80 123 127 141 168 218 223 204 234 230 234 257 230 240 234 218 186 164 154 148 139 135 126 100 96 83 76 71 75 69 34
144 134 122 93 105 138 134 5 23 62 78 27 59 40 43 70 59 69 75 120 127 149 220 276 265 238 271 321 324 308 294 298 251 225 190 167 157 138 143 123 110 102 96 93 75 58 39 21 41
194 168 102 70 99 124 81 15 33 45 63 47 57 36 56 78 72 91 126 127 138 158 219 301 311 304 352 378 336 315 308 302 267 242 207 186 175 156 139 128 118 96 79 73 56 46 39 25 23
152 133 144 143 126 137 89 49 3 21 26 62 27 36 17 48 58 94 134 159 161 177 233 325 376 359 423 386 346 280 255 240 250 228 217 215 182 157 139 108 94 69 55 33 35 31 54 39 36
146 136 126 89 84 119 91 37 -15 15 2 16 21 46 51 95 88 132 143 176 177 180 226 334 398 458 437 285 232 227 222 227 239 230 244 208 172 142 119 88 73 68 49 56 51 45 32 30 31
177 163 142 113 110 63 64 -47 9 34 38 18 46 73 90 134 117 173 164 190 206 190 253 320 383 424 338 268 312 332 291 276 251 235 216 181 157 134 109 90 63 49 37 40 34 32 34 31 38
140 144 96 104 120 117 172 -68 -10 57 77 72 39 112 98 177 163 235 224 209 190 201 247 256 273 283 236 234 253 236 209 198 153 159 161 166 154 134 110 84 51 36 25 40 29 37 27 29 46
169 101 109 107 146 146 157 159 -172 5 98 113 70 107 87 134 167 210 197 206 204 220 217 206 205 211 210 218 235 242 221 165 175 183 184 177 154 133 104 76 56 46 32 32 50 56 70 64 75
162 122 90 133 154 204 161 214 -101 45 109 122 99 107 62 126 172 251 279 269 254 225 219 202 200 196 205 214 216 208 188 189 188 159 172 143 132 120 109 93 74 58 51 56 63 72 86 95 109
142 160 282 232 312 322 181 191 116 91 31 73 99 78 66 135 217 309 316 274 258 248 232 218 208 193 190 185 159 148 160 171 161 145 144 139 134 120 113 100 81 62 63 76 89 95 110 109 116
155 162 299 377 299 174 101 213 219 18 -37 63 88 91 27 101 184 282 328 320 291 288 250 244 228 224 182 163 129 136 158 168 164 160 161 162 160 153 136 113 101 97 98 105 115 114 116 111 114
173 143 121 155 137 190 160 150 119 79 65 44 96 92 105 109 179 269 375 336 330 310 269 252 264 251 200 174 169 168 185 209 207 210 210 204 203 177 148 137 127 119 127 137 135 121 123 120 113
144 84 152 174 146 92 118 89 52 4 28 60 64 94 95 174 246 354 394 381 365 325 293 296 254 228 228 227 213 211 219 233 241 237 237 235 219 193 177 162 154 156 151 148 145 133 130 123 119
159 106 153 136 152 132 -27 -16 6 49 20 64 113 61 131 197 310 368 369 360 368 351 310 297 280 286 273 253 255 260 253 254 256 262 255 244 227 221 200 177 174 162 156 160 151 144 127 130 113
70 110 155 21 -28 -78 -73 -81 7 21 16 41 122 77 100 181 256 335 341 356 367 329 281 268 271 280 254 251 268 263 254 256 263 262 258 245 242 226 198 194 183 171 167 152 152 143 128 114 115

GFSSGP_con_3kmhel_006.txt.gz
Helicity
51 37 12 39 65 76 64 73 84 133 57 50 62 51 67 90 99 102 49 -26 9 41 -12 -64 10 68 71 67 72 67 60 63 44 39 40 44 24 19 5 7 9 23 18 17 19 15 14 13 6
47 28 45 55 85 90 66 82 119 154 144 164 72 71 67 77 59 58 37 -22 15 54 9 -22 36 81 71 73 71 69 64 57 53 43 27 18 -7 10 6 9 20 26 23 18 25 21 25 28 15
39 49 58 86 78 82 62 69 142 192 193 124 95 85 85 72 84 64 33 40 39 38 26 6 27 72 66 64 60 63 57 56 52 36 -2 -4 -1 11 25 18 38 36 35 27 26 28 26 28 29
74 81 114 130 75 55 63 84 125 204 167 114 74 116 94 56 72 48 45 59 62 30 39 31 43 37 56 67 55 49 46 44 37 25 -20 -23 -7 3 10 5 50 47 33 21 19 23 24 28 23
100 115 137 124 81 61 66 65 77 140 187 158 74 117 82 73 64 74 76 67 63 34 26 34 41 28 61 57 49 45 37 27 22 12 -3 -39 -38 -36 3 8 32 27 15 6 9 10 12 15 13
147 151 164 110 34 59 61 62 96 95 126 127 118 103 93 58 74 69 59 59 61 57 29 25 32 35 72 61 47 39 23 6 0 2 -7 -25 -73 -54 -20 17 24 21 4 -1 -3 -2 -2 -4 -3
155 195 146 105 46 25 60 48 84 78 104 115 75 126 89 79 47 46 63 63 49 56 54 34 39 50 74 64 55 42 24 8 5 -5 -16 -35 -60 -70 -32 -6 19 2 -6 -14 -16 -16 -6 2 8
156 184 142 93 74 9 14 63 88 80 102 98 72 95 116 93 72 69 53 68 62 53 63 56 60 67 84 74 61 48 32 23 16 3 -3 -13 -40 -50 -30 -2 1 -1 0 -4 0 5 3 4 11
163 198 118 126 108 91 50 99 133 137 140 150 125 108 84 57 97 130 120 77 65 57 56 69 64 73 88 86 59 51 42 33 47 30 20 9 -4 -12 -12 -2 8 11 15 18 16 12 30 38 46
178 180 112 118 87 43 36 54 98 114 131 144 127 92 78 66 58 92 114 96 76 57 46 57 60 65 89 82 80 70 61 65 63 48 39 30 32 27 11 21 21 31 40 32 44 57 65 54 43
180 121 131 124 73 46 17 22 18 42 41 61 86 98 81 58 67 39 53 95 98 95 76 77 82 86 110 94 96 96 90 85 75 60 46 51 56 57 52 53 53 55 63 64 82 82 76 59 44
194 156 108 98 73 58 35 21 57 61 35 44 97 122 94 66 39 62 31 49 102 116 119 92 97 123 116 107 99 103 107 92 83 72 62 72 73 75 59 71 71 90 94 109 89 76 72 62 49
174 135 126 94 72 64 44 36 30 31 91 104 96 115 112 83 37 46 49 71 78 88 119 129 140 131 124 115 105 116 109 98 91 93 87 86 95 81 80 102 110 110 100 95 82 74 71 61 56
189 164 122 101 65 56 46 22 56 -21 20 68 99 99 114 104 71 70 57 43 55 77 110 162 163 158 159 137 119 109 122 114 108 112 106 107 105 100 117 144 127 118 98 81 73 59 57 44 35
97 114 109 98 97 85 46 14 50 50 42 53 72 93 120 108 80 62 59 57 20 49 89 154 188 206 188 166 139 136 142 140 136 146 148 135 137 134 142 140 125 106 91 72 61 57 51 55 61
130 119 115 105 111 132 84 44 24 89 90 83 68 88 105 114 81 80 62 50 23 84 100 136 176 205 221 205 206 227 183 201 186 185 167 169 143 141 151 128 123 97 83 58 50 50 47 45 34
150 173 153 152 154 141 121 79 13 37 88 87 95 77 100 115 99 59 71 54 77 92 125 161 220 249 273 318 320 282 244 246 239 217 189 178 158 147 148 137 113 93 77 68 54 46 21 14 38
180 193 139 110 107 175 137 89 52 60 60 61 56 60 71 69 63 54 60 102 100 110 141 213 254 315 377 374 351 313 307 317 290 253 228 216 175 158 147 128 107 82 67 62 47 39 23 3 27
207 186 149 158 137 109 132 93 34 34 41 42 30 5 15 33 68 15 61 97 122 141 158 222 299 362 440 405 351 321 278 277 290 280 245 211 181 158 134 108 88 67 34 6 16 11 37 14 26
163 144 137 117 129 114 69 5 20 8 11 17 32 19 44 45 24 8 41 87 144 135 173 238 304 392 431 393 282 254 243 258 276 249 228 190 178 144 134 109 77 38 7 29 32 33 11 3 -5
223 184 179 121 130 125 73 -101 5 23 44 39 32 42 42 59 52 30 69 108 143 116 187 252 329 405 420 361 362 344 311 310 271 225 224 191 165 160 136 102 61 45 21 8 8 10 20 14 5
149 164 122 126 133 101 76 -47 -8 86 114 114 79 88 52 75 111 88 125 142 118 161 201 249 326 401 341 279 277 264 238 217 166 188 178 171 164 154 127 94 77 53 16 25 13 16 9 4 20
237 101 127 142 184 161 154 182 -95 -106 12 66 101 80 78 93 98 145 168 160 188 182 214 231 289 289 249 213 223 230 212 215 239 199 188 175 169 148 123 112 90 64 38 33 41 41 43 28 30
248 172 152 168 162 170 146 206 -133 -3 -64 9 83 89 104 134 99 129 171 248 217 186 198 210 228 190 189 191 191 202 234 229 219 172 172 162 153 144 143 127 105 86 72 63 50 52 62 67 76
160 195 257 215 239 221 58 40 134 122 98 -1 59 114 80 116 130 158 212 200 204 180 198 194 180 173 160 188 215 203 252 226 188 153 157 151 141 139 136 130 137 114 99 88 78 77 79 83 93
160 198 249 262 254 114 88 114 38 13 58 60 -22 145 72 97 104 143 154 191 230 232 208 197 167 194 176 191 208 223 234 206 184 153 156 159 156 148 146 170 167 150 128 108 97 86 90 104 119
161 184 115 179 150 151 132 99 24 -17 15 35 41 70 104 92 93 108 154 210 254 274 213 228 214 222 189 189 211 213 193 197 189 189 189 183 179 179 202 201 190 172 147 134 119 109 112 117 121
131 155 169 253 186 190 126 101 40 84 53 96 67 12 49 132 136 166 205 267 300 288 291 252 224 222 206 218 224 216 206 220 225 225 218 213 220 224 225 217 206 181 163 154 138 122 121 130 127
124 106 173 155 199 140 86 47 -2 57 1 20 20 83 85 122 142 188 214 283 335 318 272 271 277 285 268 247 256 256 255 258 256 250 234 238 241 235 237 222 207 200 183 157 141 137 126 137 122
137 124 171 234 210 195 184 52 94 62 17 9 63 81 65 110 203 242 279 330 323 301 281 275 300 320 288 261 269 275 272 269 270 261 256 245 251 253 242 231 225 199 168 151 149 141 131 123 124

GFSSGP_con_3kmhel_009.txt.gz
Helicity
52 38 19 44 65 77 66 65 72 98 103 33 27 46 71 80 80 100 54 5 10 37 18 -9 1 50 54 48 43 43 43 42 28 35 32 33 29 13 -0 -6 -4 13 11 21 22 29 19 14 17
49 35 46 59 93 98 69 63 75 90 140 146 56 46 71 69 17 33 75 8 5 30 21 -8 26 62 61 51 44 40 41 44 34 30 34 14 14 7 10 1 28 20 24 31 31 39 44 44 35
35 53 65 104 99 79 60 51 70 117 138 124 112 77 96 94 66 33 40 20 33 24 16 10 55 64 56 49 42 35 35 37 39 26 -1 -13 -1 14 16 15 22 35 42 39 39 43 45 50 50
86 69 109 138 83 62 63 77 82 137 109 122 136 152 61 42 53 61 62 76 73 79 23 12 47 59 63 52 40 31 27 29 26 3 -54 -36 -27 -12 4 21 45 43 38 33 37 35 41 43 39
136 123 152 122 57 67 59 55 55 85 121 138 135 174 79 42 39 46 51 50 67 52 32 6 42 45 63 58 38 26 19 16 6 -10 -54 -65 -23 -20 -24 20 44 33 19 7 12 12 16 16 17
187 173 196 106 32 35 55 50 63 62 88 119 102 148 110 30 33 35 47 55 55 63 43 16 17 28 65 52 39 26 18 10 -4 -26 -51 -72 -74 -43 -17 38 26 21 4 -7 -1 -4 1 7 14
183 220 179 114 43 24 31 51 62 68 75 96 93 118 112 64 26 38 54 69 66 58 63 31 18 20 59 53 46 30 22 12 1 -19 -45 -55 -65 -55 -21 -1 10 1 -7 -8 -6 -0 6 17 21
182 200 159 108 44 11 20 41 69 81 96 100 94 115 126 88 37 44 70 77 78 72 58 42 30 29 48 46 53 42 33 29 18 4 -9 -21 -37 -30 -9 8 11 7 5 7 16 17 30 49 53
176 208 145 120 100 100 50 69 96 120 127 141 140 119 114 98 74 80 82 84 72 71 55 47 38 42 58 62 47 46 33 27 40 36 33 8 -14 -17 -0 11 23 24 26 27 38 50 67 68 70
181 188 126 122 118 86 89 69 89 136 155 151 188 153 104 76 89 106 77 67 80 60 41 43 49 54 64 73 55 48 43 46 52 51 38 23 21 16 24 36 43 40 49 64 85 88 77 62 47
161 100 142 110 86 103 72 63 38 85 67 94 143 167 155 113 87 75 83 58 54 47 57 58 70 81 73 78 87 68 61 74 72 64 57 47 45 48 53 51 60 59 82 79 79 76 68 70 58
142 89 72 74 100 74 50 42 57 83 51 57 95 137 145 175 100 67 71 69 61 56 58 50 83 104 73 87 98 89 81 84 84 71 72 65 65 65 77 84 96 95 92 92 94 75 65 59 56
134 86 80 70 93 97 66 39 35 16 50 88 105 114 136 158 109 62 68 78 60 53 48 65 79 114 100 93 103 100 85 85 89 83 85 88 78 87 102 121 119 104 97 95 85 75 66 64 62
122 97 89 53 23 69 78 45 93 17 24 76 90 117 127 136 119 81 50 57 69 62 55 71 79 106 116 113 111 100 102 102 98 97 99 96 101 121 140 144 134 112 101 87 81 72 58 54 54
93 86 57 59 64 71 68 49 75 65 87 95 103 102 126 136 147 93 67 55 58 49 46 55 94 115 126 126 118 118 117 131 113 116 121 140 148 153 148 148 133 114 99 85 72 56 52 58 56
80 70 68 77 94 98 114 62 108 127 85 88 84 126 119 116 132 112 84 54 62 63 51 63 80 130 146 166 179 155 165 169 159 160 165 176 169 159 161 143 129 101 88 67 56 60 48 47 47
105 107 86 104 76 110 80 66 77 91 108 71 100 126 116 127 137 124 96 64 61 57 44 60 76 115 180 237 248 234 217 219 220 216 211 187 173 167 157 143 114 90 78 72 56 49 35 39 51
75 108 92 104 87 143 111 67 62 69 83 82 108 129 129 130 148 165 125 86 75 61 68 94 119 139 238 352 349 340 315 318 279 260 247 225 176 172 156 136 109 82 80 70 48 43 24 12 33
132 98 84 112 105 77 60 18 45 58 70 56 50 38 72 105 128 142 128 114 83 110 119 113 167 218 344 388 388 343 324 311 296 300 268 230 188 172 155 129 102 87 79 58 37 3 18 25 29
90 70 66 66 77 95 48 -48 4 41 52 65 43 26 36 61 77 106 110 100 83 95 131 133 152 223 305 367 354 332 321 309 314 308 283 237 193 177 149 113 90 75 52 39 37 25 -4 -9 -3
82 86 83 75 86 102 66 -31 -31 -7 45 107 101 73 67 65 79 76 91 98 124 110 133 137 170 234 307 389 467 462 416 373 325 296 274 222 196 168 145 119 97 78 48 35 28 13 8 7 -4
77 160 110 104 125 114 115 43 32 43 35 54 85 56 69 74 97 99 89 109 117 117 150 128 176 243 318 336 353 330 265 255 228 235 220 227 180 167 149 127 104 81 57 41 16 -1 -3 -15 20
157 163 157 151 137 151 129 193 7 66 68 71 78 61 74 79 104 90 102 114 139 150 172 155 185 234 273 291 295 309 307 238 286 265 255 208 188 169 146 126 107 98 73 53 32 18 15 6 -1
198 211 200 227 193 237 176 125 -19 -19 -62 -41 7 29 60 64 70 132 102 128 171 183 168 162 199 226 261 268 256 240 281 261 281 246 220 180 180 165 148 132 123 106 85 64 52 40 33 28 25
251 246 187 220 267 306 101 38 130 52 106 45 88 56 55 125 48 93 123 124 208 187 174 185 192 225 239 214 223 185 234 213 220 217 183 184 176 157 138 136 125 107 90 83 76 65 56 56 55
244 250 263 261 210 143 140 122 98 -50 17 -37 22 85 77 66 70 86 112 133 187 215 195 181 189 231 220 216 222 185 219 238 254 204 178 174 170 159 152 153 139 124 114 108 100 84 76 71 71
220 271 138 248 156 172 210 131 101 55 -6 -15 6 76 51 -45 99 92 142 115 171 203 189 188 200 211 215 208 227 236 240 293 256 210 201 200 191 179 169 156 149 143 138 127 113 93 88 92 101
214 169 261 251 224 192 140 127 76 71 -9 51 34 2 94 67 71 89 143 146 146 186 221 199 200 217 229 215 186 208 238 274 258 231 224 213 208 194 178 175 170 161 149 139 119 113 114 112 116
231 256 227 203 197 260 165 78 28 -19 42 74 4 -50 60 164 82 97 141 148 166 223 246 239 236 259 268 229 234 266 279 269 246 241 231 223 212 197 199 189 185 170 159 142 139 132 117 112 116
216 250 185 232 243 198 225 28 110 12 20 -24 -45 -17 60 209 105 116 155 193 199 231 232 249 267 304 280 259 269 277 280 271 271 256 239 222 229 222 211 204 190 172 163 153 142 121 114 125 130

GFSSGP_con_3kmhel_012.txt.gz
Helicity
60 42 26 11 48 55 57 56 67 73 59 64 77 67 94 95 68 78 49 54 50 36 28 21 25 23 19 24 31 30 29 25 28 50 52 56 49 30 22 12 12 17 23 26 29 32 28 18 31
59 39 23 62 86 71 57 45 44 78 87 107 68 29 28 76 49 63 38 66 34 33 26 17 32 33 33 32 27 28 29 25 31 49 26 29 34 8 23 11 32 29 32 37 43 47 50 44 41
39 57 67 95 71 41 74 45 61 86 91 86 107 52 57 89 58 66 66 40 20 24 29 53 58 56 38 31 31 24 21 24 23 16 1 3 17 15 25 21 32 43 43 39 48 50 52 51 49
68 48 79 89 38 46 55 75 97 107 71 92 133 128 77 66 47 90 74 44 40 22 37 91 107 64 43 31 31 28 21 12 12 2 -42 -41 -23 -13 2 19 48 43 31 27 31 28 38 37 43
101 111 101 82 22 15 56 64 62 89 101 106 134 149 146 58 41 44 65 54 49 69 57 59 77 55 55 39 28 25 17 5 -9 -34 -68 -32 -16 -9 -25 8 38 25 15 12 19 30 27 21 26
128 155 144 89 28 52 33 55 54 47 61 104 109 117 130 50 29 38 40 69 67 46 29 62 63 57 64 45 32 28 16 3 -18 -38 -57 -40 -47 -26 -14 32 12 5 5 10 16 18 14 21 27
96 125 101 67 35 39 23 60 70 76 61 67 112 122 101 58 50 32 43 64 65 47 45 46 41 43 67 53 39 30 24 9 -9 -24 -39 -32 -33 -14 4 15 -5 -13 0 10 17 15 18 35 43
137 154 107 102 39 8 48 64 86 83 94 98 95 103 103 116 58 38 47 59 63 73 76 63 57 36 36 42 47 35 30 33 25 18 16 -3 -19 -12 10 6 18 15 16 25 32 48 48 60 64
153 147 98 69 33 51 70 45 56 104 102 107 117 173 176 128 76 57 46 47 64 72 82 80 66 44 39 43 55 42 34 38 46 47 39 4 -11 -9 0 38 27 29 43 47 60 66 60 40 48
125 127 59 81 60 58 61 83 112 117 94 104 104 130 159 133 99 92 85 67 43 56 53 63 61 42 45 50 57 41 45 36 36 36 38 23 21 25 35 45 49 50 58 74 71 72 46 30 43
136 64 65 69 52 56 51 56 71 94 116 82 115 163 202 199 137 108 98 94 73 45 52 50 65 50 63 60 55 68 57 55 52 49 49 60 58 55 48 51 46 44 57 51 46 57 62 60 54
122 58 79 69 55 56 27 51 63 63 40 132 146 166 180 175 159 134 108 101 93 56 39 35 51 71 61 57 50 66 66 62 62 58 61 68 77 86 80 79 84 81 79 66 71 66 67 61 52
71 65 60 54 63 44 47 -8 15 81 55 88 91 96 146 147 145 115 90 99 79 77 30 34 35 42 63 67 56 76 63 69 61 68 67 86 100 109 128 119 109 89 79 73 70 69 70 65 53
96 80 65 54 32 33 27 17 37 -42 3 55 87 71 90 120 128 125 80 74 85 66 42 38 38 44 48 74 63 69 73 71 71 80 86 103 123 140 147 146 127 97 86 77 73 70 59 50 42
87 64 62 36 31 24 23 6 25 -7 -20 -33 43 88 98 105 117 119 108 79 71 75 66 46 38 54 66 66 75 82 91 88 86 89 106 130 139 156 157 148 128 111 84 73 64 50 40 39 39
54 59 63 45 60 46 30 -23 31 63 37 29 38 91 99 99 102 120 130 108 85 71 68 64 55 45 65 78 102 115 113 115 102 120 127 147 152 168 169 135 127 108 89 65 52 44 38 36 37
33 59 28 46 42 63 4 -3 9 63 95 70 64 104 144 109 129 133 150 158 116 83 82 67 48 38 54 83 151 145 149 161 173 167 149 165 168 165 162 135 125 100 78 62 47 42 42 39 40
53 26 32 35 34 52 41 14 25 33 50 55 54 60 79 119 152 176 162 163 145 112 91 89 80 73 87 140 193 241 235 252 246 218 193 197 182 155 156 143 122 85 62 54 37 38 34 30 37
77 56 40 42 59 48 17 5 24 29 33 46 35 36 50 72 109 166 242 212 195 151 128 100 91 94 146 228 252 280 288 304 304 280 234 233 220 170 156 137 112 80 73 56 42 26 22 24 37
25 29 35 41 38 59 40 20 26 27 25 37 47 50 42 46 72 86 154 216 196 171 139 127 111 110 149 162 176 282 318 317 304 350 316 278 228 176 154 125 102 85 62 54 43 26 12 19 28
22 33 47 49 75 59 19 38 -44 -3 48 26 23 42 46 55 53 77 87 126 158 179 147 129 125 125 152 158 266 360 400 376 394 412 379 311 233 175 153 127 103 79 61 44 35 31 27 16 24
56 81 35 35 57 41 63 38 17 2 29 21 50 67 52 66 53 59 70 108 132 137 137 129 108 125 177 183 231 290 379 342 318 352 340 283 216 171 151 123 96 83 61 44 37 32 25 5 21
77 86 76 70 59 65 34 81 35 41 0 36 80 50 98 93 58 83 50 80 119 121 126 127 112 130 159 153 187 274 282 311 365 367 323 269 190 161 145 116 103 91 71 59 42 27 26 23 22
160 103 74 56 103 130 50 4 12 52 76 21 33 87 154 114 75 74 82 103 122 158 140 125 108 118 127 177 176 275 297 348 411 326 301 224 178 167 147 126 115 95 78 58 46 42 38 38 41
126 163 172 104 146 194 92 22 149 97 106 61 53 80 89 106 118 119 79 121 128 155 151 127 114 124 128 170 208 267 270 298 314 249 240 179 174 158 144 130 111 98 86 71 59 52 48 47 51
62 113 254 169 145 137 151 169 192 41 50 15 45 29 5 93 93 114 79 96 104 108 136 133 122 133 143 176 224 247 250 217 258 216 180 174 171 160 146 139 124 111 94 78 66 67 69 68 72
161 194 72 127 123 182 152 141 113 89 112 40 29 26 24 9 23 104 98 80 92 104 125 116 126 131 162 182 251 232 240 197 220 224 208 202 187 172 158 145 133 116 98 87 82 79 77 77 103
117 195 221 268 271 122 161 134 178 55 56 -2 5 41 48 50 58 91 111 80 92 90 118 125 126 146 195 227 225 309 226 162 270 244 225 202 193 179 169 153 137 122 110 99 90 80 99 102 130
177 276 335 302 351 345 253 158 91 110 16 -1 63 52 49 32 -1 63 135 88 105 85 119 132 131 147 180 198 317 298 252 250 298 236 228 218 199 183 172 159 146 129 117 109 92 107 115 130 145
124 163 251 283 292 465 323 261 114 90 51 38 14 15 -17 12 -67 22 129 92 107 85 124 145 143 144 182 301 327 273 269 288 274 246 232 203 204 195 182 168 155 140 132 119 117 120 139 144 141

GFSSGP_con_3kmhel_015.txt.gz
Helicity
46 26 25 13 48 40 45 56 28 50 41 52 109 87 104 113 69 72 30 92 84 67 71 47 51 37 25 16 19 20 15 10 28 58 66 89 92 67 43 29 29 29 33 35 40 49 43 42 45
63 37 16 48 51 46 40 25 45 37 91 74 44 42 74 64 77 32 9 61 65 56 62 55 54 51 37 34 26 26 17 13 29 25 38 56 59 40 47 33 32 37 38 40 45 50 49 50 56
38 39 63 72 33 -6 28 65 58 81 40 47 55 58 63 79 43 77 52 51 51 40 43 90 59 64 52 41 27 23 22 16 11 1 15 28 36 48 28 37 37 41 39 43 44 45 43 50 48
61 48 75 85 21 10 11 66 53 65 39 45 82 94 58 96 68 69 49 43 39 32 36 92 89 91 72 52 30 14 17 10 -3 -16 -13 -4 -9 6 14 28 44 40 32 30 28 27 29 32 30
65 88 82 66 21 -5 29 70 89 62 86 59 67 48 68 58 59 33 55 70 82 97 137 105 137 89 71 56 36 21 14 6 -14 -38 -37 -25 -5 -3 -8 19 33 22 15 12 15 15 15 18 17
114 114 90 74 26 20 27 69 60 50 39 43 53 48 46 75 40 53 43 64 72 74 94 115 85 88 82 58 39 26 15 4 -18 -45 -42 -36 -29 -17 9 31 22 12 7 9 10 11 12 18 32
109 110 82 55 47 31 43 54 65 56 41 28 33 103 57 59 94 48 40 47 60 80 97 89 59 81 92 63 51 37 18 13 -4 -14 -31 -27 -21 1 38 32 19 9 7 13 16 27 45 50 50
98 119 57 51 45 8 44 70 51 65 64 66 118 71 52 167 61 49 55 59 62 69 75 83 62 65 67 66 65 49 31 28 20 22 27 -1 -6 8 30 30 31 22 26 30 41 42 45 46 46
113 138 108 40 30 39 43 101 43 58 81 90 61 53 115 129 80 70 52 48 52 66 74 79 84 86 73 93 71 52 41 39 46 47 28 -2 -18 2 13 66 49 47 41 44 45 43 31 17 30
116 124 62 41 55 43 71 54 44 81 42 57 86 77 129 117 99 76 81 68 56 44 50 61 70 73 81 107 90 51 51 43 37 35 31 4 30 44 65 64 52 54 53 46 39 21 4 10 40
81 88 47 70 123 167 118 85 80 98 95 56 56 54 82 159 145 117 103 88 72 59 61 63 72 81 109 110 89 86 77 47 51 50 52 51 54 60 49 54 41 45 26 20 4 18 49 42 47
83 87 66 108 131 58 62 72 72 38 49 79 54 43 117 112 129 119 107 110 117 81 65 61 60 77 74 83 90 55 83 71 65 72 59 74 75 79 83 69 106 105 63 59 61 57 45 35 43
107 84 86 84 92 51 47 47 59 84 47 83 145 144 157 97 122 133 111 106 97 101 83 66 52 65 51 73 60 58 52 124 52 92 67 67 82 87 103 154 120 105 101 87 68 60 49 41 44
156 112 99 66 50 30 38 25 47 34 17 14 19 107 82 91 112 110 109 91 92 86 87 74 56 60 44 46 63 72 31 86 65 142 79 83 91 127 173 143 139 134 122 98 78 66 50 41 40
108 57 58 35 24 20 26 27 28 -1 13 -19 -14 -26 38 82 93 93 87 88 66 80 82 93 72 60 58 70 65 67 66 82 143 110 105 93 160 175 146 150 153 138 124 100 80 57 38 37 40
78 55 74 36 76 41 49 7 61 60 45 49 14 16 -23 72 94 101 93 85 76 90 93 98 96 70 76 90 90 73 55 92 159 136 149 149 155 133 146 160 154 132 116 94 81 60 38 39 44
51 97 44 80 34 67 13 17 64 72 59 56 71 66 56 18 82 106 110 105 76 86 111 129 116 88 87 74 72 102 117 185 108 119 161 192 159 158 177 169 150 128 125 99 75 60 52 42 38
81 43 83 72 49 21 55 25 37 52 35 46 54 60 66 70 74 142 127 125 82 73 112 118 144 111 89 92 109 159 207 226 273 279 230 198 174 166 160 161 156 137 111 85 65 57 42 35 36
116 132 88 71 60 39 51 35 42 40 36 37 49 55 54 56 56 87 96 199 161 105 162 144 169 134 138 151 232 259 292 333 287 282 283 240 218 199 179 168 158 134 110 83 64 43 36 36 39
47 47 52 39 33 57 46 50 47 30 33 38 41 46 49 54 56 63 84 90 192 224 214 215 156 142 154 238 236 312 375 340 272 284 314 302 305 252 197 156 156 126 99 80 63 43 13 23 23
21 31 39 49 91 63 26 27 -29 55 29 27 20 6 7 3 59 77 70 95 109 143 194 210 210 147 163 211 290 376 367 418 369 348 358 353 336 281 220 158 142 125 97 77 60 37 33 22 25
37 45 49 66 63 35 81 51 102 127 39 19 17 -9 1 26 71 71 84 83 102 118 218 216 247 225 184 215 249 311 394 403 349 357 383 366 365 318 222 162 144 121 90 74 50 39 30 11 26
50 123 91 85 69 93 84 127 50 121 57 -18 -87 -71 49 77 82 98 80 80 99 112 186 205 204 219 216 207 174 276 245 315 402 405 431 425 400 307 219 168 148 120 93 77 57 41 37 29 27
148 96 74 74 135 133 82 85 91 88 128 185 22 -15 46 100 151 130 72 85 104 132 196 225 184 191 216 167 226 217 222 378 434 436 471 443 381 249 205 162 141 115 99 79 64 51 40 38 42
102 145 113 55 111 162 165 139 166 59 123 55 88 33 77 97 79 108 153 118 119 143 202 198 162 176 198 161 174 150 269 315 312 391 402 408 331 239 183 162 139 118 109 85 65 49 41 44 50
58 111 145 136 159 149 224 292 196 73 86 148 85 29 58 167 128 86 72 84 97 119 237 147 154 172 209 149 153 213 299 282 308 335 371 311 258 189 157 155 143 125 107 86 69 62 58 68 73
154 112 33 165 123 171 230 150 106 80 27 14 36 22 44 75 85 32 50 80 74 100 126 134 127 172 176 172 274 327 284 297 350 322 281 260 225 188 174 162 142 128 109 91 82 74 71 81 104
91 162 174 154 227 176 176 124 228 55 71 36 48 28 15 89 149 88 29 45 54 77 82 90 110 146 152 234 294 272 294 303 315 297 295 284 217 180 177 161 146 128 116 104 90 90 104 105 113
119 86 164 167 259 284 231 302 82 74 80 129 121 44 96 83 53 26 -4 -15 52 70 66 118 128 140 176 240 241 289 329 318 344 304 319 271 203 196 183 167 146 129 115 106 101 115 116 108 116
25 86 86 206 183 276 263 354 112 48 60 54 30 50 69 49 -1 -45 -9 -55 56 68 94 119 166 160 226 250 245 346 355 342 344 299 297 243 224 211 193 164 148 135 130 123 123 116 124 121 135

GFSSGP_con_3kmhel_018.txt.gz
Helicity
71 77 25 29 51 49 57 26 55 72 39 87 79 151 145 63 56 61 40 78 135 102 98 61 60 53 50 45 36 20 8 15 39 58 87 112 96 67 48 40 38 40 41 38 43 56 58 56 51
49 65 41 50 68 74 57 -15 78 52 76 120 77 73 83 91 49 12 32 33 94 125 66 65 67 61 53 49 37 27 9 21 26 28 42 66 63 58 49 44 41 41 38 39 39 42 46 56 55
38 40 74 70 48 18 32 19 102 94 137 40 51 29 39 74 136 2 89 42 98 105 31 62 66 69 60 55 38 26 16 2 8 10 15 18 27 29 41 38 43 41 34 30 28 30 33 37 38
56 55 83 98 33 13 -2 46 84 124 61 36 60 97 73 89 83 76 51 57 76 63 117 85 65 71 84 61 41 32 18 -11 -3 0 -5 -21 -10 9 16 36 37 29 24 21 22 25 24 24 18
90 127 96 86 34 5 -10 13 94 113 78 77 29 42 53 114 121 71 62 56 69 167 164 92 96 122 98 70 46 36 27 4 -1 -8 1 1 -15 -25 2 37 26 18 12 13 13 13 13 9 4
141 127 137 78 30 28 40 36 123 70 57 32 57 31 54 64 49 60 54 46 104 170 138 103 152 125 96 80 62 43 27 9 -2 -14 -17 -20 -32 -48 7 20 12 8 4 4 5 2 2 13 19
112 114 103 60 49 44 28 24 106 112 57 42 26 54 58 187 164 72 37 44 107 144 154 125 135 107 93 72 70 62 34 16 -1 -9 -11 -12 -14 13 41 30 17 14 11 8 17 17 15 19 20
139 134 71 65 73 11 41 42 104 147 91 27 50 109 71 112 68 68 53 106 103 125 115 95 118 110 105 80 72 71 42 27 20 10 34 7 10 33 39 47 35 25 20 18 19 17 17 12 10
129 163 110 61 40 34 61 81 70 152 92 75 73 83 63 120 72 98 102 102 97 94 96 76 94 105 99 101 79 79 80 50 42 51 33 16 2 11 39 59 44 42 33 33 24 13 -2 4 4
203 166 123 77 63 69 94 71 101 141 57 81 113 81 73 26 60 89 61 67 85 79 83 85 80 79 107 111 128 91 81 73 52 35 38 10 15 52 79 68 58 48 48 38 21 9 14 13 16
136 121 103 80 108 95 127 216 141 131 127 104 73 80 107 61 73 91 58 52 49 72 82 96 150 162 113 149 114 89 107 67 48 62 43 46 124 102 78 65 54 45 31 33 29 15 39 34 35
92 108 82 86 169 141 86 119 193 152 109 83 80 85 56 153 93 96 119 93 100 90 95 112 121 165 183 164 116 66 88 52 44 54 71 119 105 81 64 69 61 40 50 79 89 77 53 53 62
104 104 86 123 134 159 107 105 96 143 181 72 72 147 124 114 171 134 89 61 103 146 137 150 131 151 185 193 135 79 71 77 87 108 113 137 105 82 81 149 169 134 143 138 118 103 83 69 56
114 114 100 137 147 107 82 60 77 89 15 39 75 113 200 183 179 132 153 129 107 131 171 195 172 193 149 183 142 78 58 130 78 148 110 111 109 98 215 233 172 167 136 145 131 108 85 73 61
214 128 87 88 72 101 69 48 55 32 41 42 43 50 34 131 161 129 112 123 101 99 151 172 205 220 136 95 128 80 61 112 132 178 109 100 153 234 214 174 182 155 147 154 151 124 90 84 62
94 74 87 38 19 50 69 36 53 70 53 66 48 54 63 53 31 49 99 117 89 110 114 161 194 230 179 120 92 111 62 118 222 181 158 163 245 258 214 170 187 161 166 148 151 127 99 80 69
78 113 77 75 34 56 73 42 38 80 78 81 63 76 82 69 53 63 102 131 125 107 117 138 212 222 226 225 138 130 99 193 242 225 185 236 298 224 199 205 208 176 190 171 133 121 86 68 57
114 105 122 134 125 68 69 53 66 75 74 70 84 85 87 91 103 113 120 140 152 153 128 171 223 246 242 307 194 154 155 253 247 254 279 409 316 260 215 227 226 213 184 151 130 102 80 62 47
198 201 199 167 191 113 67 53 50 48 59 47 89 87 71 73 50 91 115 138 185 157 181 170 260 286 320 349 246 202 246 331 425 470 475 349 280 244 241 247 230 206 195 156 114 86 86 74 51
105 97 75 57 51 56 42 53 47 69 84 78 75 79 76 72 63 69 82 130 148 162 169 177 222 288 286 310 270 281 366 400 473 450 394 314 270 296 299 286 252 234 207 165 121 97 60 41 39
87 71 66 66 62 35 32 12 12 68 10 26 35 20 22 53 67 57 67 110 170 140 153 234 227 290 303 287 479 538 580 585 515 486 426 379 319 376 326 320 261 225 184 149 110 88 68 36 17
72 77 65 53 60 44 107 28 63 65 71 30 43 60 40 53 84 75 63 29 121 192 143 188 270 281 339 465 574 526 470 518 533 485 451 380 374 407 345 344 291 221 169 138 99 77 55 42 30
58 98 120 99 79 71 51 87 15 -17 56 106 95 119 84 51 70 69 85 117 81 112 194 169 184 268 340 481 520 510 486 493 534 491 419 394 421 424 371 352 294 217 165 131 104 78 70 52 40
124 101 64 60 84 69 0 41 74 127 52 98 236 278 232 150 113 129 156 144 114 119 139 203 234 275 345 410 442 433 435 467 505 511 455 459 462 448 420 345 269 228 181 136 104 86 77 63 57
105 113 61 12 65 81 84 75 269 207 93 86 132 176 142 128 133 141 146 140 148 105 119 153 264 328 374 374 354 349 384 412 472 500 471 504 477 433 406 363 252 220 167 130 97 83 67 65 69
53 114 80 103 97 124 198 252 278 126 135 176 208 149 164 147 143 160 128 76 96 115 151 120 267 347 360 338 361 397 419 439 426 414 429 426 447 421 365 280 248 200 165 130 108 91 80 81 69
108 68 122 181 148 142 214 269 171 53 38 59 81 99 142 125 81 155 125 80 119 97 96 143 227 299 284 316 386 423 441 432 369 372 366 448 446 417 323 280 237 185 159 126 104 94 86 88 76
76 100 179 206 101 152 194 173 189 87 95 117 186 128 117 129 145 222 150 68 96 88 111 184 197 202 274 324 365 410 440 455 357 323 390 431 435 303 312 282 229 194 161 135 122 106 102 100 85
140 94 176 255 264 212 180 314 378 210 91 111 120 91 140 204 208 187 158 46 21 34 56 156 180 181 279 463 445 412 394 311 291 348 402 414 384 316 296 273 214 177 147 129 110 107 114 80 96
112 131 113 216 161 247 306 169 194 43 114 182 160 112 82 83 114 70 53 24 23 -2 26 127 117 209 470 420 398 369 321 298 337 441 471 404 356 312 280 238 198 169 161 143 136 126 125 117 117

GFSSGP_con_3kmhel_021.txt.gz
Helicity
53 46 41 75 96 97 76 44 78 94 49 36 50 83 86 92 87 104 24 76 148 112 61 61 58 69 64 60 59 51 40 23 19 50 94 90 90 72 58 47 40 35 31 25 27 38 49 52 38
57 54 70 91 107 116 67 50 129 17 73 90 107 91 99 103 66 21 69 127 126 131 64 52 58 71 66 56 62 46 47 50 35 50 83 86 85 65 42 39 31 27 21 21 26 29 35 34 32
59 52 94 74 76 65 56 55 153 83 91 82 59 56 64 90 41 -48 56 139 120 112 64 50 63 68 59 55 62 47 41 41 25 17 32 39 41 38 31 30 25 20 18 20 26 25 23 19 20
77 117 112 104 60 31 31 80 41 63 75 61 63 71 65 92 17 3 122 189 115 92 80 63 64 66 76 56 60 51 45 38 16 -1 -7 -16 4 12 21 21 16 13 13 12 14 12 6 7 9
124 135 113 90 35 15 3 119 49 70 88 55 43 34 46 84 97 40 130 145 103 108 83 60 78 83 83 56 65 51 31 28 15 8 -11 -22 -25 -23 -3 4 4 3 2 3 -2 2 0 3 9
147 138 123 85 43 44 34 69 58 91 81 91 74 50 27 29 72 28 105 188 182 122 74 68 86 96 92 64 63 61 40 30 19 11 1 -19 -37 -34 6 -1 -4 -3 -2 -3 -1 0 3 13 11
131 153 118 90 41 50 6 71 91 110 88 58 67 60 84 99 40 41 99 194 187 176 128 104 94 98 92 65 56 49 48 37 25 13 11 -20 -58 -3 20 12 4 4 4 9 20 12 5 5 7
138 162 130 100 53 2 -3 12 -14 140 175 163 102 68 134 71 42 36 56 194 212 153 129 142 126 112 89 67 59 57 51 50 49 23 32 18 22 39 25 16 11 7 15 16 17 10 4 4 4
146 189 140 114 70 44 56 26 19 79 137 146 144 60 63 60 79 81 118 209 184 148 125 123 143 140 107 98 73 79 66 55 50 61 36 23 41 46 47 28 25 17 16 19 14 9 14 8 4
220 185 129 125 52 41 69 65 68 117 158 154 125 91 67 73 89 104 129 133 175 142 126 114 123 130 121 108 104 98 93 81 46 63 46 26 31 59 68 52 42 28 29 23 18 22 29 34 30
180 153 133 77 45 72 41 112 86 229 232 138 103 122 63 84 64 68 90 100 85 140 128 128 117 108 106 139 144 127 111 102 61 55 37 57 43 58 85 72 53 38 38 33 42 40 42 56 58
155 137 91 56 49 86 100 109 146 142 237 305 177 124 107 115 91 78 49 59 77 92 111 148 149 125 105 138 160 131 114 94 63 45 47 79 93 123 90 80 68 58 44 62 64 61 79 80 71
139 122 113 112 126 95 95 102 112 122 185 177 96 107 128 157 130 88 54 61 80 103 101 142 185 164 193 196 167 148 116 89 48 67 64 101 99 90 116 108 90 91 94 109 111 103 99 96 86
147 119 154 137 117 113 105 57 97 110 84 87 103 22 65 158 197 157 130 120 111 131 158 135 207 210 261 230 184 174 125 92 71 70 81 125 117 114 151 169 173 164 171 145 126 108 100 104 93
182 191 169 101 70 76 106 51 98 75 85 87 31 33 -10 62 153 197 142 115 179 105 156 178 204 283 274 243 211 185 139 115 106 99 135 130 118 165 212 248 217 192 184 178 163 143 120 124 97
159 113 93 61 79 96 125 59 51 44 123 137 106 61 17 -34 35 140 156 128 129 183 143 180 224 254 304 248 208 189 121 148 167 143 143 145 184 210 209 241 213 212 192 169 179 157 144 115 97
137 105 70 136 71 101 109 64 30 105 146 111 98 89 80 50 37 21 125 133 95 149 189 206 289 276 240 259 243 191 134 157 194 190 240 258 277 250 236 248 234 235 214 197 186 177 129 113 92
90 121 142 137 145 127 117 93 91 63 71 46 69 75 78 80 59 38 62 121 118 86 159 153 331 323 309 253 228 203 190 182 224 241 303 331 353 287 287 274 245 240 249 231 201 169 150 104 87
138 158 126 113 181 136 79 72 61 51 13 -4 1 37 10 23 27 47 62 73 82 105 98 147 195 337 440 390 309 255 228 245 295 302 383 433 390 341 341 284 265 228 241 221 190 167 147 137 95
82 76 60 70 107 111 67 28 23 50 81 82 35 55 41 35 36 17 26 56 84 86 93 99 131 292 429 474 398 329 313 311 343 363 390 419 383 392 347 302 257 232 267 238 197 157 134 112 107
74 77 63 58 56 52 35 14 43 55 36 43 41 53 72 61 56 55 65 40 47 69 96 100 105 196 382 437 503 565 570 540 487 444 427 425 418 398 356 331 297 235 253 239 192 150 126 104 85
65 92 75 97 71 76 57 33 68 43 21 48 34 23 20 21 48 61 94 102 84 45 85 114 123 122 299 422 533 530 472 500 493 502 514 450 414 414 401 351 334 274 281 247 185 139 113 92 77
58 75 69 72 63 32 74 89 19 -36 41 42 82 94 58 40 56 58 82 143 142 136 120 141 107 165 185 387 482 514 503 553 602 571 583 514 482 436 431 368 358 303 294 255 188 147 122 91 78
81 66 61 54 49 87 38 120 35 -30 -3 54 56 86 108 111 128 151 140 167 176 187 180 138 133 141 231 334 443 486 579 572 584 559 538 558 552 488 432 389 369 316 286 268 197 152 128 103 90
108 80 51 69 100 69 109 73 179 57 38 40 37 45 86 109 173 172 187 212 221 232 201 153 143 161 188 346 437 554 563 578 529 501 545 610 577 526 445 392 368 342 314 264 213 163 128 102 93
81 74 82 50 34 24 116 42 21 -12 9 41 67 88 96 93 110 122 141 179 216 206 142 127 111 146 252 329 417 487 543 555 458 473 524 497 521 507 441 399 372 353 319 270 214 155 119 97 85
82 53 104 110 84 105 106 172 118 34 45 170 138 176 140 129 123 148 219 228 178 123 113 97 96 126 231 345 397 466 546 461 418 422 408 431 507 447 406 430 438 401 268 251 200 131 109 95 83
59 68 107 123 49 66 90 67 91 11 64 134 122 116 125 142 143 238 276 232 166 134 51 64 59 95 223 345 370 504 496 419 397 376 384 409 468 429 478 429 407 327 276 227 170 130 105 98 88
88 102 133 147 160 94 72 89 201 163 106 48 140 172 202 180 126 115 141 142 109 126 71 43 59 115 257 328 413 462 427 381 339 318 339 389 413 442 456 373 381 189 231 181 162 122 98 94 90
118 109 163 129 84 194 224 319 96 24 98 134 112 114 110 92 88 134 86 58 98 116 82 23 44 194 224 298 366 400 372 372 310 271 343 357 450 480 456 366 312 250 212 172 132 119 112 100 96

GFSSGP_con_3kmhel_024.txt.gz
Helicity
51 50 34 66 92 92 86 83 96 151 130 12 4 38 41 72 58 87 22 37 112 102 63 40 44 56 61 61 74 84 76 82 93 76 89 86 83 62 50 42 34 29 22 23 31 44 41 32 26
59 68 81 89 113 113 80 75 133 155 95 26 37 33 71 95 61 82 60 48 104 109 74 44 47 48 50 54 59 74 69 56 67 104 82 88 71 55 42 30 23 19 19 17 14 17 25 26 25
87 93 104 119 125 85 78 146 175 115 56 47 63 40 52 96 60 6 37 94 141 113 89 47 49 45 52 55 52 83 79 68 72 87 93 81 60 34 26 18 13 11 9 8 9 10 13 18 23
143 152 162 158 72 43 49 140 197 236 36 61 43 55 82 65 87 36 102 112 156 126 103 55 49 47 57 60 47 69 71 53 47 42 36 35 25 13 10 9 4 -3 -10 -11 -8 -5 3 6 8
182 188 182 139 37 17 45 70 104 210 113 51 42 70 75 98 69 114 110 106 142 139 111 70 52 47 64 60 41 53 62 50 34 22 11 8 4 1 -4 -8 -11 -16 -22 -24 -21 -11 -4 -0 10
239 207 187 124 38 12 -11 64 93 113 83 72 51 57 80 35 104 110 101 84 119 142 106 66 61 51 59 62 38 43 60 51 34 8 -1 -9 -19 -11 -8 -10 -16 -20 -20 -18 -9 -3 4 11 14
218 212 155 92 47 45 3 2 105 161 111 92 72 96 71 42 39 94 112 111 99 108 104 71 68 60 61 56 48 35 49 52 50 36 8 -10 -30 -17 -3 -7 -13 -15 -11 -12 -2 12 11 10 16
156 180 116 83 81 52 40 61 111 115 118 111 120 111 85 36 12 152 166 166 148 121 103 80 82 82 79 63 54 44 53 54 43 30 24 -16 -32 23 23 7 -3 -6 -4 6 8 12 17 18 28
147 178 129 107 103 93 73 74 70 71 107 139 182 133 100 104 90 208 199 194 170 139 115 116 111 123 105 87 59 56 59 71 57 45 23 22 35 56 58 35 18 12 10 9 15 19 22 19 25
181 163 118 90 87 70 67 56 48 137 174 145 190 168 199 139 94 155 159 165 160 154 130 119 129 130 119 98 88 81 76 78 76 71 44 46 57 52 52 46 50 41 36 28 26 32 34 43 44
170 135 135 94 86 60 107 128 62 144 173 183 191 105 142 170 131 114 141 144 164 156 146 127 136 144 141 129 120 109 102 96 87 83 80 52 62 64 63 60 53 56 65 67 65 72 58 54 52
161 132 112 80 63 62 57 86 79 130 156 170 211 257 175 144 126 110 108 110 164 168 160 152 152 163 147 144 151 132 123 103 108 88 92 90 82 74 77 78 64 76 77 86 84 90 91 90 74
148 156 128 84 81 97 93 58 71 52 135 154 174 203 230 261 190 107 112 120 150 160 158 162 171 159 169 149 143 149 138 134 98 101 96 96 103 105 101 92 81 91 94 95 125 127 113 109 96
182 106 115 93 92 99 74 52 86 64 12 100 104 110 134 215 237 252 173 99 106 130 191 193 173 167 183 174 176 146 141 131 122 107 112 105 120 132 142 123 114 108 115 120 134 131 127 123 107
163 161 175 126 81 88 100 16 63 44 16 30 55 49 32 60 192 207 211 188 147 113 164 243 227 209 196 198 208 191 176 148 140 111 106 104 124 155 144 147 163 154 144 170 170 171 150 142 118
150 166 138 89 81 75 123 41 71 55 71 75 47 33 60 -22 32 150 157 162 149 149 146 233 254 266 225 228 241 242 207 179 149 105 104 113 133 185 195 224 220 182 184 191 185 173 179 158 138
206 149 114 133 67 98 128 75 46 94 111 105 105 95 102 67 34 25 113 148 100 132 167 182 279 280 289 273 276 283 237 209 168 118 127 144 161 205 238 239 239 227 231 215 186 189 174 168 143
111 133 127 123 161 179 129 98 75 98 102 111 101 56 63 65 34 80 102 143 152 119 119 148 197 283 274 302 295 298 281 259 184 192 182 225 240 275 290 283 280 252 250 223 213 217 222 170 137
173 144 144 102 91 74 90 76 68 38 67 38 2 -5 -1 -4 -17 67 101 130 107 143 133 110 154 214 341 355 354 307 286 286 260 230 257 310 316 319 348 307 298 264 234 196 214 238 208 202 147
111 100 103 94 62 52 51 29 7 41 82 114 28 -2 4 8 17 40 64 85 92 102 139 144 164 176 291 360 340 370 356 370 291 363 318 309 349 390 374 359 314 273 257 209 201 215 208 187 169
93 85 106 100 37 -8 8 17 58 90 68 51 66 39 32 26 -5 -3 27 35 45 63 84 98 107 116 191 273 423 502 515 510 453 366 350 337 378 379 373 395 377 308 271 190 177 194 188 182 170
113 62 30 58 60 65 60 29 41 36 50 30 29 53 67 64 88 38 35 36 48 54 61 64 87 120 147 244 383 419 434 430 393 367 428 424 386 410 421 439 404 334 274 203 195 187 177 179 154
73 73 41 32 31 21 19 67 5 21 61 35 13 25 30 40 59 57 85 104 96 92 90 72 75 102 158 280 274 351 416 444 506 529 500 495 487 450 459 451 423 353 310 259 238 243 208 170 140
83 84 73 43 35 66 15 89 18 4 29 6 30 88 75 65 51 55 67 71 73 120 141 164 148 137 151 208 283 262 344 531 597 541 543 549 530 505 471 476 439 370 333 316 281 281 239 175 149
105 88 82 77 85 53 42 45 43 30 -43 27 43 57 55 51 63 71 92 117 149 155 153 134 124 162 178 133 209 264 410 461 548 528 539 577 577 527 485 545 515 422 380 363 344 290 262 180 149
77 56 48 41 33 37 55 26 21 16 28 80 106 68 98 125 88 60 69 122 154 160 155 152 123 84 70 92 176 262 353 456 478 497 508 550 589 570 576 554 526 431 386 334 361 283 248 189 160
38 72 60 80 57 60 65 96 15 6 58 181 116 103 151 161 127 111 93 153 196 185 166 153 139 113 78 40 154 288 406 485 484 508 509 541 532 511 530 489 530 415 375 363 322 321 241 194 155
61 66 84 102 58 43 42 44 42 2 68 74 57 61 85 112 141 155 140 164 212 187 181 136 87 45 44 65 184 295 421 453 476 494 448 424 454 426 488 537 515 408 428 446 326 358 206 228 145
88 80 87 80 77 47 36 18 80 45 -1 -11 43 33 1 -20 30 87 191 176 132 109 126 115 75 50 27 83 227 333 392 422 423 383 398 427 398 422 496 532 468 405 447 380 336 288 174 203 136
79 61 121 64 33 58 37 130 -4 41 38 33 -40 30 40 64 93 108 69 96 137 113 134 119 85 54 14 137 286 358 405 401 339 344 356 357 385 402 493 520 455 414 435 303 257 207 186 168 124

GFSSGP_con_3kmhel_027.txt.gz
Helicity
70 69 41 61 92 84 78 87 98 176 158 70 68 39 39 57 79 101 51 51 115 100 47 46 31 19 38 45 55 67 85 99 124 131 116 87 61 44 36 33 28 25 20 23 41 49 39 29 20
79 79 86 72 93 88 70 58 117 123 106 105 66 44 44 63 66 85 58 12 74 85 64 55 35 21 33 29 33 39 64 80 100 107 93 93 61 41 33 23 21 18 13 10 15 21 19 22 19
105 107 96 92 78 54 63 92 139 168 157 102 78 59 30 48 66 47 10 74 88 93 87 59 57 28 34 42 33 27 39 58 80 99 92 68 45 38 27 22 17 13 9 5 3 4 7 11 17
137 159 152 128 80 56 56 118 180 236 171 94 63 90 44 56 71 33 74 112 119 106 103 69 69 40 37 43 45 47 55 61 77 91 90 59 33 15 11 9 3 -2 -5 -6 -6 -5 -2 2 7
202 191 171 126 87 45 66 34 91 220 270 194 93 88 75 89 83 101 113 109 132 137 114 90 76 50 40 36 42 38 38 56 54 47 39 22 11 8 1 -7 -13 -20 -24 -23 -20 -14 -7 1 8
241 219 191 163 64 46 45 48 85 168 189 209 134 100 77 62 88 78 117 100 94 130 123 101 70 54 46 31 40 39 35 44 41 31 9 10 9 -2 -8 -10 -16 -22 -24 -22 -11 -7 -3 8 11
232 252 181 135 54 79 51 23 130 138 136 116 78 98 80 55 60 109 112 101 92 109 123 109 76 54 50 41 48 45 32 32 27 14 5 7 12 11 2 -5 -14 -21 -25 -15 -9 1 7 15 25
218 226 170 150 85 60 22 48 71 95 110 92 69 74 80 52 77 132 122 126 112 103 99 92 84 73 68 61 53 49 44 33 40 28 13 -10 -7 18 16 15 2 -2 -13 -7 7 2 13 30 36
219 236 199 168 87 52 48 104 114 102 128 140 116 97 90 212 181 175 170 155 120 102 92 91 90 77 86 86 59 59 53 49 51 48 33 6 -31 3 31 18 16 20 12 11 17 19 29 42 50
247 230 183 126 68 39 87 72 91 122 168 158 173 126 152 218 173 171 153 121 116 108 81 79 70 86 113 101 81 77 74 72 54 55 51 34 33 60 63 42 28 31 37 41 47 60 64 71 59
229 188 188 103 74 44 67 99 45 99 150 136 158 142 189 219 181 167 119 128 113 127 114 91 92 93 121 126 112 101 101 88 71 63 65 69 82 88 77 63 46 43 50 62 83 82 79 88 81
191 163 125 56 50 31 26 56 58 65 95 144 184 185 176 165 145 139 135 123 133 137 130 115 115 114 129 140 141 133 124 109 95 75 82 105 103 105 89 85 71 72 73 77 97 90 90 103 103
182 204 120 72 63 41 31 42 46 31 63 147 152 203 207 195 149 153 136 160 190 174 133 117 143 152 151 160 151 148 145 148 116 111 111 123 117 106 105 94 97 89 100 89 103 118 109 109 111
131 100 88 99 69 64 35 38 69 70 28 90 86 149 186 193 184 184 169 196 203 152 153 176 169 166 174 184 175 164 146 147 143 138 131 131 123 127 125 118 109 104 107 113 114 118 116 120 118
154 126 136 95 75 88 46 12 62 69 34 18 19 54 116 128 129 126 134 171 194 195 158 161 191 203 201 185 192 169 143 126 139 151 150 141 143 134 133 141 132 104 122 149 144 142 139 136 131
172 171 138 129 96 81 82 4 94 46 82 75 37 5 25 68 76 92 112 157 180 223 223 207 201 207 222 230 217 188 158 145 139 145 158 153 156 150 161 176 145 144 169 169 157 146 150 140 136
220 154 137 137 87 105 124 33 19 52 85 86 64 46 7 44 95 102 102 120 156 160 181 191 211 241 233 255 252 234 216 199 159 141 169 171 157 173 182 161 157 190 198 173 161 163 147 144 147
182 126 125 125 140 119 137 79 56 76 82 87 95 59 36 42 39 112 98 62 129 125 135 140 163 196 275 303 279 254 261 220 207 155 196 197 180 201 200 205 237 236 231 200 188 184 191 166 155
141 155 139 122 108 84 54 57 55 34 52 35 28 19 29 16 -15 13 79 120 78 112 178 170 177 146 262 371 363 271 246 264 255 191 219 233 215 231 235 238 259 246 222 211 215 215 194 196 171
192 159 102 102 77 89 59 23 32 30 48 64 68 40 24 57 43 39 58 77 113 161 182 201 183 158 223 283 326 387 303 268 273 253 292 281 288 275 308 298 278 228 251 244 222 209 210 204 174
109 86 99 104 122 34 47 13 69 49 49 75 70 70 27 8 -3 6 22 64 87 102 116 151 197 186 185 210 308 450 510 471 446 337 322 318 303 311 341 341 304 284 317 270 231 194 183 212 200
92 60 41 74 86 77 96 1 47 63 73 31 34 42 56 77 100 102 98 68 55 88 98 103 127 141 162 184 323 381 418 431 404 376 366 374 346 305 366 386 375 333 320 296 242 195 188 229 214
76 69 59 37 39 39 68 75 15 75 102 79 115 115 78 71 73 104 109 92 109 104 106 98 96 89 106 156 230 279 287 335 425 518 450 402 412 320 364 392 396 362 365 345 304 282 175 210 221
80 109 90 49 34 76 36 79 33 21 50 80 110 144 153 164 123 83 78 92 75 69 77 82 94 111 137 147 178 220 218 315 413 527 514 456 434 427 411 432 414 409 432 389 309 289 257 222 239
113 109 111 118 136 64 27 50 -5 -16 40 27 65 95 102 93 122 151 139 131 108 80 58 70 76 78 58 72 144 212 208 272 310 366 444 505 494 469 407 482 473 467 453 449 396 316 339 295 287
105 79 80 87 84 75 47 31 -3 3 65 31 39 54 98 118 86 89 77 74 97 63 68 90 111 97 81 56 45 92 179 273 327 353 421 417 457 479 493 493 530 558 499 449 456 319 364 337 326
70 84 73 42 13 37 49 32 5 52 104 121 89 97 80 66 48 37 30 41 65 87 104 97 115 114 99 56 59 81 137 236 266 282 340 405 437 461 534 561 613 547 486 505 489 364 380 356 292
49 46 78 102 44 42 41 25 8 35 68 55 25 58 -26 -72 -105 -88 -26 14 62 116 181 212 167 129 124 97 59 90 148 218 257 330 326 376 458 461 505 557 559 494 486 483 475 468 338 366 339
92 89 87 70 60 27 24 -5 0 24 30 45 23 -61 -26 -7 -25 -17 76 35 20 111 167 186 176 157 129 96 34 95 168 223 275 300 389 395 426 465 440 447 484 451 488 490 557 521 361 391 238
55 57 79 63 33 55 31 44 -3 -63 24 -9 26 43 42 37 1 36 79 78 94 115 195 205 146 144 129 110 75 103 159 209 244 265 352 416 377 354 376 387 405 475 555 582 525 420 447 384 273

GFSSGP_con_3kmhel_030.txt.gz
Helicity
77 78 61 71 95 102 104 101 88 152 153 101 75 85 98 90 101 118 25 32 68 90 55 44 29 28 13 14 33 47 56 92 98 95 89 81 73 63 47 34 21 12 11 32 44 66 51 30 15
84 79 107 76 86 89 83 73 95 119 141 128 89 83 118 110 57 68 57 27 84 72 73 52 30 33 24 20 25 29 39 75 101 99 94 68 48 35 31 29 23 18 18 15 22 24 24 11 10
95 111 103 85 56 40 68 70 108 139 164 109 116 77 73 87 59 38 15 33 71 88 78 48 30 32 27 27 29 34 36 45 90 82 88 64 40 32 26 23 19 14 4 -4 -1 6 7 11 11
132 159 142 104 51 51 44 98 101 187 164 142 123 118 59 38 57 38 55 87 104 95 87 40 48 43 29 23 29 37 31 30 72 67 72 46 32 26 23 20 12 4 -4 -10 -9 -5 -3 -1 8
223 176 140 88 47 27 52 28 69 152 202 201 179 154 64 55 58 83 122 121 100 101 92 75 72 50 33 25 24 27 23 24 54 80 49 30 19 12 10 5 -5 -9 -13 -11 -8 -2 2 6 8
263 207 146 107 56 39 38 46 38 108 146 200 169 160 92 52 67 62 92 95 87 103 98 84 70 44 39 32 42 36 27 35 44 45 35 20 11 9 12 2 -4 -11 -9 -7 0 2 3 8 13
233 257 156 98 56 49 44 43 85 99 140 182 132 152 109 65 49 67 93 113 103 104 111 93 75 56 47 41 49 42 38 21 17 20 11 2 13 6 2 5 -2 -4 -10 -1 4 7 6 12 16
227 226 142 125 102 60 42 54 71 77 92 73 35 83 77 57 104 117 130 118 114 97 83 79 70 82 66 56 55 51 43 25 13 8 12 17 16 10 9 1 -6 -3 -2 -14 21 23 19 25 29
247 220 178 148 108 63 46 99 124 93 101 126 80 103 106 96 172 159 126 128 99 74 75 85 93 79 73 73 64 66 53 42 31 18 26 27 20 11 26 19 6 2 4 22 27 32 39 41 51
257 204 161 155 119 53 82 98 130 146 152 127 133 147 135 147 157 125 74 94 93 57 38 58 57 75 85 79 91 92 77 65 58 50 41 34 19 28 49 35 33 27 30 33 35 53 63 46 42
241 183 218 161 125 93 85 89 89 112 128 80 137 177 181 158 143 105 78 71 73 58 59 55 58 64 90 102 114 111 104 93 83 70 57 52 54 70 80 69 54 52 62 63 75 70 66 61 52
187 186 174 140 132 86 42 65 97 81 64 78 108 163 184 158 113 95 85 85 75 76 64 69 75 72 85 123 120 117 119 110 110 97 89 92 91 111 109 91 83 69 76 83 85 81 75 80 78
154 146 136 108 134 80 43 33 47 64 46 84 96 159 183 160 134 115 101 118 125 87 97 90 91 94 91 134 126 131 124 118 108 121 131 134 129 122 126 112 105 91 89 91 95 98 93 85 88
92 125 116 112 63 51 15 27 51 42 45 69 58 115 157 165 153 161 150 106 134 150 130 140 127 137 125 130 119 146 142 133 122 134 139 145 149 143 138 138 129 111 96 104 102 104 109 99 91
152 120 110 72 50 59 -2 16 57 41 53 49 42 59 124 153 161 155 161 136 126 122 152 185 170 147 151 139 160 177 150 145 137 141 139 145 156 147 138 148 146 126 137 138 141 136 131 118 110
168 136 115 112 75 81 70 5 52 41 57 60 46 33 59 94 129 138 134 130 138 147 152 157 184 172 159 197 214 212 194 169 148 145 144 153 173 168 158 160 143 158 161 162 160 147 147 133 116
216 139 143 137 71 97 104 7 19 105 48 63 72 48 43 60 83 92 92 126 125 150 164 169 193 214 213 214 222 227 207 193 168 155 139 162 179 174 187 166 160 191 185 163 178 169 144 140 140
179 168 122 112 110 106 107 54 28 41 45 37 66 71 64 43 29 87 114 121 140 163 172 183 201 177 210 245 249 243 237 190 208 186 160 169 170 190 197 191 204 218 208 198 192 182 180 154 150
117 132 112 115 113 71 42 7 20 37 41 47 45 43 57 51 56 77 95 111 125 160 179 205 240 225 261 281 257 232 212 248 253 230 204 201 175 210 218 202 204 224 218 187 213 214 186 189 169
128 134 112 101 76 55 40 4 31 41 47 67 75 80 68 56 30 31 61 94 108 105 126 142 171 200 254 282 267 288 246 261 275 269 234 252 218 235 237 227 243 234 226 228 216 222 224 198 167
140 106 88 85 98 48 32 -24 55 56 54 67 72 64 63 78 64 66 69 82 84 83 113 135 128 128 201 258 272 400 376 345 365 332 275 294 300 265 259 274 285 260 213 218 227 234 235 235 179
118 84 108 116 108 65 73 -26 66 79 117 101 156 158 139 143 124 133 164 177 152 154 141 120 156 154 151 183 266 293 297 325 358 374 342 371 373 312 296 318 303 308 270 286 247 252 257 263 218
97 76 68 64 77 64 80 40 57 88 142 173 242 188 153 150 123 127 112 106 108 118 135 183 133 158 156 160 196 231 229 258 300 328 336 389 402 355 345 339 340 303 368 286 329 315 296 301 244
44 87 64 51 47 89 64 62 29 71 108 140 132 143 165 146 152 130 118 126 152 125 120 127 145 84 118 161 168 208 198 203 289 337 345 384 444 416 362 373 383 379 396 373 351 328 323 323 273
98 91 76 82 104 64 41 66 21 67 39 40 80 45 106 107 85 64 47 85 141 140 139 117 138 141 104 76 124 124 138 178 240 311 329 372 408 428 365 396 401 442 427 431 421 383 347 339 357
104 70 66 80 101 82 66 83 66 22 74 63 11 44 116 108 41 18 19 30 32 60 84 79 88 107 134 124 106 85 98 166 196 251 276 301 318 345 394 454 401 418 483 490 443 439 404 396 418
78 92 75 48 31 72 60 41 28 52 61 46 29 70 49 -44 -60 -32 -34 -4 -12 28 80 93 133 124 137 145 148 122 86 114 150 182 220 248 276 310 385 439 466 430 459 462 493 510 465 459 478
69 61 87 97 64 85 66 62 36 43 98 90 66 -25 -23 11 10 -47 -50 -50 -24 39 76 132 133 153 169 188 176 153 112 90 124 174 207 233 275 327 352 403 453 459 455 456 524 549 484 465 529
88 76 80 53 60 42 46 30 10 19 54 -56 -6 6 -9 -3 -27 -14 9 31 70 76 79 127 215 253 220 179 203 169 132 79 107 147 186 232 283 282 305 345 399 435 439 458 518 561 558 550 470
34 23 58 51 36 56 39 25 14 -42 -31 -7 -6 0 11 24 -12 -5 39 46 4 16 58 66 143 253 364 286 216 182 135 97 100 115 158 203 238 250 260 307 342 389 424 458 534 619 575 594 402

GFSSGP_con_3kmhel_033.txt.gz
Helicity
74 75 61 72 75 90 94 91 72 107 129 89 95 97 109 108 117 111 26 18 48 67 40 39 27 19 5 -14 11 34 53 69 91 106 100 61 51 44 35 32 19 15 36 49 61 70 37 22 16
85 81 106 80 75 86 88 84 102 102 157 133 93 83 116 133 63 80 43 15 51 85 46 41 26 17 16 -14 13 35 39 49 64 66 62 48 35 22 19 18 16 27 39 36 52 28 20 15 11
107 128 106 87 69 72 82 85 96 116 153 117 127 73 97 112 70 41 26 25 49 69 52 49 30 27 6 -1 8 28 34 65 70 69 52 31 16 14 16 14 12 12 15 5 4 5 6 4 -1
145 168 140 103 64 62 69 84 87 143 125 148 144 146 81 59 63 19 21 46 40 64 67 59 46 39 14 7 6 19 22 29 55 64 43 19 8 8 8 8 5 -6 -14 -15 -12 -5 1 -2 -3
228 185 135 94 60 50 63 28 77 111 150 170 159 149 130 58 40 41 55 56 62 61 63 57 52 45 28 22 18 16 16 8 33 67 46 15 3 7 6 2 -1 -6 -10 -8 -8 -1 5 4 -2
272 210 142 100 46 38 44 61 42 67 115 147 144 150 123 36 35 37 39 51 66 66 53 54 65 52 25 27 25 18 4 24 26 60 36 21 6 1 -1 -2 -7 -8 -6 -2 2 4 15 12 10
237 238 135 101 55 53 43 31 47 58 99 127 134 170 148 81 34 33 50 45 49 72 67 57 52 46 32 37 40 35 31 51 41 47 33 26 16 8 6 -3 -8 -7 -5 -0 -5 13 12 11 17
250 210 117 97 57 42 11 42 54 36 93 90 105 168 136 94 39 54 60 62 61 62 61 53 46 41 42 32 48 47 51 43 45 26 28 39 42 27 12 9 -1 -2 -2 -10 20 18 24 22 28
281 227 147 96 98 62 28 80 90 93 106 103 95 135 125 77 73 74 72 75 65 58 46 54 54 46 50 46 41 47 56 55 50 45 36 51 33 34 35 21 17 21 16 33 27 30 40 47 43
262 200 136 128 106 71 89 72 92 131 151 129 112 133 111 76 89 97 83 54 60 49 34 31 43 47 58 57 52 49 52 55 59 58 57 49 51 48 50 48 50 46 57 53 50 58 49 34 28
237 172 177 147 105 95 69 113 105 124 138 98 119 141 127 138 124 97 62 44 47 38 31 33 31 35 49 56 65 66 79 82 76 76 71 62 54 56 64 72 66 70 76 77 76 60 51 47 37
227 195 157 151 117 125 107 96 108 96 97 82 95 158 139 127 131 122 92 65 45 53 49 43 34 40 52 61 74 77 95 86 86 82 79 89 82 70 75 86 89 90 89 93 82 74 74 70 60
222 146 169 142 135 101 80 80 79 85 82 87 90 102 143 139 118 109 102 95 72 54 57 68 67 62 74 79 77 80 79 81 73 84 88 92 94 91 97 102 106 100 103 100 99 93 89 81 71
112 148 124 106 93 80 26 39 68 77 63 61 60 82 109 130 126 124 117 103 88 77 66 85 82 104 109 107 101 81 78 74 83 88 92 88 95 101 109 117 116 109 104 109 105 103 100 98 82
113 131 120 72 78 64 -4 8 31 57 66 61 65 68 114 125 133 107 121 120 99 76 89 116 110 111 110 136 130 128 106 96 90 94 90 95 99 106 114 121 129 119 124 124 135 135 126 117 104
179 145 123 85 60 59 46 11 -6 87 56 67 72 61 75 84 91 99 110 116 128 131 107 83 115 122 141 137 153 150 136 132 120 118 108 100 95 104 121 130 130 137 151 144 148 152 145 123 111
190 115 136 155 55 86 96 22 -0 83 74 76 84 85 59 60 89 97 100 98 107 116 118 112 103 108 126 142 161 164 163 150 148 151 131 108 113 111 129 138 131 153 164 154 167 175 147 126 125
207 185 136 112 89 99 75 54 63 73 38 36 50 56 57 59 62 97 108 117 106 126 139 140 161 127 145 156 165 177 167 140 166 161 147 143 145 131 147 146 135 174 180 175 175 163 173 150 149
118 134 122 108 113 78 47 24 29 44 40 44 55 66 72 77 70 75 118 141 147 133 147 152 172 179 203 234 229 208 187 179 176 174 148 160 162 156 159 167 147 185 203 174 161 208 193 200 176
145 140 134 137 108 58 57 30 51 47 54 52 57 64 60 64 79 95 105 125 150 156 172 179 162 175 221 244 249 267 220 201 169 193 182 169 196 212 205 200 189 202 212 190 205 249 250 218 172
179 138 129 116 111 50 22 7 42 63 78 120 153 113 121 125 161 178 188 198 195 172 152 147 156 155 155 180 243 309 292 275 241 234 205 215 237 266 253 254 255 251 226 228 233 230 241 262 189
145 109 113 103 98 97 86 49 79 90 130 162 197 213 219 255 225 207 237 275 278 257 179 127 139 144 164 148 183 214 255 271 299 288 225 251 264 289 276 274 293 286 275 202 222 228 226 294 288
137 94 135 132 114 99 92 33 88 127 157 194 155 185 225 220 224 185 174 166 179 176 163 131 117 182 194 183 155 187 186 191 205 243 228 229 254 275 302 302 333 341 342 236 266 311 255 264 298
45 146 141 123 123 122 99 71 107 115 140 153 110 135 223 179 135 101 82 88 132 135 139 137 124 121 187 183 159 147 144 155 199 215 204 223 278 314 320 295 335 361 350 332 365 313 289 317 311
139 113 194 187 167 102 87 78 67 73 83 92 87 108 172 61 35 30 43 67 84 109 140 150 163 155 153 183 170 158 133 132 146 176 214 205 219 291 319 338 354 376 336 365 388 378 332 323 346
85 75 85 128 126 98 69 74 87 33 72 68 37 73 50 39 12 14 10 4 -9 31 98 155 170 191 180 164 166 178 169 168 148 146 211 245 240 225 197 271 335 335 344 355 388 399 357 347 362
75 80 76 67 79 91 86 81 48 55 64 88 56 80 54 18 -8 -25 -2 -5 -19 -1 48 81 139 154 149 165 160 143 151 153 153 126 141 177 172 182 186 225 262 296 330 340 384 395 377 375 394
89 88 96 99 88 109 98 86 73 38 50 14 17 22 -4 -27 -26 -16 -2 -13 10 33 45 84 105 150 181 196 219 225 194 180 163 153 127 121 132 146 157 152 182 234 280 320 339 403 426 393 423
96 92 108 88 78 96 142 90 30 35 49 -6 -4 10 -25 -47 -35 -20 -11 3 33 70 102 118 117 130 195 256 240 263 253 236 214 188 154 114 125 136 136 127 154 184 240 280 318 342 390 529 459
61 56 68 43 43 60 58 61 48 39 -11 -34 23 6 -33 -37 -12 -6 1 33 49 73 86 91 95 104 126 161 221 219 223 188 156 164 142 97 97 131 145 142 146 145 184 254 288 338 404 549 547

GFSSGP_con_3kmhel_036.txt.gz
Helicity
52 60 52 40 55 73 85 71 75 61 82 83 99 127 147 179 121 85 42 57 61 74 57 36 29 18 -3 -21 -17 31 25 48 63 72 63 53 35 30 24 12 6 14 29 0 42 47 26 17 15
73 67 67 64 85 78 75 65 76 85 131 114 81 89 106 126 95 99 44 48 46 67 53 31 28 9 -6 5 2 34 35 50 59 57 62 37 20 17 16 11 20 39 54 72 64 38 20 20 19
88 96 76 78 82 85 91 68 84 92 119 136 111 78 120 127 80 67 36 32 56 51 36 45 37 -5 1 -2 9 11 25 56 63 61 40 23 12 10 10 14 36 40 35 33 19 11 8 13 12
118 128 122 75 50 57 63 92 93 111 109 123 137 131 74 74 82 50 31 18 33 44 46 77 43 16 26 9 8 3 19 46 58 52 34 10 1 0 -2 -2 -5 4 -1 1 -9 -5 1 -1 0
165 153 91 66 49 48 65 73 110 131 159 152 153 147 122 81 53 29 11 17 31 44 57 56 51 41 14 1 17 -1 -3 34 47 53 35 15 2 0 -5 -8 -10 -13 -15 -12 -8 -4 1 1 -3
159 156 103 62 39 36 54 67 49 84 107 145 122 133 131 56 48 35 10 15 26 45 50 62 48 55 36 5 10 36 0 11 56 63 43 28 12 11 2 -8 -12 -9 -11 -9 -6 2 -2 -3 -4
155 130 69 52 41 29 47 41 55 91 100 119 119 123 131 83 60 33 8 18 26 45 47 59 42 52 44 13 14 13 7 11 55 51 46 45 41 23 13 3 -5 -9 0 -1 -1 11 6 1 2
199 125 62 53 39 40 29 55 55 66 76 84 112 123 114 135 64 48 40 32 10 31 37 41 36 41 35 32 28 23 36 52 72 56 53 69 58 39 27 14 7 2 13 9 29 23 17 22 24
283 139 84 47 30 32 17 52 46 68 53 74 109 150 152 82 60 58 57 45 25 24 26 38 48 48 40 41 44 35 45 49 64 63 55 60 36 40 49 47 39 25 18 47 46 49 47 43 39
192 118 59 65 39 43 4 30 39 68 68 72 97 118 98 86 78 69 71 66 43 30 30 34 44 49 52 54 49 27 35 29 28 40 60 37 39 45 48 65 54 53 67 65 64 60 50 11 26
166 97 122 102 74 76 19 43 76 75 71 88 96 140 129 90 89 89 79 70 56 30 34 33 34 39 46 53 53 50 43 46 42 36 49 48 61 66 51 69 64 61 56 57 58 55 39 42 40
179 148 174 95 86 88 50 74 78 68 101 84 123 168 133 102 86 90 87 98 80 52 44 35 42 45 36 45 47 46 51 55 62 51 47 60 63 65 72 69 67 69 64 64 60 64 67 63 56
167 129 137 101 69 86 101 86 87 80 79 85 108 114 118 126 122 104 109 110 87 68 47 37 37 39 42 40 52 53 54 69 60 63 65 60 69 70 65 74 85 77 81 77 77 77 77 75 75
115 172 78 87 79 71 67 77 99 62 81 65 65 81 93 107 123 118 109 91 84 78 65 44 46 45 47 56 62 58 52 56 58 59 54 56 63 69 71 74 91 93 91 88 86 90 93 90 83
112 107 115 84 83 72 46 35 50 60 73 72 61 67 85 95 107 101 99 96 108 95 78 57 57 58 56 63 80 90 70 74 59 61 53 50 55 66 76 85 96 95 103 99 108 113 112 116 107
98 126 118 66 58 79 66 66 30 44 88 76 65 71 61 64 79 88 94 112 120 101 97 82 78 77 81 79 92 98 130 81 72 61 67 58 59 66 86 92 107 100 118 118 122 132 126 121 120
90 70 86 69 67 63 22 52 71 82 68 99 77 78 62 67 78 69 80 75 90 105 104 96 85 81 75 73 105 118 107 127 75 85 91 73 75 75 89 101 104 109 130 140 142 142 134 136 132
83 89 99 84 94 96 57 31 33 28 69 72 74 70 67 53 73 115 125 126 111 116 125 134 118 101 88 82 111 149 152 121 127 95 104 98 108 95 103 108 109 120 143 161 168 153 157 153 140
72 45 76 90 82 91 47 32 33 46 38 38 46 70 80 81 107 126 128 141 138 145 143 148 172 153 139 151 170 164 176 175 167 156 112 102 105 107 119 125 125 136 157 162 156 160 181 191 167
48 61 88 108 83 96 61 50 41 35 40 53 64 67 72 86 81 93 130 142 144 152 174 167 163 178 192 200 206 191 175 183 152 140 136 115 110 110 141 148 172 152 179 180 182 224 232 206 203
117 87 110 122 91 71 61 25 46 79 96 106 109 99 109 130 145 164 181 193 210 220 205 174 160 150 169 185 209 251 260 245 199 183 154 149 127 142 146 170 224 195 207 249 257 235 223 240 207
119 140 121 111 108 109 114 115 75 78 109 113 123 157 176 197 214 224 226 220 213 226 235 221 187 149 138 146 182 160 219 232 224 192 162 175 166 154 171 171 200 231 263 276 277 280 209 247 273
131 100 113 112 115 124 85 101 89 69 110 119 150 195 194 189 209 224 217 210 181 155 147 147 149 142 120 161 193 186 151 140 138 128 122 120 152 159 173 194 210 249 291 255 289 268 228 251 276
62 129 154 134 136 114 116 126 77 89 115 116 133 205 198 153 136 129 135 144 135 119 118 123 133 132 120 101 145 178 163 138 134 141 153 119 122 146 131 175 236 269 284 303 311 286 285 261 301
158 119 188 172 160 155 136 127 152 107 130 128 114 166 166 112 88 82 76 72 78 94 99 118 137 156 163 158 162 161 161 145 140 145 156 144 177 200 178 157 158 228 253 265 295 340 372 366 327
128 147 222 194 165 143 128 124 130 111 110 121 87 123 92 54 36 34 32 25 34 51 88 146 192 196 196 203 206 196 180 168 154 154 172 164 168 174 152 163 154 168 167 191 205 283 309 331 330
162 112 117 147 146 172 115 101 96 80 98 86 67 83 58 48 29 21 31 43 43 66 95 122 183 251 254 244 215 201 188 174 162 146 130 141 126 136 105 105 134 146 164 168 192 264 253 270 303
78 72 92 94 97 130 97 106 103 85 102 59 58 74 53 27 23 26 19 22 36 63 82 100 121 150 186 219 234 238 216 195 192 172 173 138 132 141 129 109 113 148 189 208 216 225 218 245 320
82 85 102 104 100 107 125 105 97 46 58 43 53 36 18 12 15 29 26 23 48 64 86 103 108 110 115 126 163 202 226 224 219 219 178 172 162 165 145 116 105 116 139 184 226 227 254 242 275
77 79 79 94 64 66 126 124 63 70 56 12 34 28 26 18 14 15 27 33 57 61 74 81 71 71 81 90 103 124 154 187 191 193 186 160 146 129 117 109 89 83 100 122 163 203 239 251 263

GFSSGP_con_3kmhel_039.txt.gz
Helicity
69 55 45 37 74 73 101 83 94 61 60 98 132 100 140 116 84 84 37 81 72 82 79 48 36 2 8 -6 -23 -2 3 44 58 67 54 60 29 16 9 6 6 -6 -0 29 58 33 16 14 18
79 65 53 67 102 101 83 45 42 65 134 82 77 54 120 100 82 36 7 50 63 93 60 53 45 39 14 -10 -1 2 15 46 63 58 59 45 24 15 11 16 37 47 67 76 49 28 18 18 19
72 77 88 81 78 118 112 46 53 77 62 108 76 87 119 112 112 97 66 41 59 94 52 87 56 31 16 13 12 -7 10 36 50 48 40 25 17 14 17 32 58 52 49 43 34 22 14 18 13
87 91 99 115 86 69 62 57 58 54 75 89 127 79 74 99 108 69 31 29 44 71 62 94 68 47 39 18 6 -15 -3 33 47 47 29 23 20 18 20 30 33 29 26 23 15 7 11 11 5
129 114 95 54 71 72 42 65 53 80 104 116 124 64 71 87 50 30 20 15 44 68 100 63 60 65 60 57 14 9 2 15 39 39 28 16 16 15 11 6 8 5 4 6 7 10 10 6 3
145 110 112 67 41 53 41 69 55 81 87 119 109 86 84 50 54 41 9 10 29 56 73 87 79 74 61 61 31 24 2 8 33 41 36 29 20 10 7 3 -0 -1 -0 5 7 11 5 1 -0
123 99 83 88 58 52 52 43 68 84 66 82 120 117 71 80 84 58 24 25 23 41 47 64 62 77 79 40 38 21 22 11 39 41 34 37 34 22 13 7 7 6 7 5 14 9 6 5 4
106 91 75 85 66 52 43 61 87 76 82 72 117 121 59 103 88 88 76 55 29 36 37 54 40 47 49 48 37 22 11 34 46 49 58 37 48 35 27 21 13 11 16 15 27 22 21 23 22
172 147 108 80 46 46 54 78 55 103 104 60 63 158 134 93 77 88 92 76 42 40 27 37 40 55 51 48 58 47 47 50 62 62 68 64 19 32 57 44 55 32 38 41 41 37 39 37 33
188 129 62 40 45 54 50 50 61 68 68 64 65 73 105 89 86 86 77 67 51 34 27 39 49 59 66 68 75 35 46 40 38 45 58 21 20 40 38 86 78 60 63 69 58 49 39 12 30
126 99 77 61 114 133 76 16 85 57 72 63 53 78 94 89 72 81 71 54 52 49 45 35 42 52 60 70 68 48 48 36 36 31 38 25 36 77 71 71 70 72 74 60 60 53 34 30 41
153 64 134 66 78 132 95 44 43 59 91 105 150 174 124 89 84 69 64 61 75 71 64 50 55 59 54 55 52 53 51 49 51 49 49 37 66 76 56 61 62 57 86 56 63 60 59 62 54
98 133 157 249 58 71 63 57 65 46 93 129 112 101 119 127 125 81 72 66 79 85 79 68 59 53 64 53 61 53 55 63 48 55 66 71 77 108 67 62 97 76 79 68 79 74 87 74 73
79 175 158 159 46 71 82 52 69 86 99 62 70 85 91 97 111 133 98 86 103 111 106 78 72 58 44 63 39 55 62 67 55 67 86 69 87 89 66 95 131 98 72 92 87 90 99 95 101
197 157 129 95 55 25 59 79 51 83 73 62 71 59 53 81 88 84 93 96 108 89 76 78 77 66 53 61 60 55 72 70 73 68 71 73 86 80 74 71 158 133 98 86 96 109 129 134 125
131 143 95 110 68 68 35 65 -0 12 49 56 61 65 59 47 59 70 73 98 119 139 141 108 108 83 75 71 87 93 76 86 73 80 75 71 66 72 91 105 166 155 132 105 123 129 150 154 148
123 93 71 87 59 57 23 62 62 -3 60 82 73 72 65 53 61 73 85 96 100 89 96 104 117 103 81 77 102 127 108 87 83 93 87 75 68 70 96 127 156 177 148 139 166 153 151 160 173
90 97 49 78 90 87 34 52 115 102 81 72 69 64 69 71 54 69 86 133 146 135 134 141 126 89 105 108 101 179 156 132 120 100 110 96 110 91 118 123 119 152 163 181 194 173 181 188 197
116 49 119 99 63 89 82 54 42 20 35 41 48 56 64 72 84 119 131 132 134 128 132 127 128 138 128 140 147 188 179 161 164 153 118 128 111 111 140 155 131 147 177 200 175 170 209 243 248
220 94 118 116 79 74 73 39 75 44 18 30 47 60 82 102 112 107 109 107 129 129 132 126 123 126 157 179 202 216 175 157 181 176 158 156 191 155 177 176 180 183 196 198 207 207 259 287 301
144 87 83 123 69 74 116 49 25 33 83 113 92 66 78 86 96 92 104 121 137 149 175 167 163 170 182 177 206 228 258 221 185 212 216 185 156 194 165 179 199 216 230 243 248 260 272 319 305
104 153 138 121 57 86 22 76 25 46 79 72 73 93 113 129 148 131 147 163 177 175 169 171 159 155 149 143 166 187 215 242 249 203 159 136 138 140 166 184 204 229 270 279 288 317 340 345 354
136 74 95 112 135 177 60 137 84 49 61 70 90 116 126 145 159 159 162 166 164 164 162 151 142 134 131 114 119 155 179 209 198 165 128 141 135 103 107 150 186 235 269 265 285 317 394 389 377
75 99 96 103 116 101 81 100 58 49 45 72 108 123 140 139 137 136 131 135 130 122 115 116 119 117 111 107 95 94 114 175 193 194 162 155 148 163 128 132 175 222 248 288 308 312 350 380 355
88 76 145 118 119 137 130 120 190 113 117 71 85 145 148 122 104 104 101 93 81 83 84 89 111 126 136 145 142 128 115 132 190 197 193 165 164 162 179 152 151 184 192 202 233 278 345 355 366
78 66 210 138 112 95 123 124 153 97 136 191 144 139 115 88 75 64 54 42 37 40 64 82 110 143 189 217 226 216 202 183 176 177 191 211 208 178 149 140 166 180 185 185 201 238 283 314 338
153 129 180 219 173 129 103 127 72 128 116 149 104 102 83 57 43 40 38 37 35 49 76 103 127 161 184 199 224 253 253 241 225 207 198 191 173 191 190 199 146 138 139 165 207 240 256 332 322
165 155 160 158 158 137 87 118 122 77 117 119 106 94 55 41 30 30 26 30 34 56 81 87 102 124 141 142 147 162 186 200 200 196 185 213 214 142 181 186 192 172 141 146 194 234 267 288 279
145 175 131 162 156 191 146 121 142 72 104 99 82 50 44 40 34 32 31 41 54 63 67 64 83 91 98 99 94 98 120 143 158 180 204 204 183 182 207 213 205 203 163 168 185 217 254 256 274
114 69 47 107 68 89 115 115 60 76 122 86 66 43 44 40 33 24 31 42 58 67 65 65 69 68 75 86 92 103 128 154 164 152 132 122 135 162 173 191 203 191 179 146 122 138 186 206 281

GFSSGP_con_3kmhel_042.txt.gz
Helicity
77 77 85 109 121 98 134 136 102 89 136 94 153 207 186 113 83 105 40 90 106 70 85 47 35 26 11 -5 -20 -11 -9 32 36 61 44 40 29 18 13 6 -7 5 20 60 36 23 20 19 22
70 97 70 105 145 162 130 42 78 71 114 135 140 116 145 115 11 35 35 57 79 91 66 56 29 40 18 10 8 -8 13 24 40 34 45 31 18 13 17 38 53 56 66 46 31 21 21 21 21
57 77 113 123 111 169 142 17 57 121 81 44 34 85 81 136 164 60 66 21 120 81 56 91 83 71 31 -1 15 -2 5 31 41 28 26 17 15 16 27 49 53 59 58 43 31 22 19 18 16
56 65 80 157 142 81 107 51 81 99 47 98 130 87 124 135 99 83 14 60 112 43 191 112 86 62 48 36 23 -3 13 20 37 36 21 14 10 12 36 34 31 32 34 26 21 19 16 13 8
57 155 155 168 146 113 58 105 125 44 66 53 92 52 87 111 56 36 6 52 81 188 142 126 105 94 65 56 31 21 11 13 37 29 24 19 17 10 5 9 10 14 14 17 20 19 15 9 6
205 219 328 187 129 101 61 42 78 117 54 95 84 86 88 38 71 37 9 13 56 100 69 97 117 110 109 104 62 42 33 20 29 21 21 26 19 15 9 5 7 9 10 11 15 10 8 3 2
218 175 161 206 151 47 77 69 101 98 96 66 106 162 65 156 111 51 35 55 59 90 86 76 84 88 112 106 91 82 40 29 41 49 33 34 31 22 18 16 16 18 18 17 17 11 8 6 5
211 288 118 87 142 101 39 61 71 46 95 56 127 213 142 107 114 136 115 64 73 69 84 54 64 66 72 59 62 65 63 33 48 54 72 56 40 31 36 25 19 26 29 35 29 23 21 19 16
201 169 67 79 159 119 56 96 106 134 109 78 57 77 109 82 120 132 145 124 69 54 82 40 45 42 58 73 66 64 56 53 52 67 66 41 29 31 52 28 48 25 48 49 48 40 37 35 29
193 180 75 41 34 82 51 102 101 91 104 151 100 58 77 67 80 94 98 75 55 59 50 32 21 41 53 66 95 61 71 65 72 72 61 38 11 32 40 84 77 68 58 72 64 53 43 31 31
215 132 48 -8 36 108 84 119 127 99 105 82 75 26 35 80 90 80 73 66 114 110 112 79 97 89 74 111 77 49 76 52 74 61 70 26 10 85 127 97 78 83 84 78 82 66 45 31 42
233 52 129 103 28 51 206 93 39 96 91 158 174 255 109 64 66 73 78 66 71 77 78 111 135 112 98 87 85 42 79 56 55 48 87 48 23 130 100 102 85 87 82 61 77 75 50 55 83
130 179 66 127 59 112 113 188 133 81 77 125 174 211 165 125 97 52 72 62 89 106 75 63 92 114 101 104 91 73 85 101 66 65 56 110 48 141 134 91 102 73 111 73 90 81 78 104 82
92 193 305 170 114 127 163 134 122 76 82 69 82 106 92 102 99 136 80 78 103 84 115 107 75 64 76 103 91 88 101 117 96 81 83 81 85 162 152 112 157 146 108 76 130 117 129 112 112
164 169 223 238 111 69 118 122 106 80 127 83 55 61 74 77 85 81 106 94 85 77 128 132 102 74 56 109 66 61 82 98 121 94 102 109 87 146 152 114 163 189 131 118 155 145 152 164 164
187 168 182 167 110 97 25 85 43 71 89 102 77 72 76 60 49 77 94 91 101 136 149 119 97 82 100 85 136 94 68 120 121 125 121 139 118 120 146 152 184 214 190 125 166 199 213 203 197
161 126 155 112 105 140 88 29 41 84 76 74 67 60 70 65 68 54 72 105 97 116 149 177 174 151 97 88 133 145 133 96 101 120 163 155 145 136 131 143 192 225 236 176 129 222 276 247 216
107 90 80 107 121 117 111 64 148 115 106 66 104 127 108 83 74 63 47 149 216 219 140 129 143 137 158 143 138 193 225 178 125 88 167 200 201 197 187 166 176 259 254 206 156 250 286 248 207
79 65 127 63 95 101 79 77 68 106 88 73 84 83 80 87 83 117 204 203 232 248 247 245 256 238 219 166 205 282 244 210 198 161 82 145 175 229 219 224 194 274 270 235 182 273 276 242 255
104 144 78 133 123 102 115 71 82 76 90 66 59 72 75 88 113 170 188 153 161 162 201 198 176 175 173 180 179 187 228 238 225 189 146 113 130 232 284 244 278 248 271 300 290 353 372 304 325
164 179 119 182 162 112 146 74 72 94 85 68 105 113 135 149 161 168 131 87 131 138 166 171 168 173 182 214 218 211 220 293 298 244 195 154 140 166 262 254 303 299 284 299 360 378 386 370 351
160 138 162 168 139 106 101 88 52 63 89 127 105 62 63 158 240 277 239 164 90 93 137 150 158 147 142 141 155 178 181 196 259 235 168 145 117 105 127 194 267 268 266 299 333 404 435 471 392
159 161 217 182 143 189 121 113 75 178 115 94 89 137 169 183 230 182 134 118 118 114 118 129 133 128 117 121 122 123 130 139 149 187 215 215 163 147 144 93 152 224 240 259 285 382 433 481 476
156 241 164 123 123 120 115 86 78 108 96 101 142 109 107 97 111 102 99 123 128 118 120 110 111 119 128 112 99 99 104 102 110 135 158 183 172 188 216 176 109 151 215 254 273 278 343 415 484
137 160 170 163 150 116 168 117 56 87 77 125 116 109 115 108 93 130 139 127 105 87 83 88 105 112 130 147 155 167 172 147 129 111 132 185 154 180 195 199 187 161 142 173 221 279 322 357 417
158 125 169 144 106 103 157 131 162 207 134 91 62 175 122 86 109 108 102 83 79 62 58 66 83 100 142 150 165 189 206 201 194 192 197 177 191 196 204 158 185 191 154 144 199 228 275 314 348
188 153 120 181 147 141 111 122 154 191 266 272 183 121 96 114 102 81 77 60 53 56 70 88 105 124 136 145 150 177 185 199 178 170 173 178 202 252 222 226 213 197 186 157 149 185 214 256 278
224 220 142 176 165 117 78 66 101 138 156 172 162 117 101 88 56 79 75 65 57 83 91 101 104 103 113 122 139 142 158 155 160 179 192 195 192 213 209 200 206 220 205 167 161 189 198 216 266
149 159 134 181 172 168 109 100 111 103 114 129 119 111 106 93 87 81 67 63 73 101 104 104 94 88 94 96 109 124 125 130 124 118 132 157 172 187 214 220 204 208 205 205 213 217 218 223 227
124 103 147 117 139 162 140 135 61 97 122 140 123 83 70 73 67 53 37 37 83 87 88 101 99 91 80 100 121 132 134 172 183 148 167 148 133 130 133 149 156 156 184 190 172 159 159 168 167

GFSSGP_con_3kmhel_045.txt.gz
Helicity
72 85 75 109 146 128 135 180 105 116 195 150 103 105 133 164 119 88 44 22 83 74 58 53 37 38 25 24 18 9 21 33 43 43 25 20 23 8 1 -8 9 25 57 34 21 24 20 18 19
63 83 60 108 178 180 164 149 143 63 69 122 150 108 166 216 93 45 64 42 75 90 63 42 52 56 44 24 15 -6 -8 25 36 28 23 15 11 8 18 36 36 63 53 37 26 24 19 17 17
48 46 101 121 151 150 165 102 102 98 83 108 141 113 152 180 49 3 59 100 58 88 72 45 61 66 56 37 20 6 -1 19 55 32 21 14 12 21 43 55 80 65 47 30 28 20 13 11 6
36 95 112 184 203 86 110 236 68 116 123 98 86 157 152 137 68 20 112 115 47 94 111 90 90 71 60 42 20 -3 22 12 30 25 19 18 15 24 36 35 39 43 31 25 24 17 9 4 -2
37 138 195 200 171 58 10 32 36 74 43 85 97 130 150 130 47 52 114 101 126 109 115 119 88 73 72 54 26 37 33 24 22 20 20 15 19 25 17 14 17 22 22 22 21 14 7 1 -7
244 111 346 201 156 44 86 55 82 81 78 109 94 135 122 70 72 39 98 165 147 138 135 108 94 104 84 72 55 55 47 33 32 -7 14 20 18 13 15 15 11 14 16 19 16 11 6 0 -5
246 175 208 284 236 77 78 33 84 106 125 88 60 162 117 132 78 37 76 108 126 107 103 104 109 121 116 115 77 71 47 54 37 30 20 27 26 25 26 22 23 24 23 22 13 10 8 6 2
372 235 95 186 205 195 85 41 58 81 122 87 62 130 111 90 124 142 159 98 93 56 60 87 119 104 107 106 108 104 71 51 56 54 42 42 36 32 35 28 30 34 31 34 21 16 16 16 12
313 199 97 73 161 85 156 219 149 88 150 165 84 73 83 89 111 164 177 138 81 54 38 45 73 71 73 82 70 78 72 61 74 79 76 49 26 25 33 34 43 43 50 49 41 37 35 34 25
276 293 100 35 55 137 189 205 132 146 123 147 126 109 89 95 98 127 122 128 84 67 31 31 22 18 46 62 83 80 70 77 97 89 81 56 49 30 24 24 48 59 66 68 61 58 52 52 39
243 112 138 50 32 -43 -20 97 99 99 140 119 62 42 55 68 88 75 92 101 88 88 69 40 42 3 45 68 66 78 82 87 100 95 72 55 57 47 56 69 59 68 70 70 71 62 57 58 62
198 104 29 78 60 62 49 177 229 104 97 105 61 74 51 54 50 65 55 52 85 106 137 127 84 36 93 115 83 69 85 78 90 81 59 54 71 94 95 100 91 103 94 81 74 67 54 55 61
166 137 87 107 93 60 57 73 119 157 86 94 187 185 78 51 43 41 42 56 80 84 109 124 153 129 105 133 85 78 77 76 59 81 66 58 81 126 134 90 100 96 110 104 80 67 69 73 73
129 143 205 203 75 47 35 79 195 57 137 103 103 115 144 124 78 71 76 72 111 84 74 78 118 122 138 118 110 90 95 77 74 71 95 89 73 124 134 128 119 105 91 97 97 98 85 94 109
243 146 145 175 211 94 108 112 38 59 97 117 81 54 57 76 105 84 41 52 85 92 101 62 57 103 132 144 114 109 124 111 107 97 85 104 105 113 138 162 165 137 119 89 98 85 119 143 141
201 184 201 80 182 103 81 80 49 72 97 87 90 79 67 71 52 56 60 67 50 93 134 128 103 86 88 141 106 101 84 113 118 103 123 108 117 148 155 169 166 179 172 179 172 159 159 177 183
210 169 191 173 135 157 115 45 66 83 92 86 92 85 70 71 93 66 59 73 118 111 101 109 124 110 71 82 120 99 103 103 120 132 126 127 144 148 180 188 165 182 180 184 194 190 222 229 229
224 148 155 179 180 158 109 91 116 138 90 79 81 70 71 68 73 56 85 148 178 233 262 242 170 126 119 98 93 107 114 113 125 148 156 174 146 202 192 186 223 233 232 202 226 226 242 259 260
204 168 142 107 119 135 85 77 93 132 122 104 85 71 91 120 136 145 200 225 218 269 278 270 245 268 236 221 204 186 164 147 138 128 119 164 178 188 210 242 232 278 280 250 234 243 237 251 335
145 129 83 138 92 130 118 93 61 96 106 89 75 65 72 114 122 175 203 226 227 198 212 214 208 201 214 222 239 233 216 214 199 168 147 138 179 188 241 226 289 319 320 304 291 312 331 306 386
121 155 179 150 217 222 164 111 87 74 93 114 129 110 119 103 121 166 205 204 185 177 143 148 167 161 134 143 170 212 241 244 230 232 196 155 140 145 170 204 253 273 340 336 333 335 362 342 419
131 139 177 192 222 144 111 53 84 60 75 113 165 159 122 124 162 182 168 143 68 64 129 159 181 195 182 145 113 107 127 149 159 156 166 156 138 119 114 137 174 230 254 304 343 366 377 472 442
129 125 190 237 206 155 118 95 37 97 135 182 180 144 121 149 177 215 180 142 98 114 134 149 164 180 177 166 157 146 129 100 99 130 143 115 139 133 111 99 128 174 234 228 259 350 318 397 437
202 315 301 236 169 119 94 92 61 111 112 178 181 144 163 194 183 150 153 182 137 119 129 137 141 140 157 144 153 158 152 143 133 118 119 117 109 123 116 148 166 162 159 179 209 198 255 295 368
263 280 268 217 177 90 124 122 73 121 96 201 184 162 120 115 124 149 145 150 135 113 104 101 116 131 153 159 158 155 152 143 142 140 142 156 163 182 219 165 140 144 128 122 152 199 215 256 307
178 231 237 198 202 127 175 87 90 85 111 163 154 111 95 90 113 121 116 116 113 105 102 105 116 132 149 145 145 158 173 161 160 157 164 181 183 189 232 256 213 147 114 119 133 161 162 219 242
195 197 171 163 158 128 130 143 124 163 181 170 147 132 78 101 105 107 115 100 96 102 108 102 107 121 127 132 140 163 179 194 182 181 167 149 159 175 186 188 223 244 178 135 127 155 164 182 224
233 220 192 195 145 147 118 105 78 128 171 182 176 151 112 104 115 108 101 86 101 116 120 137 115 106 101 107 123 141 177 189 160 134 128 120 127 147 161 161 173 204 222 220 233 240 238 210 210
286 248 164 107 121 143 119 90 65 62 177 238 191 135 102 107 116 102 91 90 98 105 106 118 130 105 97 103 121 140 161 179 143 99 115 110 129 135 163 174 178 182 184 178 177 188 201 202 204
165 138 126 159 147 110 116 109 90 84 152 167 158 129 106 106 83 68 59 91 101 87 91 116 124 104 101 102 110 117 128 143 127 108 125 159 151 144 149 160 169 163 158 149 140 158 156 142 143

GFSSGP_con_3kmhel_048.txt.gz
Helicity
105 81 53 88 171 165 156 158 162 166 168 89 64 42 48 216 140 101 67 56 72 59 32 22 34 24 14 16 24 29 53 61 65 57 34 24 18 9 8 9 7 45 28 21 22 17 11 13 34
107 64 83 97 182 178 165 182 223 145 87 74 50 78 131 174 150 80 88 65 81 78 49 30 41 28 27 21 15 16 22 55 49 28 14 15 6 4 19 22 52 53 32 26 21 11 7 8 16
95 70 108 139 147 146 187 162 154 114 92 110 112 145 109 134 168 70 28 54 73 85 80 46 52 47 29 22 20 11 26 26 28 20 17 11 14 20 47 48 62 45 32 26 17 7 2 -3 0
111 119 146 169 185 96 175 272 153 121 110 122 119 165 158 114 88 46 40 72 99 99 83 66 60 57 43 30 36 36 40 3 -21 6 10 12 28 43 49 65 53 31 21 21 13 4 -3 -9 -8
156 81 201 193 140 32 80 208 94 87 84 113 129 190 225 184 118 95 84 67 90 104 81 60 75 69 50 42 36 58 42 33 -9 -24 -4 12 32 45 41 40 33 25 22 18 13 3 -6 -12 -16
241 144 214 184 101 -16 20 87 79 57 88 100 131 172 205 168 151 58 110 54 80 96 107 95 89 58 48 62 45 63 63 57 31 -6 -27 -6 21 23 28 31 33 28 26 21 15 6 -3 -10 -9
253 234 102 167 171 15 63 80 126 69 90 140 69 155 139 148 204 106 125 110 92 96 100 104 85 66 74 76 71 67 70 78 61 30 13 -3 -9 3 10 18 26 28 28 24 17 9 2 -5 -9
413 229 116 97 162 114 136 72 44 85 140 126 105 116 121 98 129 132 153 122 112 104 99 86 105 125 96 80 73 76 80 78 60 55 48 40 20 7 16 11 11 21 25 24 22 17 10 4 2
403 253 124 101 169 220 152 155 158 162 136 169 158 113 114 128 115 156 167 134 111 65 51 66 96 112 102 93 95 91 83 81 65 65 62 46 26 28 27 18 23 22 21 27 24 23 20 18 13
380 214 118 161 130 125 217 164 224 198 213 200 195 208 159 149 143 147 127 100 65 36 9 53 84 82 86 77 81 73 77 88 92 87 68 64 51 33 36 34 32 24 26 30 23 28 32 39 30
244 133 133 102 72 110 55 117 187 227 199 102 81 94 89 121 128 120 118 88 32 8 29 18 29 37 55 61 69 62 70 93 104 94 75 64 65 55 55 47 40 49 53 53 46 39 39 45 52
208 157 130 164 117 107 -69 186 197 213 231 88 58 65 94 49 79 73 96 122 99 61 40 10 -5 26 22 52 63 58 83 99 113 96 73 83 76 72 62 55 61 72 79 84 83 75 68 58 52
207 62 97 119 94 52 68 -98 131 188 285 118 152 144 100 83 55 59 71 86 98 88 84 80 56 57 38 49 68 71 75 90 87 99 75 92 84 83 84 68 78 79 100 98 93 86 83 80 74
140 180 174 135 63 57 96 48 113 153 228 38 106 143 113 68 48 58 61 63 80 75 79 99 110 108 120 79 80 85 86 75 94 80 63 64 91 100 108 98 87 81 103 101 99 97 93 83 99
131 171 195 101 73 75 34 25 69 96 212 98 80 93 104 78 60 45 24 50 62 71 76 97 109 133 166 127 103 111 97 98 96 79 84 78 94 120 134 141 132 112 114 115 105 96 110 102 104
160 188 167 150 126 131 34 19 5 -23 69 71 67 99 95 106 77 51 33 36 51 78 61 63 104 139 161 175 162 144 138 131 96 88 87 106 98 133 156 158 175 163 160 152 153 129 124 125 134
271 207 161 152 86 145 141 92 61 50 -10 10 44 68 80 88 83 66 56 69 72 69 87 98 108 108 111 119 139 142 130 147 127 122 113 83 114 149 168 171 185 217 205 203 199 177 194 191 175
199 181 132 174 136 156 122 99 130 83 53 36 70 74 85 87 83 95 105 139 169 171 160 140 113 109 115 132 124 112 117 98 122 141 138 132 125 133 158 182 189 230 237 219 240 218 238 235 230
206 257 244 204 129 146 68 55 53 69 123 86 65 89 90 79 104 126 185 229 241 250 269 280 240 219 164 167 152 132 103 101 105 134 131 164 169 168 192 187 183 230 237 232 237 251 237 236 265
133 156 149 150 118 99 94 55 81 61 56 98 85 85 71 94 109 158 200 226 235 231 220 224 232 234 220 201 187 199 182 141 117 106 123 147 152 162 194 202 216 245 228 245 250 286 285 285 332
170 139 161 154 163 166 105 75 71 62 99 90 93 100 84 89 107 145 172 180 187 201 196 193 196 188 179 191 219 231 224 214 204 171 130 108 125 137 163 173 194 196 223 254 300 301 317 245 327
157 147 159 151 193 144 140 85 80 76 79 97 29 84 100 129 157 167 167 176 166 156 153 166 183 199 212 200 191 183 179 183 185 184 172 145 125 125 137 145 163 172 208 232 263 285 287 316 290
132 96 139 188 226 187 171 106 -6 110 89 63 86 136 134 158 202 199 163 145 154 142 136 150 182 217 218 205 182 161 161 140 131 132 146 151 147 124 117 131 123 162 193 211 217 264 292 318 267
96 183 278 233 203 147 152 128 -54 72 72 92 153 184 184 184 189 186 191 158 151 153 165 181 194 197 186 173 169 158 150 147 145 143 141 140 117 123 149 126 124 131 158 189 177 185 225 245 264
134 232 231 202 198 92 113 141 68 67 59 72 138 208 227 215 196 199 187 172 163 168 176 164 160 163 159 146 139 136 135 125 123 127 132 148 145 149 189 180 136 124 133 133 147 153 164 196 206
151 187 196 136 148 142 177 115 98 28 28 75 173 232 221 184 167 143 146 155 156 146 142 129 124 127 124 117 118 122 133 126 131 133 134 143 155 165 190 208 212 195 167 129 109 112 128 141 155
133 152 196 166 159 130 109 153 110 65 65 140 163 190 153 153 154 136 140 142 139 136 124 101 103 107 109 105 108 125 141 152 144 149 135 120 128 136 145 156 171 190 202 180 149 144 150 130 118
161 199 218 256 139 106 77 94 82 77 99 150 196 160 138 119 131 139 136 128 132 116 107 113 102 94 96 108 121 123 146 154 152 127 130 123 117 120 123 127 131 152 175 191 193 179 184 188 167
204 209 234 242 224 145 69 24 22 38 97 169 174 131 127 109 119 129 122 108 99 105 109 106 108 106 110 114 115 129 152 157 152 132 99 100 101 116 130 135 140 152 165 169 167 172 176 175 179
177 199 230 238 225 208 92 20 24 43 94 167 175 153 119 103 113 104 105 102 93 92 81 76 88 101 110 107 108 120 133 139 138 121 123 109 112 129 138 129 128 144 152 150 140 127 138 155 169

GFSSGP_con_3kmhel_051.txt.gz
Helicity
104 122 100 146 173 167 144 136 116 158 87 40 55 66 62 117 153 118 82 39 56 35 1 -3 7 10 3 10 5 14 46 57 74 59 42 38 29 27 25 18 34 26 20 17 8 -0 5 26 46
96 95 131 157 175 177 157 114 129 151 151 85 110 134 121 124 108 98 112 53 66 48 17 13 22 17 31 24 13 3 32 71 66 50 37 28 21 19 27 29 49 28 20 15 5 -0 3 18 37
105 115 170 186 160 153 150 139 172 169 144 114 134 150 118 136 118 73 80 89 88 71 46 35 45 45 35 26 14 12 39 6 18 21 17 13 -1 43 42 59 53 27 19 14 4 -4 -4 7 15
168 162 185 186 172 138 175 257 238 206 101 112 104 138 154 161 80 50 65 86 117 109 66 58 56 48 36 23 16 39 32 -3 -28 -30 -0 14 36 48 55 67 42 16 14 8 -2 -7 -9 -6 4
231 171 211 171 174 118 137 195 200 251 153 109 122 102 158 170 88 81 76 74 122 112 83 75 77 57 44 29 51 52 36 14 -9 -36 -25 -0 24 34 50 53 20 9 7 3 -1 -8 -14 -16 -8
297 256 278 184 146 88 33 152 134 185 117 82 113 170 165 167 162 87 57 47 83 104 105 84 69 54 49 43 51 51 43 30 20 -2 -21 -23 -20 12 16 20 9 2 -1 -2 -5 -15 -24 -31 -23
184 276 231 213 139 15 10 76 136 190 177 106 61 195 169 187 141 105 88 87 84 104 90 82 64 49 47 45 45 56 61 46 36 31 24 -8 -23 -32 -7 7 1 -2 -1 -1 -7 -13 -18 -19 -17
235 189 55 134 145 -9 2 89 63 137 195 137 128 85 113 126 136 153 151 133 110 95 83 78 65 51 56 59 51 72 78 64 51 44 37 37 34 -4 -0 2 1 5 8 3 -3 -8 -12 -10 -3
342 230 101 94 116 1 65 76 139 216 161 124 154 104 109 126 161 179 175 161 137 106 82 79 78 83 85 67 51 77 91 75 66 52 56 52 21 13 34 33 29 29 35 26 13 4 1 7 16
294 252 105 155 92 37 71 43 131 189 361 197 106 165 192 143 135 129 99 71 63 48 43 59 80 93 103 108 104 98 93 86 83 78 58 58 52 46 43 30 29 27 32 48 36 30 31 38 33
228 176 133 80 91 96 -45 21 60 197 329 228 199 81 162 123 124 121 85 65 32 23 27 16 45 67 87 86 82 85 88 89 87 84 72 59 62 60 58 52 43 40 41 54 50 50 52 53 57
185 114 156 117 163 122 83 29 89 163 344 284 263 59 93 109 99 99 92 77 56 47 11 16 25 36 41 60 57 60 79 87 97 85 86 87 71 60 59 55 47 50 60 67 69 69 66 61 59
197 92 182 202 159 147 78 5 86 193 329 268 150 41 38 84 106 125 113 93 61 55 23 9 28 14 21 32 35 45 63 91 97 95 90 94 83 66 67 54 56 49 67 72 79 78 79 73 68
160 128 172 177 119 124 104 83 49 72 155 237 150 65 45 65 60 116 101 82 86 70 56 34 36 31 56 44 39 38 68 80 93 86 83 90 94 82 82 68 70 65 71 76 92 99 96 86 89
150 226 228 152 142 121 48 68 21 43 197 237 252 108 52 79 98 68 69 71 88 90 93 82 68 77 95 82 74 73 70 90 90 71 70 83 107 98 98 91 91 85 94 88 91 87 94 89 93
225 218 179 118 116 183 98 54 77 78 226 218 271 105 63 82 76 63 67 60 54 91 94 106 113 124 139 123 111 112 101 114 103 102 94 76 87 117 128 125 119 125 138 143 134 121 124 120 119
222 178 147 120 44 120 125 68 23 -33 114 200 292 181 74 74 86 81 66 41 45 35 51 84 116 150 150 151 146 145 132 135 119 123 119 98 98 116 136 151 155 179 176 182 174 158 179 160 156
179 212 139 186 120 121 82 145 67 -41 62 24 170 129 88 61 55 89 68 78 87 71 64 62 93 106 119 147 158 162 147 133 127 125 126 125 134 136 154 151 154 189 192 188 219 196 218 212 192
231 205 176 180 150 113 89 94 98 57 98 64 111 13 24 47 72 105 130 173 205 205 177 151 136 145 136 151 140 131 117 135 140 125 112 126 148 143 177 177 182 221 213 196 214 242 224 206 244
185 174 186 171 134 100 97 82 52 34 35 53 66 50 43 100 110 111 130 173 214 211 203 207 204 206 189 169 155 149 139 132 133 124 114 121 124 136 151 154 164 202 222 221 237 270 258 259 274
203 145 171 132 160 138 81 80 64 24 14 11 30 37 63 104 112 131 142 160 199 206 203 203 204 211 209 200 186 189 197 199 170 144 123 114 110 122 140 149 169 164 201 210 215 244 257 212 260
160 117 129 150 183 120 114 25 52 38 14 48 -2 48 62 122 155 163 148 164 171 191 192 184 191 200 214 209 207 207 192 178 172 173 168 152 146 133 139 141 157 176 212 220 203 206 209 233 209
139 97 111 126 159 124 128 87 8 82 72 35 58 27 58 121 167 149 153 167 182 187 195 203 205 213 199 211 202 193 200 197 182 168 170 176 172 175 173 147 134 144 178 170 179 205 199 222 180
120 165 204 184 140 83 83 90 -68 71 63 75 98 69 103 167 192 210 217 231 226 220 208 202 199 209 212 201 192 165 152 151 152 142 134 137 144 160 182 174 143 122 140 148 154 168 175 177 174
158 173 202 164 142 67 105 112 26 74 74 67 73 85 108 178 265 291 242 213 207 197 184 169 168 181 185 176 162 139 114 101 103 109 112 128 141 151 168 163 168 161 138 137 157 172 178 175 166
159 139 159 136 118 66 158 76 74 46 40 61 65 118 134 197 266 253 211 188 166 165 166 159 149 146 140 128 118 105 96 83 80 90 101 115 119 123 145 158 164 171 185 173 166 177 172 151 130
190 150 131 140 142 132 113 95 34 51 60 57 74 113 139 185 214 200 189 160 146 140 134 114 108 113 111 97 89 96 103 106 107 130 128 119 126 130 148 156 170 176 172 172 175 179 187 157 136
184 202 201 209 136 98 81 72 57 49 51 103 91 132 152 167 190 186 163 157 155 123 105 101 88 82 78 81 85 90 117 143 157 158 141 127 129 136 142 149 154 160 164 166 161 165 182 183 198
146 179 186 156 146 101 64 44 23 6 17 53 97 130 136 131 133 135 140 133 122 115 95 80 73 67 74 84 91 116 130 143 149 144 133 117 113 124 128 130 138 159 177 185 168 168 170 158 142
75 101 163 157 150 202 171 112 83 -23 -6 42 87 117 119 110 119 138 145 144 116 97 89 76 70 71 75 83 103 135 145 143 139 131 122 110 114 120 127 138 163 182 182 180 176 158 133 122 104

GFSSGP_con_3kmhel_054.txt.gz
Helicity
117 105 107 155 153 153 152 141 103 126 47 56 74 73 61 88 110 105 42 47 39 35 -31 -36 -17 -10 2 -3 -7 -16 10 32 35 18 22 29 26 30 16 27 19 14 8 4 -4 -4 1 13 23
109 94 143 160 157 182 170 130 121 125 112 53 118 123 103 107 111 90 115 70 54 32 2 -33 -10 -5 13 14 2 -11 -27 -0 9 16 26 21 22 22 20 32 21 8 4 -0 -5 -6 -5 4 9
124 108 168 170 154 154 151 134 164 182 188 84 123 129 125 107 101 45 97 66 71 58 15 -17 10 14 33 23 17 11 6 -28 -22 3 3 -1 8 25 23 38 13 3 -1 -8 -12 -14 -13 -14 -24
183 195 194 169 143 181 159 208 186 234 192 134 141 140 138 143 70 102 114 103 85 69 42 9 31 45 38 31 28 46 12 -26 -34 -32 -23 -21 23 21 44 35 5 -6 -11 -16 -17 -18 -24 -27 -36
224 258 271 182 156 168 169 190 215 232 248 169 171 134 145 141 104 110 133 106 80 72 55 51 46 52 50 34 31 48 21 -3 -18 -32 -35 -35 20 24 23 18 -6 -13 -15 -18 -21 -20 -23 -27 -31
332 291 286 232 200 156 142 152 145 217 204 145 127 147 142 123 115 106 105 106 97 80 80 59 49 56 56 45 67 45 22 8 7 -3 -5 -29 -15 -6 6 9 -13 -20 -19 -19 -21 -21 -17 -16 -14
341 358 253 245 218 164 124 112 118 226 251 208 105 176 112 139 119 101 106 119 119 107 94 92 60 60 57 64 63 46 26 13 15 12 19 25 13 -6 -15 -10 -15 -17 -12 -14 -17 -19 -16 -10 -10
199 325 229 280 261 162 83 93 83 141 221 199 78 171 112 96 147 166 142 109 98 99 93 68 68 68 62 52 37 43 49 31 31 31 29 26 15 28 45 17 -4 6 11 8 1 -8 -13 -6 6
264 202 130 159 249 136 53 119 118 107 208 153 113 106 101 122 158 207 203 157 113 82 85 91 82 76 55 43 24 53 55 49 49 43 44 51 32 18 10 18 12 16 31 28 23 23 25 34 40
262 170 92 61 78 162 17 42 128 132 258 212 284 263 194 99 111 127 122 109 99 85 81 81 86 87 95 81 81 86 78 61 67 61 55 53 47 44 45 32 25 18 25 32 32 32 35 46 43
268 165 187 98 49 94 10 -18 32 130 201 191 335 394 177 90 80 100 63 57 14 38 68 57 73 92 95 105 93 108 86 69 67 67 66 57 50 46 48 44 35 32 32 41 46 52 51 51 53
214 137 88 110 88 75 66 -95 15 55 167 246 291 313 142 69 28 71 58 29 45 39 32 33 36 51 62 85 83 87 82 71 67 63 73 71 60 50 47 47 42 41 47 48 55 60 55 50 52
193 125 97 116 151 60 111 65 -89 106 133 193 270 270 155 64 49 51 63 59 67 51 33 26 34 30 40 53 60 58 56 67 67 73 77 86 71 58 56 44 44 44 50 52 55 61 64 62 63
139 160 89 94 66 108 102 98 -50 -64 -15 117 233 300 179 83 74 74 57 64 75 48 32 33 25 28 41 39 41 41 54 60 75 82 87 94 81 70 69 60 51 49 62 66 69 72 71 66 70
204 129 137 160 155 171 184 103 135 -33 -3 102 205 266 184 96 41 32 55 73 84 59 44 52 48 47 54 53 52 55 55 68 76 81 90 96 90 74 78 81 72 64 73 73 79 78 84 80 81
182 184 126 120 144 157 157 64 40 82 52 179 201 293 213 133 27 26 40 79 74 74 55 67 71 78 90 87 84 87 87 96 92 88 92 94 95 90 87 84 82 93 104 110 108 106 101 101 108
222 160 203 150 78 146 141 57 62 54 63 107 243 234 197 168 97 67 52 65 71 71 84 85 94 100 95 101 112 116 107 112 109 109 105 95 108 112 120 118 110 122 126 137 138 131 146 133 140
193 231 226 226 147 161 97 136 32 88 10 87 224 176 144 137 96 73 93 68 54 57 64 78 93 113 116 124 126 120 114 110 115 109 112 102 110 131 149 142 143 170 163 147 172 157 176 176 172
189 219 159 151 99 150 89 84 75 61 6 70 207 209 151 134 89 84 80 78 93 101 88 85 91 106 133 147 146 131 129 133 120 115 109 115 114 112 134 145 155 184 175 164 189 207 185 185 222
172 192 156 147 118 100 73 45 28 59 5 -32 100 11 105 117 50 88 80 91 123 130 144 159 153 144 143 165 165 156 134 125 129 118 116 115 126 132 146 150 144 158 168 174 183 225 208 206 236
189 160 166 140 166 153 78 77 60 18 73 56 -52 11 -9 89 21 94 115 111 133 161 183 197 196 182 176 163 172 178 171 161 153 153 148 158 146 136 141 143 151 160 177 163 170 210 205 181 197
148 119 135 117 156 136 115 63 50 37 -25 -30 -31 -17 11 45 47 88 126 128 130 157 185 198 198 194 186 177 162 150 141 138 150 147 153 160 172 160 145 132 136 143 169 177 169 184 195 211 174
109 98 130 154 186 159 153 102 -13 81 24 -146 -88 -73 -31 40 92 84 114 131 162 172 178 188 194 206 203 194 174 157 152 150 149 153 164 156 152 160 168 175 159 138 143 141 160 175 177 207 195
57 163 199 175 149 72 83 88 -35 92 56 63 84 79 60 90 107 137 177 207 237 243 225 208 203 200 191 178 178 165 156 152 144 133 125 128 132 147 164 163 153 136 123 121 125 145 164 178 172
157 162 217 190 153 66 77 65 42 77 92 65 81 82 73 94 139 239 309 272 269 251 228 213 189 183 172 162 154 146 136 129 117 112 110 118 123 133 154 161 172 165 158 149 138 148 162 170 175
156 166 166 151 131 66 112 -8 -9 11 30 12 30 60 73 77 136 240 316 320 274 241 196 182 163 169 191 179 149 122 102 88 90 102 107 120 118 117 134 148 165 177 182 183 181 184 185 168 157
159 135 155 149 130 88 67 54 15 28 46 62 69 57 26 69 135 220 320 332 301 263 208 160 151 157 151 138 116 105 100 96 104 120 126 124 126 121 137 150 168 184 194 196 199 217 243 245 258
121 143 148 180 85 52 49 25 49 55 99 66 44 67 106 113 173 200 238 237 226 185 167 159 139 110 87 79 88 88 102 119 131 143 154 148 135 133 135 142 150 155 160 168 175 187 211 225 239
178 202 202 156 140 94 49 42 14 19 48 53 45 54 95 128 145 155 170 177 172 169 153 144 119 88 72 65 70 88 103 125 144 153 151 140 131 133 134 136 138 144 151 159 168 193 198 206 212
122 139 168 161 161 159 136 55 113 33 -53 10 13 48 84 98 92 122 144 146 135 124 114 100 88 70 50 47 64 92 115 137 155 161 154 142 130 129 132 137 146 150 160 178 173 169 176 172 176

GFSSGP_con_3kmhel_057.txt.gz
Helicity
115 112 122 135 146 132 157 147 127 141 103 111 117 85 84 93 88 86 42 30 -22 2 -60 -50 -36 -29 -28 -17 -14 -12 1 4 -9 -18 -15 -13 2 5 10 5 -3 -7 -7 -16 -18 -20 -11 -5 1
105 123 165 149 166 173 158 161 131 128 187 85 72 98 76 96 85 64 76 46 -0 6 -36 -40 -23 -21 -22 -12 -16 -29 -23 -26 -38 -40 -28 -17 -3 3 12 -0 -9 -12 -12 -16 -18 -22 -21 -19 -24
93 116 195 173 151 151 139 149 157 167 161 115 103 103 110 99 86 53 100 68 41 15 -22 -30 -13 -13 -2 -9 -8 -18 -28 -58 -65 -49 -34 -12 -7 -4 15 -4 -13 -14 -15 -22 -25 -28 -32 -37 -41
144 168 215 219 134 171 138 167 190 218 151 103 138 124 105 89 78 87 90 91 73 31 7 -20 8 24 10 -1 6 13 -20 -45 -59 -53 -27 -21 -2 1 18 1 -14 -13 -16 -22 -25 -31 -37 -41 -46
155 215 266 245 185 167 161 164 169 218 218 201 169 144 130 122 84 84 77 81 85 56 31 9 30 40 29 16 37 23 2 -21 -40 -56 -80 -0 -1 27 14 -1 -17 -18 -17 -20 -23 -27 -34 -40 -42
333 260 283 233 224 200 190 139 126 206 239 223 200 188 153 84 82 85 105 78 64 73 51 39 51 45 48 39 49 26 1 -12 -17 -33 -39 -33 -14 -5 -0 -13 -21 -18 -16 -16 -18 -21 -26 -31 -31
263 271 233 201 209 211 193 136 135 155 250 251 245 230 148 95 89 87 108 94 79 80 74 66 52 50 52 61 60 34 5 -5 -8 -8 -4 -13 5 -0 -12 -26 -18 -12 -7 -10 -12 -15 -16 -13 -11
358 293 164 224 212 213 187 181 126 140 221 202 188 291 268 144 85 114 120 111 91 99 87 71 65 59 55 53 60 37 33 23 14 15 11 15 15 9 18 2 -5 1 7 7 7 8 13 20 30
344 278 199 150 207 231 200 201 189 95 99 160 131 161 164 93 86 99 106 146 138 123 114 104 88 66 55 44 37 56 50 48 40 35 36 33 22 25 23 11 5 13 22 21 19 16 24 32 35
271 164 268 282 241 225 256 190 191 161 160 201 210 249 202 124 143 79 64 82 98 107 124 115 96 82 66 49 48 70 64 55 54 49 45 40 33 32 31 28 26 23 23 26 24 28 41 39 40
315 123 106 81 131 144 192 110 81 197 216 201 264 265 279 149 99 97 69 21 12 42 63 70 85 90 85 72 75 83 83 67 59 61 56 49 43 39 38 38 40 37 35 34 37 41 40 44 47
222 194 152 92 40 97 138 -0 58 131 200 143 188 143 192 222 86 63 67 37 43 48 59 71 72 79 90 97 82 96 94 68 57 57 55 55 49 44 43 46 43 40 39 36 37 39 41 47 52
207 91 71 85 93 67 91 -36 -75 61 46 80 144 151 190 239 130 70 65 54 25 31 33 39 52 57 64 66 75 76 70 57 50 49 49 52 51 47 48 45 43 41 40 40 44 48 51 53 56
174 234 127 134 114 106 109 103 -135 -127 -128 -8 138 190 192 238 161 86 62 38 20 25 26 23 27 30 34 42 48 52 52 50 50 48 51 53 53 52 51 47 46 44 48 50 53 54 55 56 59
169 205 153 110 125 104 119 98 59 -169 -67 17 98 145 195 268 182 97 77 52 38 27 42 33 29 28 32 34 41 49 46 48 45 51 51 52 60 56 51 50 49 51 55 50 55 58 65 69 71
208 178 164 117 109 129 75 80 70 40 -52 36 37 119 183 256 171 90 79 68 49 32 43 38 37 34 32 38 46 51 54 55 55 61 65 53 54 56 55 56 52 54 59 65 71 78 82 83 85
242 165 182 189 100 121 82 24 41 66 126 -18 51 94 170 232 195 100 66 52 40 31 44 51 49 42 41 53 70 70 70 72 72 79 78 68 67 63 68 69 65 69 80 85 89 92 97 93 99
216 217 190 162 135 105 73 128 75 68 67 38 68 85 156 252 246 142 92 76 64 42 31 40 52 54 69 85 86 85 81 74 72 74 75 65 72 69 76 74 73 89 100 99 111 111 116 116 106
221 215 162 148 85 117 55 72 122 33 46 40 36 165 148 272 224 161 132 111 79 68 58 41 55 58 82 105 106 99 91 85 79 81 74 75 74 73 78 79 78 95 101 90 100 112 117 123 145
154 196 190 178 87 130 85 50 37 31 27 34 39 23 166 211 200 177 129 129 112 98 94 97 79 93 99 114 123 124 106 95 98 92 77 74 78 84 99 103 102 101 111 100 102 124 148 153 165
186 121 182 141 127 116 81 75 61 58 58 31 33 -41 127 179 175 129 95 98 89 83 104 125 130 134 142 133 150 149 145 128 114 116 116 136 142 129 119 109 108 108 126 133 123 135 143 155 174
148 126 157 132 144 100 106 60 56 45 48 1 -7 -153 -28 -42 36 92 54 54 98 125 141 157 174 180 187 166 154 138 132 124 125 126 130 135 151 158 167 155 148 138 144 148 145 149 153 174 179
170 127 159 162 173 125 129 60 10 95 40 -21 -4 -10 -7 -39 4 56 30 69 110 140 155 183 200 208 201 188 165 149 144 140 133 132 141 157 177 192 197 190 183 166 157 143 138 136 154 176 181
85 175 227 190 156 90 85 63 -68 25 51 68 57 72 85 41 7 48 99 138 156 178 178 181 192 207 190 176 171 153 136 131 132 135 138 148 145 146 170 170 168 162 149 134 126 119 133 152 163
142 178 199 150 128 61 93 64 31 21 20 29 58 50 48 74 75 97 152 203 215 208 195 201 196 210 200 180 168 154 139 132 125 127 127 132 141 149 161 163 164 158 154 142 133 126 127 144 182
149 133 154 110 101 56 94 2 -5 13 -12 15 12 35 57 100 73 107 157 257 265 281 244 228 205 188 172 161 152 147 142 133 131 131 127 128 127 127 133 136 140 151 157 162 155 155 158 160 167
163 144 123 107 112 86 73 69 25 -3 14 55 53 49 38 34 65 91 165 253 311 323 297 242 212 194 169 143 127 138 149 128 117 123 126 130 136 132 135 135 142 155 163 170 168 175 194 215 231
126 133 151 164 77 55 59 47 44 39 67 86 61 63 45 69 86 111 185 269 315 295 271 231 198 167 155 152 138 122 117 115 116 123 138 143 140 137 131 132 141 151 158 160 149 153 167 176 190
148 137 143 93 82 34 6 24 19 32 35 40 18 17 44 54 97 160 199 239 245 253 222 192 163 141 126 119 107 97 102 115 133 139 144 147 142 142 140 136 139 147 152 151 149 163 174 194 194
125 82 129 99 79 118 83 45 92 52 -10 5 21 -5 36 40 92 125 149 166 160 153 155 152 146 121 104 88 87 96 106 118 132 143 146 148 148 149 141 138 137 139 147 151 158 168 167 162 169

GFSSGP_con_3kmhel_060.txt.gz
Helicity
103 107 107 145 139 151 139 108 150 163 91 119 129 151 119 150 86 98 30 28 0 -15 -37 -57 -37 -47 -48 -30 -12 6 5 -3 -18 -30 -31 -27 -8 -8 -9 -15 -16 -21 -24 -23 -20 -8 0 0 -5
107 98 135 172 173 142 127 116 121 150 142 116 87 103 100 109 82 45 34 27 -19 -12 -23 -42 -37 -37 -36 -27 -35 -36 -24 -33 -41 -48 -53 -39 -16 -10 -12 -15 -15 -17 -20 -24 -27 -20 -15 -21 -22
107 131 160 200 166 129 143 109 122 156 139 93 75 90 97 100 66 44 94 29 -8 -28 -18 -16 -24 -20 0 -20 -39 -45 -65 -62 -58 -65 -68 -48 -28 -6 -13 -21 -21 -21 -24 -26 -26 -25 -29 -27 -30
144 156 173 225 169 104 158 107 161 135 131 125 80 62 54 70 67 87 96 54 12 -21 -21 12 -14 -4 4 -4 -9 -29 -58 -96 -100 -78 -57 -46 -38 2 -7 -18 -21 -22 -25 -25 -26 -29 -30 -35 -37
196 188 194 212 178 116 141 118 166 118 142 146 191 89 100 98 104 62 105 89 50 7 0 -6 -1 18 6 5 16 -15 -42 -69 -94 -81 -61 -32 -24 6 -2 -18 -25 -24 -28 -30 -31 -31 -29 -32 -31
266 250 229 182 138 165 203 148 140 145 160 169 143 163 145 100 110 79 91 74 70 45 31 22 29 34 17 34 24 1 -19 -41 -68 -87 -40 -41 -8 -3 -17 -27 -25 -20 -18 -17 -19 -22 -24 -25 -25
219 213 190 147 133 174 198 193 152 125 151 198 195 212 186 160 139 121 126 91 64 59 49 41 32 38 45 51 33 16 -1 -20 -32 -28 -10 -8 -12 -13 -7 -17 -23 -16 -16 -17 -17 -16 -18 -18 -14
142 155 172 249 157 207 190 209 228 185 186 175 217 238 240 215 134 105 123 113 91 63 53 61 55 43 38 36 52 32 23 11 0 12 28 28 20 5 3 -13 -18 -13 -5 0 0 2 4 4 6
224 220 197 196 167 186 226 205 215 188 137 191 184 156 184 146 117 99 99 138 104 79 70 66 65 58 45 45 48 43 52 45 42 39 45 26 10 8 5 16 5 1 2 10 14 22 29 27 27
289 197 126 141 243 149 253 200 226 191 141 184 166 153 98 122 151 100 81 80 104 89 97 89 81 76 67 68 58 60 48 42 50 47 42 34 36 28 18 33 29 25 26 31 28 35 39 21 26
290 184 68 98 189 143 188 207 208 188 197 221 231 202 177 150 145 148 84 50 38 55 95 104 102 94 78 65 64 87 63 58 63 62 62 60 52 44 36 43 41 39 40 36 38 48 38 40 41
200 106 94 152 168 230 242 149 180 245 216 166 223 186 159 185 135 133 137 85 46 31 44 73 84 80 80 83 67 56 54 62 64 61 58 60 59 56 52 47 48 45 47 49 46 51 48 46 45
173 126 192 100 142 117 148 151 101 149 133 116 192 179 180 166 178 118 138 142 114 66 42 49 58 64 81 74 72 62 48 55 57 54 47 50 51 54 50 46 43 43 49 50 54 49 48 50 53
67 114 116 164 176 136 85 109 96 78 34 22 141 185 166 149 173 161 112 109 114 109 43 47 53 54 64 65 57 59 52 44 46 45 45 42 49 52 54 52 47 46 51 59 60 62 62 60 58
144 124 72 99 110 173 147 62 86 50 -5 29 110 129 153 174 140 190 126 101 94 74 45 34 40 43 41 39 49 47 44 44 46 49 44 44 48 52 56 56 55 57 62 60 61 58 59 61 62
139 97 83 24 43 37 38 100 59 71 -78 -32 69 131 116 141 130 161 153 107 80 57 39 34 47 39 32 37 44 44 44 50 57 55 52 51 50 49 58 61 63 70 70 66 61 64 68 67 69
126 80 60 40 41 75 49 62 103 51 33 -19 -12 65 100 122 122 131 152 121 95 63 52 37 35 37 34 40 43 45 53 62 67 69 68 61 57 57 60 64 68 72 77 77 80 83 85 88 91
131 125 80 67 117 78 60 88 154 65 47 41 -45 36 95 112 117 120 145 113 92 73 48 51 43 31 36 42 45 57 62 62 65 70 72 69 70 65 69 71 67 75 81 83 88 88 97 99 101
98 128 77 94 106 90 65 54 60 114 61 48 85 66 69 73 90 113 131 124 111 78 64 54 47 40 58 71 72 71 71 71 78 81 77 80 80 81 78 79 78 81 86 84 90 100 102 106 109
75 71 75 116 61 50 49 37 28 42 71 28 53 36 87 78 103 130 149 156 133 116 88 68 47 41 44 62 72 85 90 89 85 96 84 83 83 84 91 88 89 87 94 88 93 104 117 118 134
63 51 71 79 95 110 100 66 43 21 40 47 -4 -8 58 124 94 131 167 167 147 113 108 102 88 71 78 83 116 120 124 119 111 100 107 119 119 109 107 104 107 109 131 131 126 138 133 171 162
80 91 83 74 68 81 62 76 49 30 23 5 -3 3 18 30 192 202 172 136 122 124 120 98 103 110 121 117 121 107 105 105 122 132 127 123 129 128 130 127 132 141 152 146 135 147 155 172 185
134 51 75 82 81 89 38 63 53 65 10 19 24 22 43 46 102 171 160 110 110 115 88 101 128 133 149 155 154 140 130 131 124 119 115 121 125 141 149 161 161 156 152 139 134 129 142 162 175
52 100 106 103 91 76 60 45 7 49 67 47 41 27 41 18 136 99 54 -2 39 66 89 113 140 157 162 162 159 148 128 118 114 115 117 125 137 149 172 174 164 154 144 129 126 121 120 133 140
100 92 200 137 101 82 80 51 62 30 62 36 76 70 57 71 38 21 -8 86 172 104 115 138 162 167 164 155 152 143 133 124 117 118 123 128 134 142 155 162 154 149 145 139 136 128 130 133 155
76 93 140 116 102 52 67 40 33 45 36 52 53 33 57 46 60 75 40 -1 62 83 120 136 158 189 183 171 163 155 139 132 133 134 135 138 146 152 150 144 137 133 132 131 130 132 137 147 155
122 122 173 83 52 24 30 37 33 16 26 15 54 43 47 58 48 91 81 66 85 160 195 208 207 213 198 184 171 155 143 127 118 132 143 148 149 148 137 133 132 132 133 133 133 142 160 170 188
105 90 99 107 20 24 25 37 37 45 108 136 137 110 76 46 41 68 65 83 140 172 232 239 227 208 205 186 167 154 148 152 138 129 135 145 150 145 136 130 132 133 135 139 128 145 156 147 155
133 108 113 96 88 71 49 40 62 48 58 59 55 56 85 74 51 57 93 86 170 245 240 255 246 227 204 181 165 146 147 130 118 114 125 138 141 144 137 138 137 142 145 142 145 149 144 150 151
85 62 36 55 21 73 89 75 30 10 8 22 98 125 73 29 60 56 85 112 170 200 213 185 171 157 153 143 122 114 105 101 102 113 125 131 132 141 137 132 136 141 141 145 142 146 151 151 158

GFSSGP_con_3kmhel_063.txt.gz
Helicity
147 98 91 117 199 125 112 119 88 59 129 104 150 196 136 140 60 88 44 40 32 4 -14 -51 -46 -48 -45 -26 -6 8 3 -4 -16 -34 -33 -3 -2 -5 -10 -13 -17 -15 -10 -2 8 8 6 4 2
135 97 113 143 232 119 116 59 44 37 133 75 123 164 153 79 100 48 75 36 10 9 -13 -49 -56 -46 -47 -29 -16 -6 -9 -20 -29 -41 -45 -10 -13 -13 -17 -15 -17 -18 -17 -12 -11 -13 -14 -13 -17
136 130 135 168 165 207 103 35 52 99 138 157 60 168 171 94 82 23 48 40 16 5 -17 -2 -51 -35 -8 -15 -36 -42 -36 -34 -40 -47 -56 -34 -17 -12 -20 -19 -21 -24 -27 -29 -27 -28 -27 -23 -26
147 140 175 221 160 172 52 94 81 125 73 145 69 73 62 111 116 104 59 38 22 11 3 13 -27 -18 -7 -8 -24 -54 -79 -78 -55 -52 -56 -50 -6 -10 -15 -17 -20 -25 -28 -31 -29 -31 -34 -30 -28
219 156 178 160 161 129 97 120 99 105 85 107 147 73 47 42 91 56 109 61 36 19 38 10 7 -10 -20 -6 -11 -37 -66 -90 -94 -67 -59 -57 1 -9 -14 -18 -22 -23 -25 -26 -27 -27 -26 -21 -18
199 192 209 150 134 79 131 138 102 97 110 121 157 80 16 76 108 143 207 91 50 39 9 29 24 9 -13 -6 -6 -17 -33 -50 -73 -102 -79 -49 -7 -11 -24 -16 -16 -15 -15 -17 -18 -23 -23 -20 -18
188 214 243 118 132 128 176 208 177 82 67 149 185 125 103 64 128 94 174 108 78 49 25 23 32 27 18 9 6 1 -4 -12 -28 -3 -29 -14 -12 -13 -12 -12 -15 -14 -15 -18 -18 -21 -20 -16 -9
164 164 172 163 138 157 112 213 252 245 172 125 241 176 99 170 149 169 280 83 101 69 50 28 42 36 22 19 24 22 23 24 11 27 26 29 25 16 13 -1 -6 -5 -1 0 5 4 5 7 12
121 208 209 168 130 100 164 192 228 211 129 178 178 205 156 170 179 162 211 274 229 140 63 59 48 59 41 44 47 38 48 53 37 32 34 12 1 3 9 38 30 10 7 8 11 19 25 24 32
201 102 135 184 99 127 97 187 223 197 106 110 132 123 103 121 188 137 107 132 123 112 79 77 96 82 73 66 55 46 52 44 32 29 36 12 40 49 58 71 51 35 33 33 31 36 31 21 31
163 109 89 148 134 170 198 254 206 126 138 178 203 182 97 93 148 145 131 96 106 106 103 112 75 89 120 93 54 79 67 72 63 53 48 59 62 64 51 59 51 45 44 43 47 49 27 43 44
202 103 79 134 231 214 203 151 255 256 177 191 215 204 163 112 135 142 162 128 94 67 50 76 83 97 81 122 88 69 80 64 63 68 64 71 71 69 71 66 66 59 67 50 56 49 53 51 48
102 158 119 67 83 126 244 229 258 221 178 145 215 225 196 156 150 100 124 170 154 119 95 83 98 96 97 100 103 77 48 66 70 79 68 66 71 77 71 68 66 62 62 62 61 59 55 52 53
105 134 228 129 161 139 120 137 261 187 120 156 177 222 203 163 142 115 111 108 105 107 80 71 68 74 82 104 112 81 65 71 68 72 65 54 59 62 64 72 71 65 64 63 63 64 67 68 64
126 61 232 131 217 88 40 55 114 149 108 103 121 190 178 176 125 138 123 91 93 99 87 71 55 67 88 92 104 84 81 84 70 60 53 48 53 56 62 65 73 74 70 66 71 69 68 65 65
195 52 113 147 80 106 133 55 40 58 111 177 47 142 150 139 115 97 116 118 106 105 95 96 97 74 75 79 94 94 88 72 60 55 51 47 49 57 66 70 74 75 78 76 75 72 73 73 77
141 85 77 126 132 100 95 72 118 112 59 98 131 111 136 98 51 67 82 105 114 103 86 77 73 65 60 64 79 73 58 62 57 51 53 54 53 62 74 78 83 83 85 80 77 80 80 92 90
122 137 5 76 40 67 51 129 89 19 24 16 76 108 154 103 63 45 79 109 109 87 74 69 72 57 51 59 64 62 53 49 43 49 58 62 71 76 85 91 90 95 104 94 89 88 100 112 115
76 87 48 29 24 -1 30 75 99 39 8 27 24 79 67 100 61 61 60 88 122 119 79 69 64 56 69 78 72 60 74 62 58 65 73 91 89 94 98 101 102 104 100 92 89 103 117 124 106
82 91 136 102 57 21 17 3 -25 4 52 44 38 27 90 71 61 58 83 71 124 133 105 75 58 59 62 78 76 63 55 72 74 92 93 90 94 102 110 104 105 118 123 97 100 111 146 155 160
164 107 123 102 82 37 84 13 18 27 27 62 51 65 128 134 106 85 64 75 127 159 146 108 97 96 77 67 78 103 134 144 148 122 105 110 129 129 150 154 151 142 158 159 163 183 187 180 190
154 107 138 84 44 72 9 76 -7 6 19 16 44 66 44 171 164 297 59 142 126 152 168 154 107 87 91 90 102 112 110 120 110 146 167 153 129 133 136 127 120 125 142 157 157 154 161 179 177
154 126 82 46 20 103 41 93 94 41 29 26 23 36 41 55 88 139 264 183 135 147 161 124 146 133 121 115 112 118 129 151 204 161 136 121 114 130 137 139 150 146 156 158 153 143 137 155 169
101 91 74 78 96 103 60 45 65 32 51 57 32 28 28 25 51 46 81 152 197 165 145 104 120 159 125 116 119 124 143 166 164 148 128 119 119 116 132 148 150 156 146 141 137 134 131 124 126
81 114 206 141 132 145 121 71 88 48 56 91 101 89 67 48 74 51 55 147 167 167 146 118 84 103 82 113 111 117 155 167 159 147 124 117 93 98 107 136 148 150 153 141 133 129 119 115 129
55 64 173 136 79 71 68 77 76 86 64 61 45 46 67 72 75 113 144 182 133 175 101 109 94 117 142 150 158 178 180 170 151 135 128 122 139 160 170 137 140 143 138 126 122 126 134 127 138
85 90 138 216 189 175 3 44 77 31 60 55 83 82 64 57 68 63 75 121 167 67 67 113 141 132 156 152 180 174 165 155 133 123 129 142 160 172 163 144 142 138 134 131 126 136 138 162 156
128 82 119 173 105 68 35 53 61 32 60 98 129 132 120 98 66 55 63 81 117 136 134 192 224 189 238 255 213 199 171 155 143 128 116 129 145 141 148 147 135 128 122 128 129 130 152 163 160
101 99 130 137 148 156 86 47 115 41 64 95 69 82 86 89 70 51 49 60 79 125 144 162 240 307 299 280 221 181 160 137 129 129 132 133 135 130 132 140 135 134 133 134 132 123 135 135 137
68 38 21 57 25 68 125 99 15 44 61 38 20 54 65 78 80 -14 9 55 94 115 152 197 195 184 197 197 170 147 129 114 102 108 119 122 118 127 131 130 134 135 138 147 162 140 140 129 138

GFSSGP_con_3kmhel_066.txt.gz
Helicity
135 138 127 142 186 138 114 106 92 90 96 73 68 174 137 126 164 119 11 57 117 40 2 -30 -30 -20 -10 -4 1 3 -2 -11 -20 -3 4 3 3 1 0 4 8 5 27 29 24 15 7 4 -2
157 145 126 184 202 170 132 81 59 102 117 156 39 79 158 116 65 109 148 58 70 35 -20 -55 -58 -47 -28 1 11 -3 -12 -22 -24 -15 -4 -1 1 -4 0 -3 -6 -6 2 10 -1 -4 -7 -17 -20
164 177 173 203 159 182 160 83 109 93 111 138 98 44 229 156 33 124 96 43 51 24 -36 -42 -63 -52 -25 -18 -16 -15 -22 -29 -33 -27 -16 -10 -2 -12 -10 -12 -17 -18 -19 -14 -15 -18 -17 -22 -26
182 167 218 218 146 93 188 49 141 185 186 135 210 58 91 119 111 141 102 36 60 0 71 7 -37 -32 -25 -37 -49 -49 -42 -40 -37 -36 -27 -2 -10 -16 -15 -17 -20 -19 -17 -18 -18 -22 -19 -18 -16
174 214 224 190 159 151 32 77 259 169 96 88 189 212 57 119 161 34 93 58 46 121 81 33 -6 -15 -30 -34 -42 -62 -75 -78 -57 -44 -34 0 -17 -16 -15 -17 -19 -16 -11 -11 -11 -16 -17 -16 -14
197 221 251 228 102 169 49 149 166 221 97 132 128 143 141 67 105 151 137 75 84 93 60 40 14 -1 -19 -23 -28 -43 -62 -73 -84 -93 -67 -7 -29 -26 -17 -15 -12 -8 -7 -6 -12 -18 -21 -19 -17
168 217 234 167 165 153 133 265 261 192 167 149 241 123 179 53 65 113 256 67 99 22 49 76 37 15 -1 -9 -8 -17 -23 -28 -34 -78 -80 -24 -32 -24 -17 -16 -13 -11 -7 -6 -5 -12 -11 -6 2
158 198 189 239 187 105 141 222 230 245 223 178 175 222 146 306 58 49 267 101 104 49 15 65 53 36 10 5 6 9 15 10 25 25 29 10 23 14 -1 -7 -8 -3 5 8 12 11 12 17 25
157 194 184 179 237 109 178 220 246 292 196 288 177 230 135 159 292 76 269 162 160 83 42 87 29 25 29 37 27 28 37 31 32 30 17 11 2 4 10 20 21 17 15 20 22 24 24 26 36
176 138 171 120 269 147 158 181 217 241 221 199 134 178 133 142 287 312 260 231 232 149 85 70 84 68 71 69 41 15 37 29 19 25 16 -11 15 43 78 63 55 44 41 43 39 39 37 29 41
179 136 98 144 151 72 151 103 162 208 138 121 160 114 121 105 161 166 220 223 286 161 90 117 100 84 113 96 57 55 44 51 51 37 30 24 87 72 64 61 61 55 47 44 47 40 27 29 43
210 103 75 10 139 200 200 216 170 167 284 306 274 168 89 100 130 171 166 190 206 146 107 96 100 112 116 107 83 77 69 58 49 64 41 100 84 73 57 74 52 49 63 38 54 63 32 50 52
133 105 136 102 246 127 143 183 283 316 232 167 252 284 121 101 120 136 149 165 183 137 110 90 106 114 122 124 84 84 59 47 37 94 80 82 82 78 51 62 78 61 64 54 63 58 61 65 50
126 178 131 81 50 106 276 267 286 269 172 143 150 268 175 151 148 110 125 140 137 177 196 158 119 106 103 119 120 97 66 25 83 109 83 80 83 69 55 61 73 72 77 72 69 65 63 64 70
132 133 154 119 132 111 138 244 203 221 217 141 90 151 159 108 128 144 120 114 114 104 137 129 132 117 142 165 137 111 82 105 86 119 91 84 70 61 57 59 72 68 75 75 72 77 80 80 69
122 124 167 131 181 92 141 117 101 103 259 325 161 99 107 113 104 101 148 133 104 104 112 108 126 99 107 144 127 102 123 148 152 126 99 86 69 55 57 68 65 78 85 94 89 85 81 78 78
144 165 90 119 216 161 245 198 127 83 138 194 270 191 134 110 85 75 47 85 112 118 122 116 109 107 99 100 109 115 141 152 118 100 88 75 68 62 72 71 75 84 99 108 102 88 96 97 99
124 134 97 61 127 205 154 205 85 101 87 67 63 99 166 155 116 65 23 41 53 86 127 135 142 125 114 127 157 141 125 98 73 62 72 75 78 72 94 89 92 103 102 106 106 107 108 112 112
138 151 100 52 49 10 27 69 95 71 68 17 54 97 112 110 124 112 96 39 77 98 119 129 145 120 125 121 129 109 89 82 68 49 64 86 97 95 112 114 105 116 125 117 112 119 116 124 123
94 68 85 -27 13 59 132 83 45 41 111 107 162 93 77 149 111 182 153 65 83 107 119 132 141 133 123 127 120 114 100 75 72 61 92 110 111 125 142 133 119 134 147 124 121 135 140 152 158
102 83 163 54 15 51 83 107 48 -17 76 59 50 42 38 132 75 195 181 93 103 124 129 141 138 133 130 128 130 116 146 136 125 126 134 127 124 158 171 176 161 156 151 141 147 163 167 160 175
195 61 56 59 71 72 10 106 64 4 26 43 21 76 65 87 363 151 176 174 135 129 182 198 213 171 142 129 135 150 151 157 126 132 173 201 179 170 184 174 166 150 150 146 143 150 167 182 191
245 118 214 184 80 150 41 99 76 103 59 80 62 55 65 74 188 294 215 192 153 162 167 194 194 191 206 184 176 191 169 140 170 202 207 171 148 141 149 152 158 153 148 153 164 167 168 175 184
179 260 225 175 182 150 72 70 136 48 8 31 91 72 63 69 76 81 96 194 154 202 231 205 208 214 188 166 164 164 135 167 189 180 180 165 154 137 139 146 144 152 153 162 174 170 154 152 160
154 203 290 278 279 207 142 85 123 99 120 143 154 199 119 79 87 96 129 112 153 208 200 192 196 202 177 146 128 144 172 151 139 138 151 179 168 142 113 140 147 153 165 162 154 148 143 137 149
88 192 255 220 176 170 165 138 131 86 42 93 79 73 86 100 124 119 150 165 184 233 215 173 181 193 169 153 163 199 238 244 255 227 223 189 188 197 196 164 152 157 163 152 145 143 133 132 133
68 127 193 249 232 146 73 79 88 65 118 88 110 142 162 137 116 110 92 116 201 208 189 211 201 185 172 184 240 227 271 219 187 203 196 186 185 195 199 174 168 167 153 144 139 136 158 184 172
112 63 130 230 187 162 83 43 61 98 112 131 141 122 139 145 139 121 75 79 101 200 200 146 172 218 248 271 293 319 250 238 186 188 179 183 173 165 170 180 172 161 149 138 137 139 157 174 167
99 142 142 133 147 163 115 100 138 43 134 144 112 94 63 52 70 100 79 51 61 136 185 157 188 197 249 337 435 380 379 398 321 218 192 170 157 153 158 163 156 150 150 154 144 122 120 124 135
116 76 88 100 115 133 143 134 70 135 110 98 42 26 14 -16 -38 26 45 11 56 69 133 189 236 272 229 234 237 238 253 252 247 210 179 173 149 174 171 153 143 149 160 160 176 150 151 114 122

GFSSGP_con_3kmhel_069.txt.gz
Helicity
116 123 165 168 208 125 174 191 134 86 44 23 -5 73 61 195 107 131 89 79 125 83 32 25 21 13 15 9 12 3 -0 -6 20 10 13 8 3 4 7 30 56 33 32 38 14 6 5 1 -7
100 156 174 211 202 173 133 142 41 48 91 105 61 182 231 193 113 150 129 71 99 60 15 7 3 4 4 7 4 -7 -7 -1 2 -0 10 5 3 1 2 3 25 32 25 6 -3 -9 -14 -12 -22
109 144 212 232 204 145 130 123 -24 16 82 189 79 62 130 102 218 143 78 52 87 41 6 -22 -19 -24 -7 -6 -11 -12 -12 -10 -12 -11 1 -4 -3 -6 -6 -9 -12 -3 -13 -13 -12 -10 -14 -20 -30
166 202 248 260 188 140 147 131 188 194 239 118 165 16 56 147 136 146 42 22 55 35 13 -10 -23 -33 -32 -41 -38 -24 -19 -20 -22 -11 3 -5 -7 -8 -11 -14 -16 -18 -20 -17 -15 -8 -8 -12 -24
148 189 230 258 173 157 96 98 133 209 245 165 145 146 16 42 128 141 53 -7 52 62 37 7 -12 -26 -48 -50 -69 -71 -49 -36 -29 -14 -6 -12 -11 -11 -13 -17 -19 -20 -19 -15 -10 -3 -6 -14 -27
267 192 244 202 161 134 118 68 131 224 130 181 157 173 111 120 127 123 152 69 65 93 69 19 2 -18 -30 -43 -62 -82 -86 -76 -74 -61 -20 -33 -28 -19 -15 -17 -17 -18 -18 -18 -16 -11 -9 -11 -12
238 249 200 139 174 146 123 133 165 187 218 228 195 242 163 231 221 63 157 95 99 97 92 59 26 -0 -8 -28 -42 -53 -61 -72 -94 -95 -58 -66 -45 -36 -32 -26 -19 -17 -14 -12 -9 -2 6 11 9
182 237 180 172 167 180 111 195 57 202 228 197 284 184 247 84 120 79 133 131 110 87 86 99 65 30 9 -12 -16 -17 -24 -34 -28 -59 -10 -24 -25 -17 -15 -24 -19 -11 -0 4 9 16 19 26 27
169 268 164 148 215 156 148 188 199 157 247 243 243 250 223 153 66 263 148 118 117 58 54 81 73 47 31 19 5 5 6 15 27 23 16 7 -19 -10 7 3 7 11 13 17 25 31 36 40 40
216 241 129 136 187 181 259 208 186 251 243 287 239 242 208 225 220 235 156 116 94 51 1 57 51 40 39 35 14 16 19 19 24 17 5 7 4 9 14 31 40 43 45 42 43 45 43 41 40
146 218 139 141 91 223 257 193 204 226 264 193 154 142 182 232 251 274 252 68 108 57 30 59 62 58 57 52 29 25 21 31 34 29 18 24 43 71 52 42 49 44 47 48 49 43 35 39 42
235 143 81 106 136 166 225 154 238 233 247 211 154 98 161 216 218 199 205 183 199 124 141 109 101 101 87 64 61 50 40 39 52 34 51 68 56 62 58 46 31 35 37 37 41 41 38 29 38
127 175 103 96 117 202 209 150 227 243 293 253 176 165 122 160 213 212 187 196 232 177 147 96 114 119 109 85 67 39 49 46 51 54 71 78 91 70 61 39 45 34 43 42 32 32 34 27 31
94 139 164 106 89 231 305 308 249 226 262 242 204 116 139 118 143 160 176 197 229 173 142 122 118 117 144 100 78 65 60 41 43 77 103 93 98 80 61 50 48 46 48 41 59 58 51 55 59
214 105 149 122 112 96 173 280 279 244 203 180 145 121 120 140 114 114 100 139 153 160 162 141 118 133 136 115 101 93 64 57 59 62 126 99 102 77 62 58 49 49 55 58 60 54 72 70 66
131 218 150 189 92 203 280 245 189 221 239 214 166 125 102 130 106 84 125 118 116 150 135 157 145 173 131 121 131 114 122 105 109 118 129 90 91 88 68 63 60 44 60 73 80 79 77 75 76
186 120 116 180 153 184 101 99 278 140 128 150 185 229 178 104 118 107 96 91 104 97 127 134 146 153 134 119 137 108 115 153 151 159 119 90 89 76 74 66 59 71 90 96 98 94 102 97 90
150 132 78 152 127 139 112 94 202 70 216 138 130 146 200 240 158 97 83 69 75 90 120 117 129 124 120 120 133 129 143 165 132 144 120 79 81 73 74 70 63 80 98 93 100 92 98 107 108
159 158 116 49 99 118 70 -43 398 163 102 93 68 106 132 136 125 114 108 59 51 83 119 137 133 120 142 156 171 161 182 157 124 111 72 75 75 71 85 84 75 70 89 97 105 115 114 108 115
128 172 114 101 84 99 88 70 64 143 56 105 63 43 25 117 120 124 165 116 61 15 90 129 129 151 135 152 162 177 153 120 81 68 66 83 97 110 101 100 91 93 109 100 112 124 124 125 129
106 90 125 94 77 167 87 102 130 44 31 100 126 122 71 69 93 138 182 120 105 107 86 103 144 143 152 135 166 179 176 152 134 109 96 113 147 163 141 140 131 118 120 114 120 138 132 124 148
127 98 71 100 37 101 114 132 15 -6 -14 20 98 92 83 105 109 169 203 202 164 95 117 140 164 137 153 161 176 195 195 181 152 139 151 201 205 189 173 167 158 139 132 118 121 140 145 176 149
153 96 104 28 4 85 87 82 125 53 27 -42 42 51 73 48 89 74 188 258 191 126 142 182 168 181 187 192 191 203 189 193 185 181 217 203 194 203 168 164 160 152 154 155 159 162 162 169 167
126 252 280 164 125 63 18 34 153 42 8 45 30 45 54 55 78 107 106 209 196 228 173 187 195 205 215 231 215 197 208 208 244 218 214 193 204 186 167 172 166 162 159 154 154 162 156 144 150
175 275 277 270 218 80 96 65 88 166 59 74 80 108 47 62 87 102 82 100 126 142 159 163 147 151 178 193 209 211 197 187 184 175 194 208 203 183 164 179 159 151 148 154 160 159 155 157 163
170 141 173 144 107 188 178 92 85 81 62 107 165 183 226 193 163 170 143 135 122 135 171 165 172 170 181 148 149 155 172 217 216 201 204 188 204 196 213 199 187 144 141 145 159 161 156 159 152
147 193 141 142 156 163 170 177 90 96 105 127 126 169 152 158 167 150 146 119 113 106 141 156 169 189 172 167 182 167 190 223 229 242 230 186 214 227 223 188 131 119 116 137 153 147 144 164 165
109 127 207 218 140 156 166 114 113 115 182 202 183 134 143 157 160 165 152 110 88 94 95 125 127 142 167 170 215 316 385 288 209 251 238 345 330 208 149 150 156 157 168 171 161 144 153 156 164
126 112 142 128 133 148 164 177 20 53 98 89 79 79 50 44 53 59 79 103 80 62 80 116 154 165 190 240 276 278 406 424 401 357 353 329 337 219 157 147 159 167 181 177 155 132 138 148 152
94 84 124 73 148 166 127 162 72 127 84 55 16 48 63 31 35 28 -20 -6 40 49 78 94 127 158 184 238 275 274 274 290 318 287 254 246 245 247 201 182 167 168 171 174 167 145 159 129 144

GFSSGP_con_3kmhel_072.txt.gz
Helicity
139 109 126 181 228 271 154 147 135 142 112 77 107 95 51 102 152 174 98 58 87 90 52 47 45 38 33 29 22 7 -3 -0 24 11 8 2 12 16 24 22 30 27 33 25 24 18 -0 -4 -2
81 117 148 200 239 258 198 152 138 213 102 92 71 80 152 157 108 36 132 57 130 84 47 39 38 32 30 19 10 2 14 20 8 7 5 -0 2 16 41 40 29 23 14 9 3 -13 -19 -14 -18
95 135 168 232 214 188 170 151 72 124 172 344 144 49 89 184 128 105 108 84 135 88 43 29 28 22 13 4 -1 -9 3 -2 9 -0 -3 -5 -7 -4 7 13 11 -2 -2 -5 -15 -27 -28 -20 -14
129 181 210 262 208 145 151 119 108 10 133 -7 50 40 85 228 183 173 91 113 139 94 54 21 9 5 -1 -8 -16 -23 -18 -11 -0 -2 -10 -12 -17 -19 -22 -20 -14 -18 -13 -13 -23 -28 -28 -23 -19
142 222 224 232 169 153 145 151 265 85 118 -23 156 156 38 156 250 136 53 90 128 88 55 15 -7 -18 -22 -28 -37 -40 -43 -17 -1 -4 -10 -12 -17 -22 -26 -25 -21 -18 -18 -17 -23 -30 -34 -32 -22
216 217 232 185 118 111 156 79 130 150 141 175 132 292 162 -52 131 124 71 70 97 78 54 21 -13 -31 -37 -53 -68 -71 -70 -50 -10 -15 -18 -17 -19 -21 -25 -26 -24 -27 -26 -25 -22 -22 -24 -22 -14
162 264 209 117 132 116 122 91 141 56 113 216 243 302 179 29 41 118 61 40 75 86 80 50 21 -12 -32 -52 -73 -83 -93 -100 -62 -54 -58 -46 -42 -40 -37 -34 -33 -30 -23 -23 -16 -8 -4 2 3
182 203 199 135 116 157 120 139 135 151 176 350 277 156 97 32 229 117 93 102 68 65 75 80 61 24 -10 -40 -48 -53 -72 -92 -88 -64 -53 -57 -49 -44 -41 -42 -34 -18 -9 -3 5 13 18 24 25
181 138 170 128 130 161 140 121 160 121 208 346 309 221 174 -58 144 121 88 105 126 104 83 93 69 52 18 -12 -35 -27 -36 -49 -45 -5 -18 -32 -41 -28 -17 -20 -10 -3 6 12 14 27 36 40 34
200 136 172 132 153 183 147 109 157 118 169 287 299 255 155 73 144 288 315 126 102 81 90 96 81 62 39 14 -10 -15 -7 4 15 10 -9 -12 -6 -7 -3 5 12 15 17 27 34 37 40 45 42
202 130 142 140 147 202 178 218 176 164 173 153 149 222 189 205 180 340 237 204 191 94 79 38 75 61 57 37 11 11 6 15 20 24 18 14 19 22 27 31 31 34 34 28 30 30 34 31 36
208 94 121 125 144 105 131 334 187 248 160 100 96 184 221 190 215 165 267 292 246 80 62 45 56 73 61 49 26 11 20 24 20 29 42 38 39 49 48 41 39 38 36 35 33 35 28 23 23
110 198 106 121 121 99 128 208 239 200 194 203 196 211 145 154 241 199 241 166 159 86 92 74 78 69 102 77 48 36 28 35 19 40 51 64 71 56 65 34 35 28 30 26 27 35 33 23 27
69 107 179 123 98 77 131 135 272 204 161 127 143 152 155 171 242 263 223 217 132 138 25 265 101 88 122 102 81 50 34 43 60 64 66 67 87 73 60 48 34 26 31 29 33 39 41 34 44
143 95 141 177 106 123 87 177 215 204 185 131 108 127 139 146 190 200 215 225 175 134 114 130 156 109 100 99 85 67 55 61 80 71 73 79 84 85 76 61 49 31 29 38 39 45 55 56 62
146 194 104 114 125 162 111 86 324 278 216 171 135 129 158 171 134 142 120 136 173 176 167 119 208 132 113 122 127 116 93 77 47 73 87 89 107 96 84 71 59 47 52 57 60 65 66 60 60
199 146 114 148 135 106 87 174 234 264 256 211 155 122 140 141 123 106 108 114 108 125 151 198 163 120 110 156 172 144 118 116 89 95 114 92 128 96 101 84 64 61 66 65 72 72 78 76 75
170 146 100 162 127 108 88 118 336 438 332 229 186 145 131 133 96 80 61 87 94 97 136 152 163 141 132 132 148 138 130 124 140 132 138 111 108 98 94 87 70 73 81 75 83 75 77 75 76
228 146 101 -13 229 156 68 83 134 200 262 179 156 123 105 102 117 98 113 76 82 93 110 165 133 122 160 172 166 150 144 152 177 158 122 124 98 85 87 83 71 75 77 72 79 94 91 91 100
185 105 116 -84 -10 150 71 136 32 331 318 209 111 104 61 85 84 96 87 83 69 50 109 105 107 156 136 168 182 159 135 137 151 169 137 118 79 98 98 82 75 74 72 80 94 102 105 101 101
143 65 103 46 33 73 16 6 -10 51 158 83 81 53 43 70 60 84 121 94 92 86 58 71 89 123 135 136 198 184 168 165 183 149 134 100 97 110 104 108 105 104 111 111 116 127 110 93 111
99 86 72 57 176 77 76 29 -151 4 3 6 78 123 55 23 48 93 111 128 126 111 117 109 105 121 106 177 200 201 201 189 166 134 105 129 171 172 170 188 161 136 127 116 124 136 136 152 122
113 47 44 -107 57 181 243 121 104 101 22 -5 56 65 95 98 91 88 56 146 183 146 126 95 99 97 123 158 200 183 196 183 159 170 174 239 234 194 172 174 169 164 150 142 143 139 149 169 169
134 124 156 209 36 140 263 246 170 105 6 -2 35 61 77 60 67 72 41 67 131 199 193 195 136 115 146 157 145 156 157 180 135 174 278 291 219 180 167 172 160 154 150 139 148 174 158 151 160
107 208 149 97 -27 92 -43 169 87 66 127 95 56 51 56 64 94 105 74 55 85 136 144 136 136 129 131 154 179 161 187 189 202 132 213 249 239 224 200 169 143 149 148 158 169 136 123 130 149
124 98 105 140 107 75 68 55 90 74 131 90 104 97 124 141 130 129 108 92 103 88 106 108 115 123 136 118 114 137 156 209 227 238 220 190 199 215 200 160 140 142 142 137 172 118 120 134 138
139 186 146 105 160 124 74 115 120 127 151 150 174 173 166 179 151 131 148 154 131 90 67 82 114 139 138 124 125 127 125 160 203 189 178 173 184 182 185 251 411 320 195 154 153 140 126 155 160
72 111 145 173 139 128 110 101 81 99 117 108 118 120 123 122 130 117 100 106 108 103 107 99 104 95 109 114 141 165 212 238 275 206 193 196 265 243 235 245 207 252 191 148 125 111 140 150 143
152 137 152 132 121 86 127 136 103 90 86 101 104 121 158 202 214 191 117 88 90 69 52 50 77 94 105 131 144 180 223 268 315 376 384 382 380 357 308 245 198 192 187 166 163 154 148 146 127
91 97 105 116 129 131 123 119 82 34 17 103 143 163 148 128 116 95 58 16 -16 -4 35 46 60 73 94 125 155 176 208 238 266 281 279 295 279 249 225 197 197 178 179 185 183 169 161 134 126

GFSSGP_con_3kmhel_075.txt.gz
Helicity
104 94 140 188 266 268 193 204 185 174 269 144 85 26 74 118 153 174 53 64 112 107 62 47 54 59 49 38 27 20 14 24 6 -3 -1 4 -4 15 45 54 41 36 37 23 17 12 5 -1 -21
71 89 153 201 286 274 229 144 189 171 109 223 76 83 106 133 85 83 128 84 104 102 91 62 45 52 46 28 17 14 18 12 2 -8 -5 4 8 9 33 31 28 15 9 0 -3 -3 -11 -26 -39
136 99 186 239 262 265 164 148 29 109 59 343 174 51 87 118 117 87 150 69 124 100 88 58 45 37 27 19 4 9 16 8 -2 -11 -19 -12 10 39 29 20 7 -6 -15 -15 -13 -15 -23 -23 -20
162 156 202 230 263 197 139 126 117 229 181 182 94 101 27 37 148 149 123 110 131 95 86 56 39 25 11 7 -8 11 1 -3 -8 -16 -27 -26 -17 -2 -3 -6 -15 -23 -24 -20 -20 -24 -30 -25 -15
152 186 171 150 186 104 144 180 160 68 110 98 112 86 -23 41 127 164 120 123 119 90 90 60 39 22 8 -4 -26 -15 -14 -3 -13 -22 -30 -39 -41 -33 -30 -30 -36 -29 -23 -24 -27 -29 -26 -19 -10
225 206 178 132 92 84 144 142 142 196 125 63 100 86 93 88 128 131 147 104 116 75 91 57 30 17 4 -11 -29 -41 -27 -5 -11 -20 -23 -30 -40 -37 -34 -38 -38 -37 -37 -39 -39 -32 -26 -14 8
211 240 204 151 107 90 61 133 88 169 144 109 122 125 199 203 131 166 74 68 87 88 96 67 43 16 1 -17 -32 -55 -52 -16 -18 -30 -31 -30 -37 -41 -43 -44 -46 -45 -41 -40 -41 -36 -26 -11 5
203 235 121 118 82 97 95 123 69 79 150 249 292 91 185 224 267 21 77 55 75 70 86 97 74 38 14 -12 -39 -65 -78 -51 -58 -64 -61 -60 -59 -54 -47 -48 -43 -36 -31 -23 -22 -7 -3 9 17
215 220 129 94 72 78 138 94 100 145 133 312 312 55 95 198 158 -52 56 146 65 60 81 96 72 49 24 0 -24 -48 -73 -78 -58 -64 -61 -60 -68 -53 -42 -39 -19 -8 -3 1 4 12 14 21 23
246 227 113 59 207 36 153 128 120 137 181 276 320 215 170 117 3 7 -83 94 86 67 77 90 80 70 49 23 1 -12 -30 -43 -25 -40 -43 -43 -34 -26 -25 -16 -3 6 17 21 23 25 31 34 38
204 159 122 40 59 106 115 142 137 135 193 209 199 164 213 42 137 47 117 56 68 85 72 65 86 86 70 52 32 22 7 -1 -4 3 1 -2 4 5 12 9 12 16 16 29 31 25 32 31 37
180 105 161 102 124 41 68 139 160 146 141 89 136 164 234 209 94 128 158 161 197 49 52 56 71 75 70 78 49 36 26 19 16 12 16 24 29 29 32 35 32 35 32 27 26 29 24 22 27
124 141 111 126 135 93 64 81 151 179 205 128 183 197 130 131 186 152 174 239 113 -17 -87 50 80 71 67 78 72 62 37 29 19 35 28 46 46 43 51 42 44 39 39 35 31 27 24 22 25
60 72 147 123 111 80 99 116 121 178 209 159 110 148 139 147 215 224 222 239 206 12 -33 8 81 70 69 64 73 68 68 57 52 49 44 42 64 71 73 55 44 37 39 40 37 33 26 24 31
119 77 109 113 130 139 116 158 149 202 260 186 162 180 125 130 172 137 165 217 196 103 92 122 42 84 88 83 62 67 56 64 82 86 67 58 69 78 90 73 56 46 46 41 40 37 43 41 44
105 112 93 60 86 122 144 65 110 166 245 219 178 178 157 136 116 172 181 134 119 161 160 102 128 2 116 100 65 61 51 74 83 104 109 81 77 95 94 90 71 64 63 60 61 62 58 55 55
157 164 99 61 76 119 117 70 80 193 256 211 221 207 190 165 161 163 128 116 138 120 123 120 190 104 119 70 57 117 97 94 92 107 106 89 94 95 123 104 79 80 80 67 66 67 71 67 63
185 120 103 89 120 77 107 6 74 218 369 270 234 187 229 230 216 149 131 102 116 85 86 135 174 235 143 139 94 133 95 102 182 146 132 82 97 92 116 106 93 91 90 72 69 63 70 72 62
111 149 71 159 129 104 53 41 38 85 326 287 279 250 194 188 193 186 131 96 86 80 106 102 147 139 165 186 151 81 84 129 157 165 151 129 129 116 118 96 100 90 84 69 65 83 68 68 76
115 140 88 155 190 76 98 68 12 76 82 295 236 219 183 113 105 98 100 103 88 74 68 108 106 91 137 130 122 179 210 183 195 156 122 124 129 122 135 109 92 86 84 65 74 91 99 88 88
208 133 120 103 69 385 67 17 35 42 108 172 161 187 138 113 97 89 85 93 92 87 70 63 74 89 122 148 215 227 187 158 163 146 135 143 136 130 118 106 95 94 90 81 90 101 97 83 94
167 133 53 -8 71 -19 68 73 46 37 86 51 132 173 135 104 61 50 70 82 90 51 83 67 51 76 110 122 144 151 149 121 131 157 160 136 145 119 120 101 108 103 100 90 100 103 105 123 99
97 61 97 131 75 5 67 30 4 15 23 85 131 74 67 72 67 49 50 57 64 91 93 98 95 76 104 144 142 158 181 139 143 121 144 114 137 148 173 176 146 116 114 106 95 116 100 111 123
112 123 174 99 14 141 206 81 57 40 83 65 5 32 67 91 98 70 115 107 93 109 158 139 93 75 91 108 151 153 134 123 163 185 166 110 116 100 128 149 169 173 155 134 99 103 115 111 131
75 104 93 -51 -80 35 254 163 148 122 92 49 24 50 60 97 73 81 113 90 74 92 92 131 129 106 89 102 118 113 134 157 141 168 210 267 253 215 115 132 142 157 178 142 128 143 155 152 146
69 56 105 49 18 82 3 188 171 69 128 75 81 107 113 109 94 100 103 80 90 89 106 99 108 89 91 101 89 97 114 145 150 187 223 243 222 249 252 107 123 152 163 151 207 197 172 144 114
97 70 32 33 86 43 38 44 57 43 89 114 118 160 161 149 151 138 121 114 133 125 129 102 96 81 82 86 102 103 97 105 141 170 195 235 228 202 183 161 125 117 139 155 160 149 108 111 107
114 68 95 95 56 21 38 42 42 42 64 84 144 132 140 142 168 168 149 136 118 106 99 102 78 78 94 101 118 117 110 113 119 155 177 197 193 203 215 203 277 272 203 158 135 122 106 90 96
122 119 98 68 71 40 32 47 47 26 21 51 85 111 124 130 130 129 132 141 126 120 114 99 71 64 83 87 98 108 112 127 145 181 209 221 263 272 294 290 288 260 238 180 160 146 145 137 134
69 61 63 58 67 69 53 59 114 49 128 138 159 178 165 149 137 139 139 126 117 78 58 54 64 64 52 67 74 80 111 135 149 158 181 223 236 228 250 241 245 228 187 165 169 154 129 120 129

GFSSGP_con_3kmhel_078.txt.gz
Helicity
127 121 108 143 233 255 290 338 250 143 209 169 210 39 154 95 163 229 39 52 115 101 79 46 54 53 45 31 35 28 22 11 2 -6 -8 3 30 52 48 53 39 35 32 17 8 2 -3 -21 -31
127 145 164 184 250 291 265 222 239 169 144 197 330 142 78 92 49 38 43 68 94 100 80 54 41 54 46 33 29 22 23 3 -10 -15 -18 -2 19 37 44 43 27 18 9 -2 -5 -8 -23 -40 -43
125 149 186 204 220 257 245 180 139 244 155 136 245 213 142 133 33 38 74 102 125 110 87 57 43 48 40 29 19 19 11 -2 -15 -14 -12 -8 11 30 23 8 4 -4 -12 -20 -16 -20 -35 -38 -24
151 176 215 197 170 217 192 104 117 153 209 194 160 237 55 13 27 77 78 99 147 107 96 45 43 41 38 23 2 14 4 -2 -11 -11 -4 3 17 17 4 -7 -17 -24 -29 -30 -26 -30 -34 -29 -22
201 199 155 140 81 166 117 187 109 143 134 170 111 121 81 22 34 55 77 96 122 94 91 51 40 40 30 18 15 5 -3 -13 -15 -17 -21 -11 -4 -4 -25 -28 -30 -31 -32 -36 -37 -32 -29 -23 -19
213 222 146 101 95 77 68 138 155 145 156 141 139 65 151 101 28 97 80 77 115 98 91 63 44 39 30 18 6 -11 -11 -19 -23 -30 -38 -42 -38 -36 -40 -33 -34 -36 -40 -39 -39 -34 -28 -20 -6
189 244 102 166 106 70 56 112 144 95 126 71 134 51 222 109 92 54 125 87 101 110 108 82 65 45 31 21 9 -12 -16 -18 -20 -30 -43 -50 -50 -44 -44 -46 -46 -43 -39 -40 -37 -27 -15 3 13
201 233 113 184 126 -2 51 76 79 32 117 93 86 129 190 179 325 201 156 135 85 88 86 95 73 55 45 26 6 -0 -18 -17 -20 -31 -39 -49 -55 -58 -66 -68 -61 -50 -41 -25 -12 -0 9 16 32
208 209 100 100 130 40 -32 71 22 -22 82 117 190 158 207 293 314 398 262 290 170 87 75 81 69 50 42 28 10 -3 -24 -35 -36 -41 -49 -60 -76 -71 -60 -57 -42 -28 -16 -7 5 13 24 30 29
238 249 126 179 135 56 2 72 77 44 29 126 190 274 211 258 323 349 275 76 105 86 69 75 72 59 49 36 19 9 -6 -29 -38 -39 -43 -47 -53 -50 -43 -37 -14 -7 2 10 20 28 31 36 31
211 190 141 164 112 102 61 73 59 116 67 104 137 182 246 257 319 289 238 110 23 64 88 77 76 93 76 61 53 39 27 6 7 -15 -22 -20 -15 -13 -8 -4 7 15 22 29 37 37 40 37 36
229 109 116 134 148 67 62 116 105 107 57 118 86 227 267 308 220 198 80 -44 80 90 109 94 48 90 76 83 69 61 53 40 27 16 11 17 16 14 18 23 27 32 39 42 39 37 31 34 33
160 97 152 63 165 122 58 65 148 90 52 95 97 190 237 279 181 135 -37 -172 -28 86 115 2 156 53 77 78 78 77 69 66 61 55 38 43 33 30 39 38 44 42 46 41 39 38 35 32 29
144 50 50 111 158 60 90 64 85 47 95 125 114 130 162 243 220 128 141 142 103 32 86 46 75 57 101 123 64 63 72 74 82 73 58 53 55 57 59 58 50 47 49 43 41 38 36 31 29
89 95 105 86 141 86 63 114 26 47 88 170 169 93 134 149 162 170 236 121 24 57 -52 -242 -186 47 94 92 92 57 57 75 88 83 76 73 76 71 76 78 63 55 62 52 48 41 40 35 36
80 87 54 42 97 82 71 -18 13 34 63 229 230 198 88 142 199 71 78 141 39 80 35 -86 -216 5 149 115 84 89 41 52 62 76 91 78 72 90 98 95 79 78 73 71 63 54 48 48 46
129 41 45 26 67 106 39 -52 143 87 113 229 206 228 173 85 88 111 165 140 107 115 155 -21 3 -18 137 149 80 60 78 83 55 83 84 87 99 108 123 111 101 102 95 85 78 67 66 63 51
13 45 27 71 93 12 31 34 92 132 177 273 256 280 222 128 83 110 88 102 41 81 117 132 148 84 70 134 121 123 66 79 80 80 55 71 112 112 134 119 107 119 117 96 90 70 64 58 57
-9 44 44 128 121 33 44 126 149 115 130 255 376 336 265 161 122 111 80 127 108 83 124 97 167 12 -49 135 189 72 79 44 90 100 61 63 111 134 131 138 123 118 103 89 87 91 69 57 61
123 95 84 167 110 129 47 -10 -62 132 78 107 197 272 278 179 167 158 163 136 88 111 103 129 169 139 -20 108 146 39 -72 -10 97 103 96 110 123 155 142 116 106 119 108 92 89 85 87 73 67
103 105 81 79 138 107 21 -146 171 147 95 65 153 207 225 201 197 185 155 134 96 121 71 89 104 176 77 117 163 192 133 115 126 137 107 135 112 103 130 158 141 108 97 103 87 78 77 79 76
104 110 88 47 137 62 46 31 7 97 6 3 41 198 191 169 190 127 109 104 75 42 54 68 69 59 125 154 207 70 66 46 47 114 190 189 183 154 113 104 149 129 103 91 89 89 92 106 114
132 104 96 62 100 76 23 35 31 74 40 -4 24 181 134 140 145 118 81 68 66 64 57 60 61 66 67 101 129 192 157 160 131 95 133 149 126 140 86 91 108 120 110 112 79 115 118 115 106
55 160 178 146 90 7 -39 57 17 59 90 61 23 82 80 82 105 107 86 84 91 98 76 79 76 71 78 74 73 88 95 105 146 125 120 145 143 110 126 78 62 106 56 75 65 113 109 118 162
65 93 67 56 52 85 37 65 58 39 20 24 13 7 88 92 68 67 90 148 140 114 110 93 86 123 114 80 81 80 86 91 103 126 131 202 210 186 144 171 212 206 197 132 75 96 140 166 117
93 52 32 57 32 60 88 118 109 55 39 49 47 96 119 126 159 154 140 123 122 121 103 103 141 148 139 117 106 96 84 95 105 126 163 165 187 206 205 172 208 201 233 252 183 143 135 120 112
38 15 76 66 52 15 24 120 61 76 133 131 124 169 209 209 186 183 167 157 143 130 116 136 135 122 110 98 99 91 89 83 81 104 134 160 172 190 171 164 170 202 162 165 183 149 141 139 110
42 -0 27 -3 33 33 42 42 136 71 74 102 134 199 242 233 206 201 198 183 158 134 118 108 100 92 74 76 72 83 92 98 99 95 101 143 180 209 244 226 207 251 222 218 193 150 145 118 111
82 71 64 10 7 -11 -12 -5 31 48 36 61 133 159 178 195 204 204 197 181 163 152 143 129 116 98 91 88 89 99 99 98 95 96 105 120 148 156 185 195 209 198 231 235 200 178 178 140 125
27 33 11 28 30 36 20 13 66 38 78 73 99 122 141 160 167 164 145 138 147 130 109 83 70 67 68 72 82 87 90 96 100 104 115 139 168 203 225 247 251 217 213 203 209 202 175 139 141

GFSSGP_con_3kmhel_081.txt.gz
Helicity
71 75 111 144 211 249 256 367 271 212 164 213 304 207 200 178 194 200 45 42 70 104 66 39 51 52 38 40 34 34 28 23 14 -7 7 24 33 46 42 39 35 39 29 22 10 -0 -16 -21 -21
84 91 148 198 311 464 312 219 258 247 178 151 192 171 218 217 50 22 -7 32 67 87 65 44 42 46 45 34 27 25 18 10 -3 -21 -12 19 39 37 37 29 30 16 6 2 -0 -18 -37 -43 -37
87 107 206 254 294 342 263 228 170 235 164 120 211 260 227 151 44 -17 17 47 70 80 62 46 39 45 44 30 30 29 14 -8 -16 -23 -10 21 48 58 40 19 12 -3 -4 -5 -8 -30 -40 -31 -25
118 164 201 319 301 187 177 168 164 117 152 135 162 180 256 177 26 60 13 63 77 69 51 31 44 50 38 31 31 26 10 -10 -23 -4 -1 16 38 39 11 1 -7 -13 -16 -10 -15 -24 -26 -21 -17
144 224 298 325 228 185 161 133 179 132 87 121 102 99 165 218 48 6 21 59 63 66 47 35 53 54 34 36 33 26 10 -3 -18 2 12 25 31 12 3 -12 -18 -22 -18 -14 -22 -21 -16 -21 -13
191 228 325 263 200 125 109 109 133 143 123 86 110 90 128 188 240 205 39 48 54 73 60 46 41 54 38 37 34 28 7 1 -6 -14 13 20 16 4 -21 -23 -22 -24 -26 -24 -22 -21 -15 -10 -6
190 217 226 176 166 108 106 92 104 127 144 148 135 138 158 136 162 75 47 50 80 80 70 60 46 57 55 46 40 17 3 -2 -5 -18 -24 -17 -21 -28 -29 -25 -28 -31 -31 -31 -30 -26 -15 -1 10
155 195 179 172 160 71 101 91 61 113 129 94 92 93 123 177 290 282 240 95 164 129 87 67 61 55 46 41 30 18 8 -2 -5 -10 -19 -21 -47 -35 -33 -35 -33 -34 -32 -28 -22 -9 4 15 21
152 229 162 161 118 82 87 39 37 80 82 60 104 66 59 309 287 187 71 53 359 172 117 72 63 51 46 46 42 20 24 8 3 -0 -5 -8 -26 -41 -41 -35 -31 -24 -8 1 10 18 23 32 36
181 240 166 167 109 100 129 78 54 88 67 76 124 59 92 282 260 217 179 177 68 216 117 63 58 52 42 52 45 45 26 5 -0 -12 -21 -28 -32 -32 -35 -25 -14 -5 7 23 27 37 47 40 34
194 133 116 154 184 130 59 19 38 67 56 69 61 15 108 214 330 261 109 109 181 171 107 51 55 76 52 50 56 58 47 29 -3 -11 -18 -15 -18 -24 -23 -9 6 14 19 31 37 40 39 41 37
159 57 74 59 114 148 118 61 78 87 45 9 -1 -14 128 233 264 270 197 226 256 207 107 97 80 82 67 59 52 58 50 34 25 6 -2 3 5 5 13 17 21 27 31 34 39 39 40 39 35
132 40 69 53 67 89 126 93 77 71 111 78 68 -32 58 187 187 369 369 323 274 292 118 69 74 46 64 62 60 60 59 56 40 30 22 30 27 22 28 28 33 36 40 40 41 36 38 35 29
124 81 51 52 86 99 133 49 71 15 58 114 86 59 80 187 229 260 345 136 177 79 185 81 68 41 36 63 64 65 71 70 72 62 53 36 42 40 40 41 40 41 45 51 50 43 38 30 24
62 71 83 58 32 79 168 57 40 50 56 142 108 4 69 187 180 293 391 221 48 -34 -31 166 80 39 46 88 74 71 69 75 71 77 57 49 49 45 49 52 50 50 58 58 63 56 44 34 26
44 75 76 24 29 88 138 38 35 19 59 76 127 -19 38 129 192 261 246 199 47 -50 -35 65 217 137 51 68 89 87 82 72 65 71 68 54 53 51 60 62 53 68 77 71 73 69 55 46 42
66 97 55 48 41 73 86 28 1 58 24 73 63 12 80 61 115 206 172 179 75 -26 -43 -28 105 55 84 51 62 91 46 84 84 74 56 56 50 53 62 68 76 84 89 86 84 83 70 62 55
90 50 30 30 34 44 51 67 5 31 15 82 92 60 110 169 184 212 124 151 75 38 -7 -47 -28 -61 137 131 138 26 64 74 92 96 83 35 41 53 68 71 80 94 103 108 104 87 70 73 61
-39 17 5 42 84 51 18 74 1 115 29 22 89 153 209 212 166 4 174 134 55 40 60 22 29 -4 38 163 173 85 54 89 51 75 83 79 45 30 56 62 112 116 106 99 98 118 92 77 70
64 43 11 9 79 37 25 35 23 -45 124 133 65 175 204 273 250 121 12 110 115 44 60 -18 49 93 50 118 92 41 142 72 -26 29 50 65 69 95 51 87 110 141 116 103 116 113 126 96 86
72 71 -35 88 84 108 44 -19 -79 -1 -16 -12 127 99 182 237 222 139 20 -1 36 50 43 28 54 32 92 173 139 60 -5 25 133 50 78 68 103 69 99 76 98 128 146 107 105 111 113 116 117
75 23 99 20 86 125 157 14 -40 -6 29 47 91 84 135 175 204 144 89 55 83 71 83 -8 -22 179 71 151 188 132 32 43 -19 63 40 8 49 150 122 97 111 123 143 119 111 101 92 100 109
90 14 30 50 83 32 118 13 5 -72 76 65 47 49 107 155 158 151 117 118 109 89 43 38 35 88 114 125 49 151 164 121 9 62 40 59 84 91 107 134 143 135 123 146 160 161 148 135 89
102 62 99 51 51 51 56 42 -1 29 135 153 71 -22 110 95 239 207 122 85 65 60 65 58 46 63 62 70 95 87 116 157 118 29 98 114 106 112 120 154 193 212 161 186 128 137 137 138 116
59 40 76 50 72 66 44 3 33 55 29 37 56 45 110 147 178 184 119 84 110 127 126 111 118 122 108 95 89 77 66 80 97 137 129 138 139 188 155 157 163 177 170 145 128 150 128 141 150
51 5 69 76 76 69 41 43 69 61 25 27 85 134 225 175 153 226 159 107 161 191 180 142 140 149 149 148 162 134 111 106 102 92 116 125 159 166 147 164 184 217 150 150 148 162 212 193 110
22 48 52 45 73 52 62 69 82 99 99 113 133 152 172 167 126 83 172 204 199 184 185 172 159 130 147 157 143 123 115 105 90 77 79 105 129 151 168 172 172 172 169 150 143 130 133 104 107
111 101 55 34 57 43 62 88 103 103 92 87 166 194 211 276 238 224 226 221 185 155 133 123 121 132 126 121 120 104 105 96 87 86 79 83 105 123 155 199 208 215 164 166 184 161 143 137 146
28 19 33 -19 -34 -39 12 2 35 -14 3 46 100 151 144 176 199 197 197 182 148 126 125 113 110 105 115 110 97 92 93 95 97 96 108 109 120 135 158 179 209 209 206 185 177 181 166 168 157
52 63 50 -20 -6 -5 -15 -50 37 -23 9 30 84 110 139 167 175 171 161 155 160 138 116 104 90 78 74 70 85 92 92 93 96 94 91 95 102 116 144 190 216 223 216 220 202 197 180 169 172

GFSSGP_con_3kmhel_084.txt.gz
Helicity
97 74 97 144 242 425 353 354 262 213 152 128 183 211 145 309 179 223 65 31 39 74 84 58 48 65 61 45 36 34 33 7 5 8 -1 28 51 53 35 36 37 34 32 24 15 24 15 10 6
88 99 127 183 356 327 410 194 220 193 180 170 150 237 203 254 123 136 31 4 55 77 81 55 45 56 56 46 35 29 29 21 -21 -20 2 36 57 50 39 39 35 28 22 16 8 -1 -10 -4 -6
98 116 171 298 317 284 349 177 143 117 212 175 108 183 166 212 84 50 2 -29 65 68 62 70 48 51 56 39 39 33 25 18 -22 -21 11 35 54 47 39 34 22 20 28 3 -2 -16 -22 -16 -14
101 137 179 299 323 249 148 75 80 63 145 150 190 118 114 242 106 64 -84 -14 78 71 46 80 49 50 56 40 39 38 23 7 -5 -23 6 36 51 46 44 41 24 24 17 6 -4 -12 -9 -7 -5
115 187 238 281 252 161 104 58 67 79 168 155 139 145 96 160 211 1 -76 -2 52 75 39 44 44 51 54 39 49 45 24 5 9 13 9 48 64 45 34 31 25 8 16 8 2 -1 -2 -2 -1
179 223 295 250 225 147 148 81 53 38 105 147 167 171 74 66 143 133 14 55 44 56 44 46 47 46 47 61 58 45 31 11 18 43 24 37 43 33 20 14 7 2 7 2 1 2 0 -2 4
156 187 211 180 195 131 143 62 65 43 39 77 117 112 71 29 78 138 269 348 177 67 54 51 54 43 56 67 61 45 34 26 39 59 61 64 57 28 11 7 2 -3 -5 0 1 4 6 11 11
143 187 222 182 181 125 102 57 66 34 25 82 143 129 105 16 90 181 227 367 138 142 56 55 62 51 46 41 64 44 43 46 63 67 67 55 35 15 11 9 -3 -7 -4 -4 -6 2 13 24 27
138 242 291 189 117 110 47 64 42 49 54 89 166 134 111 43 145 177 205 213 466 122 256 71 62 48 48 36 58 48 46 51 59 60 78 25 -8 -9 0 14 -5 1 -8 -10 -3 16 27 34 36
157 219 205 111 115 121 97 65 59 54 42 74 86 119 138 16 25 90 142 246 360 286 -4 214 62 54 53 60 46 37 39 36 27 9 -1 -7 -1 -1 -9 0 -2 1 5 14 17 26 33 10 22
151 159 117 144 180 197 127 98 58 37 28 76 75 86 69 11 5 81 154 91 29 195 192 227 67 61 54 60 60 80 52 52 51 30 16 10 9 5 -3 -7 -6 -8 2 11 17 24 14 21 23
156 104 97 93 109 167 112 137 142 97 107 93 178 110 80 48 33 55 118 122 -47 -114 115 158 59 59 67 81 67 58 63 53 49 35 16 10 4 -3 -7 -6 1 14 22 24 27 30 32 31 26
94 70 81 72 84 80 107 78 93 92 108 91 87 114 81 69 65 58 122 170 52 -32 102 22 26 87 87 83 74 58 52 39 42 29 16 12 6 4 13 24 31 35 41 38 39 36 36 32 28
188 124 91 74 45 33 86 89 135 35 75 70 74 75 -33 74 60 59 91 132 99 68 91 186 183 17 110 85 72 66 54 45 27 31 31 32 42 43 45 46 46 46 48 52 53 48 41 38 33
105 146 117 75 46 9 15 61 51 45 74 55 65 92 64 11 14 70 116 168 76 72 88 189 254 37 51 61 61 69 64 54 44 52 47 49 53 53 48 51 53 55 59 56 61 58 57 51 44
64 78 137 49 40 39 24 37 39 38 53 58 62 85 69 44 22 40 92 181 79 131 227 90 236 107 67 49 56 64 68 68 69 69 61 53 54 59 54 60 58 61 62 72 73 69 64 59 56
56 30 32 38 40 40 35 71 56 101 64 31 31 55 61 78 45 29 94 48 5 152 126 99 230 66 81 60 56 59 62 80 78 75 67 59 59 53 53 57 58 66 74 76 83 84 83 81 74
9 25 10 10 27 10 35 61 126 76 52 28 28 29 25 22 94 22 103 89 93 114 96 81 165 135 145 118 81 96 76 61 79 90 79 59 59 43 53 63 68 76 86 85 87 89 94 96 99
20 -3 2 -6 33 47 26 43 62 83 111 47 37 37 18 -77 69 75 236 216 106 108 30 -27 -54 70 52 102 86 111 90 62 67 59 64 60 71 61 48 61 73 84 76 75 75 94 122 131 132
67 91 42 73 67 43 42 62 80 89 82 101 73 56 -4 -118 12 112 94 321 136 147 22 -23 -38 68 92 224 184 131 134 121 96 46 52 50 54 55 70 62 83 82 87 77 95 118 139 141 154
98 115 51 53 47 33 35 83 82 94 6 7 59 78 126 44 -21 184 175 65 334 111 106 88 43 110 85 163 144 108 78 97 119 27 40 17 37 50 34 57 101 91 92 91 97 89 87 118 156
87 133 60 71 46 42 59 78 89 27 -3 -57 -17 3 82 111 140 113 128 128 -64 216 67 28 77 39 47 70 33 209 189 5 -11 59 116 48 84 39 50 77 99 79 97 122 131 128 152 132 108
75 159 121 15 57 34 57 63 2 -28 -68 -118 -7 69 6 23 157 188 87 -31 -89 -83 -39 -52 -17 -15 20 16 37 96 61 57 70 191 49 44 133 105 93 90 108 107 108 159 167 207 252 235 168
35 41 42 36 16 86 79 80 27 54 21 41 9 93 -9 46 164 184 109 46 45 21 -5 -6 -6 18 17 -8 15 82 172 71 107 128 -5 52 175 64 75 88 81 140 176 191 203 265 200 208 189
72 77 21 43 81 44 71 93 41 66 101 93 90 76 40 116 137 196 95 82 112 45 29 50 46 67 58 38 37 57 53 76 136 130 62 -11 -16 17 -13 97 138 189 183 153 144 142 165 100 109
2 72 68 59 85 69 102 47 51 58 25 61 95 95 78 144 236 152 149 187 65 65 110 121 121 134 145 128 130 116 68 94 79 66 70 89 84 116 121 178 175 151 114 116 162 171 164 135 104
17 70 115 45 58 63 55 71 130 41 60 79 70 114 168 179 236 201 132 269 58 96 132 144 143 146 165 177 173 161 153 122 95 96 96 101 120 151 135 166 167 147 162 154 169 162 179 162 115
102 110 94 13 21 40 28 22 34 67 47 39 53 103 108 189 236 195 168 162 133 125 128 129 130 134 127 127 133 134 136 127 115 106 96 88 96 110 108 125 139 174 199 165 143 116 121 124 108
150 111 77 32 -32 -14 -13 26 42 34 7 45 58 83 110 197 210 149 158 113 117 146 155 146 138 128 130 116 106 101 103 110 114 105 93 86 101 118 127 143 167 168 160 156 150 135 134 126 124
163 124 94 32 -9 -4 -48 -60 12 5 26 23 58 61 76 106 99 104 82 97 154 161 152 144 143 131 124 116 109 93 86 93 101 114 130 127 115 117 125 152 181 184 185 193 193 202 189 171 165

GFSSGP_con_3kmhel_087.txt.gz
Helicity
66 39 64 100 182 253 153 120 20 57 51 55 32 67 79 73 123 206 74 33 56 84 93 79 86 64 46 37 35 31 27 30 50 56 49 31 43 51 49 30 33 35 33 48 42 44 30 22 12
71 60 89 123 222 171 137 35 35 29 38 48 -41 132 170 131 106 77 36 17 38 163 118 74 85 74 55 42 38 37 27 15 21 20 24 39 63 60 38 40 38 37 45 46 50 36 20 15 6
88 64 117 202 173 151 105 43 24 80 11 76 52 114 68 134 138 161 65 -34 -12 144 72 117 85 75 54 42 35 35 32 9 6 -18 7 36 62 57 43 42 29 46 50 41 35 14 9 6 6
78 90 152 175 161 71 20 20 33 49 33 47 51 56 95 153 157 134 5 -107 -67 89 87 124 84 62 58 40 38 33 34 32 -1 -13 17 56 80 54 53 49 50 49 34 33 15 6 4 10 7
90 121 185 173 129 101 56 17 -13 68 24 22 43 50 82 155 145 86 38 66 -32 52 116 60 83 74 60 43 45 43 34 33 19 -3 32 53 70 63 65 58 67 60 50 28 21 18 15 8 11
153 174 185 147 98 69 54 6 67 10 38 3 43 32 66 122 111 131 72 20 198 102 94 50 75 60 54 46 50 53 44 36 41 9 29 67 75 63 72 67 57 55 37 33 32 18 12 8 12
133 144 138 132 155 97 48 13 52 35 20 46 8 58 23 83 67 77 102 184 284 292 149 89 59 65 65 48 57 61 48 47 51 51 46 97 89 63 46 49 43 37 32 31 21 14 8 8 13
127 134 117 124 146 122 40 25 20 45 17 17 12 6 74 48 140 146 142 179 334 565 163 258 88 42 36 43 66 68 55 68 79 91 114 143 84 60 47 37 35 30 24 24 20 15 14 17 21
105 184 135 114 118 104 51 46 32 35 34 31 12 -6 52 66 268 148 126 143 221 286 213 84 246 70 29 56 69 82 71 78 114 97 81 88 84 40 39 42 51 34 24 14 12 15 23 25 29
118 159 111 110 94 104 47 66 41 19 46 52 68 23 39 41 152 41 32 95 112 169 214 295 110 235 71 106 69 71 61 60 87 83 62 62 18 15 29 47 40 42 24 14 10 20 24 7 21
115 113 150 126 80 168 243 236 151 66 69 45 51 41 34 59 46 62 19 24 69 159 280 160 -1 109 73 132 111 93 79 82 91 84 59 70 52 61 50 33 35 21 6 6 17 23 15 13 20
108 113 136 130 172 165 139 150 158 176 92 24 64 111 150 51 0 30 23 19 27 74 131 124 -31 73 96 192 117 97 75 81 95 98 48 45 76 58 40 31 17 2 11 1 10 22 15 26 22
135 116 114 134 145 178 190 132 127 137 119 69 60 67 101 128 62 45 26 61 52 29 -2 105 94 142 40 137 92 83 80 76 77 96 96 77 68 65 53 30 16 20 23 29 31 34 37 27 22
148 221 203 172 146 147 135 111 103 66 68 103 130 105 79 132 128 73 39 80 58 43 -13 64 95 205 267 151 129 77 78 72 59 75 81 62 70 69 60 45 39 44 51 51 44 35 38 40 36
116 140 110 85 64 58 55 100 91 60 86 94 60 64 58 103 138 65 35 35 87 42 19 43 69 205 314 134 177 112 71 74 95 61 55 57 54 50 53 59 62 56 53 49 56 57 59 50 45
49 58 96 63 38 38 54 136 88 42 51 52 70 67 72 98 49 86 26 49 20 0 0 11 70 98 181 282 130 68 88 88 82 87 77 58 56 55 61 65 62 63 63 67 66 64 67 64 59
12 0 6 22 25 72 73 107 64 68 84 47 51 58 69 61 115 167 13 54 95 72 36 61 102 95 129 122 100 50 57 90 99 79 81 74 71 71 82 82 75 55 74 57 65 71 68 72 79
-27 0 -22 -14 26 20 39 48 58 124 1 72 54 55 56 68 47 134 77 -10 9 59 13 12 48 112 114 95 91 66 82 75 94 127 107 62 85 83 81 84 78 62 73 60 67 63 76 83 83
5 -17 -37 -15 0 49 66 22 82 81 102 93 50 80 68 74 30 105 102 35 64 68 74 22 72 175 264 151 151 99 103 110 105 109 102 107 95 78 75 81 67 71 80 53 55 68 83 101 118
91 39 -15 8 23 43 19 17 46 26 60 86 91 82 49 50 3 57 171 243 237 211 225 84 71 167 263 188 110 75 95 129 116 113 93 87 105 98 112 97 90 94 78 102 81 86 110 120 119
114 140 87 69 16 17 6 2 26 24 57 38 56 70 44 76 -9 32 76 126 173 270 241 102 90 103 102 97 122 113 148 122 171 143 132 88 81 76 74 72 80 103 164 165 123 106 107 142 148
262 214 195 64 10 15 20 -2 42 45 89 20 26 26 14 28 34 24 -23 6 -28 49 214 92 124 114 83 82 160 97 171 154 121 103 180 97 51 40 58 78 61 70 85 75 92 111 111 141 154
192 91 9 43 66 20 35 27 45 58 47 8 -19 -1 -6 61 68 40 63 47 126 54 187 216 113 65 65 57 58 164 139 134 137 114 156 114 58 19 43 63 84 100 57 20 4 106 104 137 262
41 14 -8 -9 -18 51 47 76 38 38 63 41 30 7 -4 45 50 171 158 48 53 42 -39 124 42 129 40 64 19 84 160 84 58 70 140 110 60 32 -41 117 156 146 122 69 201 207 182 119 181
84 61 65 85 32 22 -6 33 89 70 57 57 55 -46 36 181 88 102 76 67 38 -30 -38 -15 14 -13 77 10 -33 16 -13 21 -24 -56 46 132 121 155 32 89 111 138 112 164 180 153 133 132 162
87 39 30 60 60 24 25 45 55 34 14 19 97 118 125 260 106 150 128 137 84 104 79 55 82 104 15 -10 55 48 75 22 30 -64 -65 -54 -54 27 36 46 28 36 78 153 159 138 124 110 108
50 33 101 111 71 96 83 55 -8 62 111 107 142 147 123 235 76 134 165 184 145 58 29 38 33 57 71 73 94 108 82 6 46 45 31 38 48 65 66 115 116 81 89 142 139 168 113 134 140
92 109 116 158 81 46 41 42 31 29 65 25 53 133 125 171 208 217 198 196 104 78 47 53 84 113 130 125 120 129 130 129 111 96 75 70 60 70 88 137 139 158 194 203 210 207 178 171 168
167 99 157 168 66 59 35 41 69 78 14 25 64 115 170 182 175 201 168 117 70 64 69 69 110 115 125 130 128 128 119 116 115 104 97 96 89 77 91 112 147 201 238 235 213 187 161 140 127
116 152 113 45 -10 41 2 21 32 17 -13 -8 24 31 82 76 109 71 34 24 23 47 65 103 112 115 113 106 97 96 98 113 116 110 109 110 108 113 120 141 153 188 189 194 186 170 167 164 164

GFSSGP_con_3kmhel_090.txt.gz
Helicity
58 64 89 158 215 253 242 173 69 2 33 -11 -4 44 60 109 117 132 46 77 157 132 82 134 105 82 72 62 55 53 63 61 56 52 45 34 42 45 50 33 23 29 71 74 72 57 39 48 36
96 125 113 198 257 258 235 111 62 40 40 55 107 119 83 101 88 95 142 64 92 143 91 133 90 85 66 59 50 43 46 54 56 49 40 37 45 55 56 36 23 42 70 72 58 44 44 35 23
99 99 157 244 226 209 224 103 45 12 12 81 125 117 79 149 65 111 100 20 169 194 61 127 73 77 66 54 48 50 44 41 38 35 29 34 43 59 48 37 38 72 100 87 63 46 37 21 11
117 150 214 225 179 111 68 15 5 40 28 142 115 151 75 119 193 177 64 20 91 85 116 158 90 65 61 58 48 46 46 26 25 -6 9 40 55 79 56 39 43 96 92 70 53 40 34 22 10
115 184 207 179 136 100 102 70 45 85 49 60 84 25 52 195 143 106 75 6 89 84 76 120 86 67 53 49 48 46 52 25 21 -9 11 47 73 71 76 65 72 66 63 44 30 26 29 23 17
191 206 210 157 119 121 98 71 109 100 30 72 64 39 78 161 227 186 140 125 139 88 87 110 129 75 51 50 59 54 57 37 17 11 27 74 94 82 60 70 68 59 54 35 34 32 24 23 18
182 165 148 151 167 172 47 28 77 155 106 45 51 66 83 130 115 124 134 261 341 387 356 468 191 90 75 67 61 59 59 38 46 30 48 90 109 85 49 60 84 75 62 53 40 22 17 17 17
146 193 138 139 169 170 108 84 64 61 95 38 15 87 78 26 133 219 254 284 315 320 319 422 261 132 70 76 61 65 66 60 76 43 88 132 137 81 61 71 75 65 63 55 43 21 14 14 14
131 212 180 133 160 159 97 130 70 67 67 53 38 64 73 -7 188 165 201 186 242 217 191 229 347 243 276 114 86 80 74 77 98 146 186 175 135 96 79 81 72 73 65 48 36 24 20 19 19
124 160 124 99 111 125 94 78 100 132 95 109 87 60 66 54 113 84 95 92 117 141 113 172 277 309 142 194 95 94 91 110 110 121 150 228 135 108 99 80 78 76 62 44 30 23 17 14 16
121 97 78 122 128 134 159 142 128 211 256 194 62 67 77 72 73 147 79 100 55 144 66 92 243 201 65 108 237 78 116 103 116 112 58 77 39 54 145 116 104 109 68 46 35 27 15 -0 2
98 89 113 121 147 186 239 232 217 211 204 125 136 187 110 141 151 104 66 84 108 130 52 81 149 183 -60 4 -3 125 137 115 121 119 100 85 133 133 120 118 88 79 51 26 21 29 11 5 27
130 98 88 116 156 170 187 238 216 183 107 163 163 93 211 130 124 88 131 79 140 139 88 44 68 205 173 134 -15 98 108 107 125 124 130 138 153 141 110 92 79 51 39 7 26 34 26 28 39
142 172 145 166 208 218 192 186 226 140 116 128 156 129 70 153 77 145 105 76 108 153 87 77 67 161 166 112 87 65 67 91 146 166 151 187 225 146 94 105 70 43 59 37 56 53 56 48 39
121 101 97 106 77 73 62 98 115 121 99 89 142 91 137 137 101 164 76 -11 78 102 95 62 104 90 98 155 129 91 57 57 112 124 154 174 173 118 135 143 124 89 91 84 70 54 54 64 63
25 31 73 37 21 51 60 73 88 66 88 95 72 85 128 128 72 77 125 105 107 89 128 104 64 85 89 113 213 185 192 64 47 89 86 107 126 113 134 133 112 95 84 73 79 79 79 74 67
39 -14 -28 -30 14 39 47 71 47 62 66 77 116 66 73 146 100 55 116 143 112 70 44 149 83 113 65 84 165 164 172 220 74 61 80 80 122 115 129 106 84 73 79 93 87 87 85 72 72
20 5 -38 -37 11 50 50 33 36 12 89 137 47 93 75 64 90 88 109 159 167 112 58 93 135 86 58 78 108 78 153 142 144 76 84 96 123 119 127 121 104 95 96 94 90 80 73 75 68
68 9 -31 -36 -4 34 10 -15 -7 31 15 98 94 52 63 76 172 133 127 88 102 128 61 79 84 36 132 118 94 100 172 117 132 159 108 90 100 125 119 126 114 105 101 93 71 80 69 75 77
90 89 114 52 39 36 14 -6 16 30 67 54 83 74 139 174 147 101 114 186 205 187 179 106 63 5 125 116 92 51 65 65 93 158 177 151 102 106 107 104 99 96 98 89 95 87 93 82 103
176 263 265 190 4 -24 2 -7 21 14 15 60 38 88 113 112 61 28 75 125 150 136 113 135 94 68 73 83 185 50 36 117 122 111 136 122 142 114 126 126 118 115 134 135 143 146 144 114 112
188 113 202 169 53 -21 49 -6 57 -23 40 69 56 47 53 86 112 55 57 77 88 69 47 9 133 163 100 137 154 103 81 83 109 131 178 149 166 137 126 97 140 122 119 130 149 136 123 133 131
135 86 60 52 36 33 3 40 33 20 22 69 33 27 75 111 69 71 76 53 82 87 55 112 191 115 85 143 96 123 222 88 152 124 214 230 207 201 163 85 73 83 104 109 73 81 87 99 82
65 47 36 63 74 107 51 -6 -5 -1 36 33 19 68 195 134 93 100 153 138 124 125 174 144 111 92 164 93 48 68 154 83 201 32 140 118 207 177 95 26 60 111 93 146 116 53 24 26 79
75 102 95 93 93 35 59 63 -25 56 79 59 75 201 147 127 94 96 145 176 167 159 91 140 28 163 131 85 96 87 64 103 128 106 47 112 134 118 115 60 80 104 109 214 206 193 83 91 179
65 21 27 72 86 106 -11 5 -12 136 10 35 120 262 199 159 131 112 139 154 139 128 102 42 68 103 139 113 164 26 27 44 15 33 43 87 -16 66 97 52 160 115 69 156 142 184 207 172 299
61 69 98 62 101 95 28 65 59 52 153 127 184 135 95 93 87 137 119 104 118 134 99 75 13 -4 -39 -39 -7 -31 -44 -91 -40 -41 -13 -1 23 -14 3 43 70 85 78 111 98 84 125 146 135
166 176 92 191 103 100 119 142 97 56 47 177 175 155 131 146 160 72 90 117 147 82 39 12 40 29 54 44 38 41 55 29 13 43 17 3 -10 21 -14 94 111 100 95 136 115 64 132 124 118
155 185 229 126 175 122 108 172 147 38 22 9 79 107 132 131 179 112 124 134 141 67 19 29 35 49 61 69 65 73 83 89 103 94 95 81 65 74 30 21 54 104 118 177 206 192 190 182 221
129 172 110 74 130 100 40 109 103 46 19 -22 26 85 79 106 143 150 71 13 31 38 42 65 76 79 94 99 89 90 93 93 90 94 90 89 90 84 67 63 51 92 150 186 218 232 208 188 157

GFSSGP_con_3kmhel_093.txt.gz
Helicity
76 85 149 226 217 238 237 226 135 93 91 26 -35 2 -17 24 19 2 111 100 156 113 80 118 124 129 110 91 82 82 82 59 60 62 48 45 38 49 47 41 24 32 75 101 114 105 77 56 47
75 135 218 268 250 285 220 133 95 23 3 34 81 55 36 -24 70 86 166 57 155 122 93 132 130 128 116 89 70 72 70 70 57 52 48 40 44 48 54 41 26 62 101 120 106 87 56 42 38
106 152 270 238 245 253 201 131 99 170 97 36 87 41 38 110 60 31 112 62 149 88 92 123 134 116 101 81 70 60 59 70 63 50 38 48 52 52 66 35 33 80 105 120 103 58 41 27 20
199 248 245 231 195 149 103 64 -4 147 91 146 66 102 77 83 87 73 113 159 151 76 54 107 140 111 92 76 61 56 49 51 50 50 38 42 37 58 71 39 80 112 94 103 83 61 34 17 7
224 273 230 207 148 113 49 109 218 171 123 127 50 71 66 80 60 57 118 150 130 63 83 87 124 107 92 63 55 52 53 44 39 33 13 22 35 72 80 67 77 111 109 99 69 57 31 17 7
268 263 224 166 128 114 126 94 216 166 98 87 109 86 76 31 47 43 154 233 154 164 101 92 96 106 93 68 54 57 62 46 28 2 -6 28 60 94 78 55 94 78 73 76 58 49 30 22 14
210 255 181 167 158 138 145 145 84 118 92 117 63 132 71 47 80 240 280 305 277 218 212 154 137 134 114 87 69 69 76 44 53 19 25 44 87 105 96 73 69 78 79 50 54 39 29 25 17
190 234 201 191 149 111 108 145 109 117 120 13 -18 127 126 87 130 185 233 238 261 275 262 232 230 246 280 187 91 78 90 71 61 49 51 81 111 117 65 85 73 76 83 76 58 32 26 23 18
210 236 232 189 157 102 101 181 20 -11 26 43 1 35 -75 -45 77 135 125 140 175 260 257 248 247 218 212 178 117 106 77 98 100 87 126 144 156 106 88 97 98 84 87 87 62 35 27 24 18
246 213 178 167 127 150 147 87 99 61 123 125 104 304 216 -27 26 98 94 89 88 139 219 226 192 194 209 277 230 197 96 85 96 141 185 203 175 137 112 124 110 79 82 67 47 38 31 26 21
200 185 138 117 119 146 160 141 88 143 146 179 165 207 347 232 110 93 72 65 70 123 175 128 165 179 234 291 371 203 122 92 89 116 219 252 219 180 150 144 114 102 85 76 63 52 35 21 22
166 133 150 159 131 110 145 121 70 121 152 101 106 151 242 347 260 124 128 99 103 97 158 168 148 158 179 133 135 192 142 141 74 103 129 196 201 164 158 146 142 135 109 74 59 42 26 17 16
148 167 186 218 224 161 112 122 132 75 111 62 63 143 219 327 305 281 146 131 128 79 116 178 207 140 198 164 126 79 147 20 76 117 125 106 173 238 120 139 131 131 102 69 53 39 31 19 24
115 96 103 139 148 129 117 57 72 100 36 89 26 82 168 207 230 196 166 108 86 89 111 96 124 166 142 144 105 130 56 -0 105 124 106 122 156 103 134 122 119 118 82 59 52 42 46 33 32
103 102 80 17 47 73 67 78 139 93 86 45 19 7 68 104 156 202 124 72 100 105 94 77 60 92 128 120 102 173 135 53 82 121 102 123 162 166 131 119 113 94 76 61 70 60 69 58 49
96 111 79 23 37 56 123 79 72 70 91 87 97 47 23 41 66 76 134 34 66 133 117 120 67 52 52 75 117 112 102 121 24 113 102 125 151 166 139 138 117 114 125 99 90 102 82 63 64
89 82 47 14 39 57 69 137 71 52 41 26 61 104 129 128 102 105 118 38 49 170 147 114 116 88 45 99 140 121 117 130 198 205 164 97 145 128 152 157 151 151 146 128 117 104 99 86 83
82 79 81 52 79 43 -3 -26 -23 6 45 67 88 87 120 146 164 123 171 86 66 192 208 150 118 91 56 116 101 86 100 92 155 156 129 114 115 111 136 167 150 150 142 117 118 112 103 91 75
113 78 72 128 102 68 4 -51 -34 -7 -2 1 80 131 139 134 147 131 195 101 118 151 164 145 129 92 147 121 140 88 96 85 123 155 85 23 83 103 125 153 148 144 124 108 105 110 95 81 85
82 93 183 280 116 81 59 -28 -22 -1 4 4 24 68 117 120 158 166 153 150 99 129 133 130 122 93 99 149 126 77 93 73 69 100 113 64 50 82 139 134 146 144 144 117 120 123 130 101 100
88 173 235 235 128 109 134 17 65 67 49 -0 15 133 23 116 168 131 98 104 129 137 116 103 114 52 44 117 177 85 54 30 60 69 88 88 41 93 93 112 154 146 137 134 139 137 126 128 112
124 69 126 125 74 100 124 -41 27 25 -7 -17 56 80 36 77 104 81 71 79 118 150 165 108 85 53 58 33 107 98 97 104 59 73 66 94 159 131 138 107 128 142 158 153 160 170 175 180 188
133 35 72 40 114 56 95 108 94 41 -40 -0 35 31 41 77 121 100 114 72 79 114 138 125 94 89 120 79 118 67 73 116 119 28 101 140 164 222 241 144 79 111 125 111 119 139 151 144 175
118 98 156 87 124 133 -1 55 -14 31 31 16 3 -0 98 98 71 98 107 119 145 121 122 105 113 109 137 145 137 149 111 117 153 122 91 249 265 188 179 138 171 127 100 127 145 135 105 134 181
14 89 94 119 103 131 61 18 -14 -28 18 10 37 -2 144 119 72 66 99 101 138 176 124 102 63 46 87 145 197 65 24 46 186 196 89 73 115 187 191 234 240 165 114 79 122 177 191 173 263
25 58 69 180 97 47 84 30 32 -76 -49 10 44 144 178 114 83 118 120 162 183 236 199 134 88 40 68 126 218 221 110 84 98 27 120 82 112 53 73 103 152 103 147 178 156 152 149 239 238
45 111 165 74 57 28 64 28 67 -42 53 20 35 87 86 105 94 63 94 203 240 248 220 193 152 124 44 115 153 130 53 45 56 65 -14 -32 109 48 26 104 85 80 180 146 194 176 94 121 185
168 165 102 128 105 107 122 122 40 23 62 27 37 98 8 100 84 114 115 199 250 201 205 137 40 15 10 -43 -34 -10 -0 -28 -11 -35 -31 -24 -36 10 44 14 7 76 60 76 123 89 94 75 104
128 139 157 142 189 161 157 163 161 47 24 38 86 56 -11 86 84 109 72 119 170 164 102 71 62 82 93 66 41 33 46 51 41 28 21 22 52 82 41 23 74 100 119 88 90 137 157 108 95
105 194 136 99 98 67 100 168 143 73 25 9 35 -17 9 18 61 54 67 79 108 129 118 99 41 43 46 39 38 58 71 80 82 76 72 61 53 54 55 50 53 59 63 74 74 94 131 153 156

GFSSGP_con_3kmhel_096.txt.gz
Helicity
85 97 127 216 173 213 193 149 146 107 78 74 75 95 122 51 46 78 80 45 109 110 80 90 97 99 115 136 102 109 86 78 67 65 55 50 55 69 64 49 36 37 48 69 85 94 89 81 62
110 144 205 207 211 245 173 108 63 54 75 68 95 90 96 64 46 62 85 64 99 96 62 100 127 117 123 126 109 87 83 82 76 63 54 42 52 60 62 55 52 61 78 92 112 99 67 69 50
157 179 207 153 178 222 144 90 60 189 163 111 119 94 101 56 81 46 70 79 114 90 77 128 155 136 134 116 99 78 69 67 74 65 48 50 54 53 62 60 70 87 126 116 117 70 71 57 40
193 223 214 176 137 107 105 115 143 205 175 122 111 233 87 55 31 15 88 99 116 110 107 74 124 122 114 109 81 63 56 60 57 63 45 54 42 48 80 69 92 120 129 107 84 64 69 45 22
234 203 196 168 134 153 105 93 182 233 244 290 194 237 158 64 61 75 89 82 133 95 62 45 97 129 113 102 88 66 48 49 45 54 62 44 38 43 103 92 117 111 123 105 77 71 56 33 19
196 183 158 149 142 110 111 121 136 192 194 177 251 219 111 80 134 151 150 121 119 85 66 69 88 118 132 109 93 72 48 40 46 40 47 31 29 51 104 101 96 91 88 95 78 62 54 31 24
141 177 135 147 120 113 100 152 199 207 185 187 128 250 145 88 106 168 187 197 149 137 132 114 117 111 119 110 104 92 91 51 48 34 11 26 40 72 102 81 50 74 73 91 80 62 53 39 29
147 152 126 131 112 89 77 165 202 190 201 99 75 293 255 224 85 142 187 206 188 170 145 139 140 133 130 121 116 120 122 110 79 58 36 45 64 95 104 94 105 68 85 75 79 65 53 42 30
143 170 144 152 114 117 102 117 75 92 142 122 79 178 234 279 63 120 132 124 136 152 197 216 190 147 142 136 117 136 150 167 130 105 75 93 134 131 127 135 110 61 82 99 78 65 55 42 32
158 168 101 128 154 114 90 105 98 67 159 151 110 150 279 327 272 150 104 98 91 101 139 204 220 204 200 140 138 169 163 185 192 133 119 141 145 157 165 133 96 84 117 102 67 63 58 49 37
150 138 120 131 114 133 96 69 79 64 50 134 158 203 216 291 349 322 148 149 80 71 92 140 219 191 169 155 175 191 214 230 219 170 172 168 168 213 184 155 129 126 136 142 99 84 69 50 42
123 93 108 114 151 143 117 67 33 59 51 44 106 78 103 256 311 315 307 128 110 91 91 134 160 154 158 169 146 162 179 167 202 161 120 163 216 234 218 188 166 154 147 128 107 75 56 47 40
91 92 118 141 128 138 119 104 101 16 45 24 25 67 87 153 233 275 301 262 136 127 100 109 155 159 140 156 196 169 151 135 132 125 66 120 159 232 259 240 179 154 142 122 110 82 63 45 32
91 69 59 66 70 110 119 62 125 77 30 -5 7 42 24 59 113 208 217 292 174 143 106 153 134 139 149 162 158 144 132 98 69 100 85 114 140 133 142 162 144 163 136 106 114 88 68 45 45
59 81 65 60 93 114 71 86 83 77 74 36 -15 -29 53 -9 64 98 158 169 220 162 164 125 85 112 119 147 153 180 154 158 76 96 150 124 133 86 94 219 101 119 146 104 106 97 85 61 51
84 120 131 72 86 70 121 117 40 113 236 174 92 -5 -14 -37 -7 55 115 118 167 151 136 116 106 95 138 153 132 184 188 211 99 66 192 173 143 125 139 82 111 133 148 137 105 106 88 70 71
67 103 78 74 55 99 159 94 54 21 60 182 233 177 96 30 13 54 108 100 129 142 117 93 83 70 192 93 105 121 147 156 126 63 55 314 117 138 177 157 108 116 151 128 97 109 115 98 87
27 15 72 77 130 167 114 23 10 26 24 4 49 155 235 176 115 112 144 122 125 83 126 146 154 126 111 175 133 131 144 134 89 146 115 122 178 174 206 188 136 123 137 120 131 134 125 123 108
64 72 75 140 128 97 146 25 22 42 35 31 26 38 82 209 206 211 131 149 185 144 142 150 145 106 121 128 122 129 135 128 101 109 78 82 143 203 191 187 174 159 147 129 135 166 147 120 126
48 53 117 95 -41 21 49 76 95 72 57 50 24 9 24 101 244 146 190 220 152 136 90 147 132 114 112 142 126 143 127 117 110 58 43 60 119 177 160 170 183 182 187 169 165 166 181 148 151
-67 -9 51 66 -9 20 25 58 47 56 20 36 29 13 25 84 212 160 164 204 202 188 140 117 111 95 114 106 120 137 158 165 148 128 68 56 86 146 98 106 134 165 182 169 162 159 162 155 163
-43 -19 -28 53 33 144 124 98 27 -12 13 21 20 28 46 72 66 110 119 124 116 166 167 159 133 104 73 101 112 89 127 142 103 72 58 54 81 88 86 101 122 107 142 159 162 155 165 198 185
-7 36 -3 6 49 103 88 134 122 35 6 29 5 -7 45 51 74 101 125 63 41 99 128 158 141 127 118 53 66 63 79 124 145 142 68 68 57 51 111 190 87 125 178 144 151 182 183 199 219
43 -28 37 24 46 98 29 123 60 12 79 48 0 -7 29 62 94 89 78 86 102 108 89 59 56 84 77 76 87 22 21 104 151 125 152 161 51 146 105 117 82 141 125 140 85 156 184 165 192
-47 7 27 84 100 101 43 35 45 -33 -2 19 11 35 16 30 71 65 67 93 94 103 99 90 66 84 107 108 99 124 68 72 74 67 185 155 77 173 220 190 168 184 181 105 90 120 122 120 110
5 70 55 73 39 58 61 101 11 -27 -46 -94 -8 76 104 69 76 57 101 149 162 174 175 144 128 121 101 83 97 176 187 74 121 110 226 166 124 98 284 209 258 235 188 61 51 107 153 112 100
24 106 92 84 66 79 27 41 42 -48 -43 -46 6 53 57 51 12 55 145 192 246 202 248 259 184 183 142 111 174 244 353 254 152 92 82 41 102 116 104 81 19 55 60 124 202 189 164 173 130
149 129 117 112 75 63 74 53 24 2 26 -23 -35 31 25 -9 -50 -36 92 186 339 277 315 315 272 163 96 78 143 185 150 74 38 28 91 32 -10 85 95 181 102 133 66 62 125 157 187 194 237
112 118 141 132 137 121 150 166 63 34 15 -23 -72 -79 15 21 55 156 139 128 221 310 289 207 118 105 51 23 21 -5 21 46 1 -10 -6 -12 -1 12 41 36 27 25 45 89 106 96 113 113 83
112 125 116 105 76 44 58 105 95 47 31 35 4 2 3 17 5 25 55 85 186 245 225 177 117 58 49 32 48 31 30 32 35 42 50 52 44 46 44 43 44 45 40 42 63 81 102 117 141

GFSSGP_con_3kmhel_099.txt.gz
Helicity
96 103 119 200 186 212 148 85 92 61 89 163 164 196 181 124 105 150 15 30 70 116 105 86 82 93 86 101 105 114 124 111 109 93 82 75 63 67 58 56 48 36 43 47 73 85 100 95 71
108 138 197 174 189 205 105 84 54 69 112 120 139 174 179 148 67 52 75 48 62 97 86 83 89 100 105 104 99 94 95 91 77 72 65 66 54 67 53 48 39 41 55 77 104 102 103 85 68
122 156 165 135 162 148 88 72 108 128 141 134 177 155 152 132 63 62 61 107 85 96 94 89 99 105 128 112 88 77 82 79 80 57 52 65 61 62 57 50 55 82 100 110 134 96 89 75 61
139 159 150 141 104 73 86 102 124 165 180 186 199 272 187 90 82 55 74 116 104 89 105 98 82 87 104 106 94 71 66 59 67 65 48 56 65 64 62 67 89 116 135 128 100 95 81 66 56
172 123 121 86 83 114 69 90 105 146 190 235 238 250 260 134 50 65 89 113 109 91 90 72 72 74 86 90 87 78 66 57 56 63 61 38 51 51 73 100 125 121 117 104 89 84 72 61 54
141 102 93 61 62 71 68 59 69 117 180 249 318 282 216 136 196 108 109 116 114 126 96 62 52 70 89 92 83 78 69 61 52 61 68 45 28 50 78 108 134 105 89 91 90 81 68 64 54
130 134 66 62 55 63 39 104 116 107 148 206 283 276 236 285 335 127 104 129 121 112 128 98 85 83 88 94 86 81 66 54 57 63 65 46 43 53 75 113 117 94 77 70 84 80 68 66 60
131 136 94 72 73 63 83 109 121 125 123 166 148 291 347 338 265 145 96 109 120 129 104 94 94 92 98 100 85 83 78 64 80 68 63 63 70 72 75 111 93 75 90 82 85 75 67 68 67
114 162 104 100 90 76 108 105 122 79 80 142 166 181 201 271 220 201 125 101 108 83 78 90 114 121 122 96 89 89 84 86 93 94 72 73 116 108 99 98 85 138 84 116 94 75 74 73 63
169 159 91 94 112 102 59 58 59 64 86 50 161 226 202 214 259 308 276 187 79 63 79 113 165 154 162 147 119 103 99 106 91 108 134 134 131 133 137 133 145 115 79 125 108 89 84 82 77
141 130 100 88 69 73 59 62 59 62 27 86 74 176 221 214 276 295 309 224 156 93 77 89 160 179 173 154 147 122 116 127 122 129 163 191 173 173 172 189 162 114 105 152 151 131 115 88 71
126 97 108 91 91 76 74 71 86 98 129 38 31 59 160 195 220 258 299 308 217 122 121 87 111 137 159 174 143 153 151 126 113 102 128 198 209 186 191 193 167 146 185 174 189 151 111 88 67
96 90 99 90 64 69 75 87 128 122 125 52 -23 -7 79 143 163 171 205 265 260 163 106 86 102 113 118 157 173 146 127 119 126 145 102 130 175 206 211 186 182 166 182 158 171 137 114 93 69
78 65 55 57 57 88 84 95 172 175 145 103 49 -14 -1 76 118 126 167 224 268 232 160 119 101 92 111 141 169 154 112 103 94 80 88 98 138 185 241 214 220 232 179 152 145 129 103 87 80
75 69 53 55 65 94 123 125 200 95 102 107 96 80 -36 19 85 107 107 161 202 226 196 145 102 109 105 116 144 164 146 116 106 109 128 164 173 175 178 160 165 201 151 147 146 122 112 97 85
99 96 115 66 87 93 186 189 173 67 72 65 67 82 107 -14 33 46 71 96 170 163 171 161 145 133 117 88 134 142 127 165 118 115 142 136 191 186 180 151 141 170 170 94 132 121 109 91 82
106 86 85 60 53 112 142 136 166 184 149 106 51 47 73 90 24 50 76 64 118 131 163 149 132 128 120 86 66 102 129 134 135 108 144 137 176 146 114 169 177 127 220 228 117 108 137 99 76
51 66 53 92 21 111 105 173 113 58 109 109 97 66 37 70 136 126 113 119 92 110 115 158 152 120 94 116 108 140 119 137 122 92 118 159 140 150 170 147 141 159 134 109 175 78 131 108 83
51 75 93 120 89 103 107 173 125 118 112 64 95 78 41 24 79 173 188 170 140 154 130 129 135 124 162 168 105 96 103 134 110 86 52 111 134 138 119 164 172 187 141 164 136 108 100 105 99
51 56 63 48 -39 54 54 136 76 13 37 82 73 79 57 36 94 113 169 232 193 169 153 128 95 124 141 137 123 130 104 91 128 102 77 70 113 83 89 98 122 194 254 156 180 199 158 127 171
92 135 106 90 -42 -12 31 54 23 92 28 10 19 53 58 29 80 102 133 217 207 216 192 147 123 120 138 109 123 124 123 111 113 124 107 81 120 91 118 83 150 208 231 229 197 182 204 167 193
86 52 28 48 -165 63 109 80 39 57 12 8 39 21 34 43 43 52 79 167 222 259 201 212 151 135 101 93 97 101 122 111 127 122 118 112 137 77 86 64 106 165 213 195 217 209 193 200 176
39 83 -70 -25 -26 23 89 79 76 28 7 101 56 -12 11 23 15 79 126 165 175 170 145 152 161 151 130 84 78 61 66 73 78 99 127 138 111 141 106 88 198 167 222 185 179 176 159 176 193
33 -53 -113 -55 -14 6 38 63 58 21 14 42 22 -35 29 37 57 111 131 120 110 122 116 119 129 123 108 108 101 83 40 69 76 40 54 87 80 113 113 49 136 108 123 143 145 146 132 123 154
-65 -88 -78 -8 -6 -7 54 78 75 -8 0 8 7 -19 -61 -19 18 59 91 116 122 108 112 103 123 116 109 107 105 108 118 83 85 84 55 68 97 154 132 57 81 134 125 78 75 66 71 73 114
-58 -115 -51 67 99 89 65 95 89 -46 -28 -21 -11 12 48 82 67 74 96 137 154 176 205 171 130 130 102 104 127 131 155 166 93 58 36 58 152 165 136 119 118 139 192 188 171 153 111 56 130
-15 10 30 60 97 119 130 52 9 -85 -22 -25 -10 12 27 32 18 86 86 138 208 215 241 235 211 161 172 133 104 135 170 218 315 239 183 195 178 131 79 123 201 212 147 203 171 164 199 145 83
56 45 34 56 70 76 144 113 78 -9 3 -17 -33 1 25 26 49 -5 98 126 215 188 208 227 255 180 196 199 179 112 108 102 117 119 171 197 186 134 90 118 84 30 35 48 100 151 191 119 114
26 42 43 75 74 89 147 105 66 55 7 0 -70 -16 36 54 146 110 149 146 232 305 270 290 317 222 142 122 71 57 78 89 76 -9 -1 -23 -19 -4 13 70 54 62 88 65 56 30 84 91 110
65 69 64 51 56 75 69 89 44 46 64 21 -18 -13 -18 -34 0 93 124 163 296 328 407 409 466 274 172 114 53 33 30 37 41 30 24 32 26 28 38 42 41 39 35 42 44 63 74 124 111

GFSSGP_con_3kmhel_102.txt.gz
Helicity
94 94 99 162 158 153 103 71 114 83 78 116 151 160 151 128 135 144 32 10 11 92 92 102 94 62 69 87 96 98 102 106 110 93 81 73 80 66 56 52 41 36 31 45 76 87 102 74 60
103 119 168 151 175 150 81 84 81 105 109 107 153 131 161 146 88 59 35 34 43 96 96 101 83 72 82 91 98 91 83 91 88 81 67 68 62 55 47 53 47 29 45 52 103 105 95 76 58
117 141 141 137 142 93 96 90 145 154 137 103 153 138 174 171 146 92 59 51 72 99 119 111 93 83 99 93 83 84 74 62 60 65 46 58 49 52 43 35 32 35 55 91 123 116 92 69 56
117 136 125 131 80 60 73 66 127 172 202 196 165 198 163 141 184 137 39 54 70 93 96 86 83 67 66 81 71 71 75 68 54 45 42 33 48 47 46 46 78 82 85 113 139 108 89 69 53
140 103 101 73 50 58 62 63 73 104 122 161 188 239 235 167 163 100 86 80 81 83 82 75 57 60 62 57 68 70 65 62 55 58 59 42 38 49 60 78 105 120 127 125 102 98 87 67 63
114 84 79 56 51 34 37 39 60 95 108 152 190 194 216 165 253 266 134 61 84 105 100 89 47 44 54 56 60 69 63 64 56 52 56 47 37 46 55 94 116 120 119 106 91 89 81 63 60
99 109 65 53 49 51 52 66 68 68 94 116 157 155 187 265 361 306 162 120 73 87 104 105 88 68 64 64 55 55 55 56 60 57 45 47 36 51 66 83 119 109 93 96 104 103 72 60 58
107 122 84 56 57 66 96 103 65 53 51 92 84 166 236 282 337 274 194 130 89 85 78 95 110 91 81 73 70 61 48 38 46 59 66 68 64 56 66 89 102 96 82 83 113 111 89 61 57
118 146 87 83 86 74 90 86 55 38 28 63 92 112 162 233 252 269 289 268 173 85 71 89 100 107 93 88 86 74 56 44 43 56 60 70 93 87 98 105 100 83 73 81 98 108 99 91 72
144 124 57 85 91 75 64 54 63 55 42 21 35 100 138 181 208 271 305 324 263 194 90 60 87 104 111 115 102 90 89 93 77 64 67 83 95 108 118 111 105 76 80 97 108 100 110 111 106
102 99 101 99 92 110 81 75 45 79 56 30 37 4 104 109 214 271 287 265 257 217 164 89 72 114 138 156 125 114 118 114 95 86 87 83 114 133 153 152 119 129 123 134 142 147 129 107 101
122 111 120 102 115 97 86 57 77 106 115 88 84 41 -9 103 149 217 277 286 289 265 174 102 77 100 112 154 146 129 118 84 79 78 95 114 128 164 189 174 179 174 168 153 154 175 135 112 86
123 124 116 83 65 73 76 94 118 123 88 94 99 92 73 31 112 181 194 219 262 248 221 109 88 75 112 125 163 121 111 94 91 60 81 115 126 152 173 204 210 186 194 183 168 176 142 125 100
95 89 76 58 72 75 91 101 125 127 83 111 88 87 103 84 69 130 177 193 233 239 222 163 98 88 98 94 131 101 90 84 74 68 60 55 95 122 149 189 200 221 187 197 195 167 150 115 113
80 92 78 75 68 62 59 111 140 47 23 37 45 68 75 70 59 39 114 140 182 231 221 203 140 107 115 98 100 120 74 102 103 97 69 70 82 108 155 207 224 232 250 199 219 170 170 140 110
86 65 109 58 92 83 102 123 95 27 49 57 88 77 102 109 100 71 57 94 90 149 216 189 150 128 106 104 101 114 109 127 127 86 112 104 126 127 157 223 244 222 245 230 226 210 190 146 115
118 74 63 90 45 72 78 135 122 91 89 93 98 103 82 94 147 130 67 122 69 72 159 153 139 163 123 141 125 101 94 83 92 105 127 117 109 140 166 194 235 216 193 220 246 215 135 155 112
58 59 70 113 57 64 72 127 90 115 143 91 98 85 98 98 111 140 81 96 154 81 90 116 122 156 144 150 147 123 88 57 61 92 113 106 116 126 149 176 209 198 208 170 190 225 242 214 99
56 65 97 128 64 60 34 109 123 109 62 42 60 54 98 114 108 81 96 83 140 126 103 107 114 134 152 143 118 97 67 85 99 75 71 93 118 129 126 137 182 201 184 103 85 160 252 182 106
51 76 96 50 14 59 66 86 49 -37 -17 7 8 9 78 99 102 96 87 80 103 158 128 116 107 126 132 150 137 119 107 96 103 82 81 98 104 120 133 136 153 173 199 162 159 173 199 177 129
75 120 129 84 53 74 17 52 -24 62 52 88 70 90 59 52 83 90 80 60 61 132 146 151 133 113 118 134 135 111 109 93 76 67 77 79 106 120 133 139 153 149 164 175 200 222 213 264 283
74 22 23 54 66 60 77 115 59 50 50 80 109 100 22 32 50 61 49 21 17 83 155 194 187 138 125 128 109 87 83 59 60 69 75 69 98 139 149 141 161 158 161 143 169 216 199 189 225
13 61 79 63 -85 -61 -25 23 56 18 -40 -33 -14 -24 -19 -88 42 64 55 90 104 110 177 214 218 194 180 127 94 91 79 61 44 37 49 59 72 114 145 148 91 129 168 121 142 205 221 188 178
38 -29 -63 -23 -47 -26 12 -34 92 -3 -12 30 38 -8 -20 -47 -31 22 139 128 208 220 224 209 213 239 231 195 181 140 114 67 35 27 36 45 69 82 112 131 151 142 123 137 260 240 198 233 196
-54 -49 -119 -59 -47 58 148 103 18 17 -30 10 32 -4 -8 -59 -47 39 53 112 149 204 256 209 178 180 161 156 145 120 79 56 23 28 51 58 75 87 76 94 83 167 147 139 237 238 233 238 145
-63 -88 -70 -6 49 64 125 81 102 -11 -25 -1 -10 9 60 59 33 42 64 87 103 155 171 212 189 179 207 146 129 130 103 88 119 166 131 143 129 112 36 75 118 153 144 158 179 253 215 252 125
-21 -22 -18 32 40 55 102 126 164 -4 -32 -14 -10 1 65 49 42 45 58 83 133 126 181 205 219 203 186 149 128 145 146 145 207 221 235 270 183 158 179 163 114 111 69 107 153 175 302 287 290
12 -35 -14 -18 -5 40 105 138 148 45 41 3 -62 12 32 103 96 44 79 99 149 166 231 192 219 214 185 199 188 149 137 107 175 161 126 126 168 152 172 162 201 105 153 41 87 59 182 245 282
-18 -33 -23 35 24 39 97 129 79 82 64 34 -35 -32 -26 11 40 104 57 125 173 219 169 236 259 261 241 172 168 222 166 147 93 111 109 18 56 48 -0 11 46 75 89 97 110 51 47 73 110
34 -19 -70 -30 29 63 90 90 30 35 44 70 49 28 6 1 68 83 135 157 225 278 210 209 191 200 159 174 226 122 110 55 37 46 79 56 22 47 44 27 26 32 37 40 36 35 76 37 69

GFSSGP_con_3kmhel_105.txt.gz
Helicity
83 82 81 129 138 138 103 120 104 65 74 123 138 138 106 96 76 125 31 -0 5 21 47 75 72 83 90 83 102 91 81 80 74 71 84 78 66 53 43 38 36 37 39 62 79 72 80 64 58
84 96 136 130 158 129 122 110 117 125 114 129 109 101 110 142 106 81 43 45 -8 10 41 48 53 76 98 88 94 96 87 78 56 50 49 63 50 40 27 27 28 25 22 74 69 99 78 63 57
101 115 138 143 129 113 124 96 135 139 127 121 108 103 133 187 172 136 106 58 19 30 36 50 62 84 84 81 94 93 88 78 67 45 16 46 34 29 29 25 13 19 44 74 113 98 77 63 53
106 119 122 136 100 88 90 53 117 151 135 137 115 105 121 107 135 144 126 41 31 26 31 44 67 82 83 69 78 81 76 69 62 59 17 25 31 28 22 27 25 22 68 98 118 112 91 58 36
141 106 105 84 66 74 72 73 84 104 117 129 131 149 143 114 153 156 151 101 83 38 34 44 58 60 69 62 59 57 50 56 61 52 35 25 19 24 34 34 50 65 88 107 93 92 94 76 43
79 65 66 56 45 33 45 44 54 86 105 99 117 122 131 121 207 290 182 124 91 55 51 47 43 53 54 56 48 43 34 30 49 56 52 34 26 28 37 62 78 92 117 109 76 77 74 80 71
75 82 61 64 58 63 63 58 63 62 77 90 96 95 110 132 244 264 201 128 110 95 62 56 56 49 64 57 50 52 51 33 20 37 42 48 39 37 42 47 74 104 114 111 80 71 60 62 63
96 90 74 56 61 69 79 72 45 53 53 80 68 93 152 160 228 248 189 188 171 124 103 77 66 60 56 58 58 46 43 43 40 25 31 43 51 55 57 57 62 93 101 95 87 83 63 47 57
93 118 88 69 62 78 74 87 47 44 50 68 68 63 71 113 155 202 235 265 260 197 142 113 87 71 71 70 66 58 48 35 35 48 46 41 55 65 72 70 68 84 84 87 86 86 76 66 58
108 101 67 83 83 78 77 60 63 55 59 57 52 53 43 58 88 153 208 251 282 304 261 141 89 73 85 86 79 79 74 68 58 52 59 65 52 65 71 81 102 102 87 84 88 94 101 88 65
97 87 75 81 80 102 85 82 67 78 64 70 82 70 80 73 79 100 162 179 223 278 271 202 118 88 83 107 103 100 94 95 78 61 55 61 65 69 77 97 106 94 93 94 83 109 112 91 96
121 114 94 77 87 91 89 83 94 94 113 87 85 89 97 94 95 116 127 164 195 226 259 235 127 102 82 109 159 111 110 89 98 82 64 72 79 82 87 93 109 113 128 123 107 114 112 115 96
105 88 74 72 74 73 85 88 88 114 168 110 82 81 83 81 84 114 147 125 144 193 227 232 165 111 104 96 109 148 117 110 101 78 54 66 70 80 98 126 137 134 141 133 133 127 134 127 94
81 79 82 78 84 62 67 77 72 101 58 77 95 107 89 74 59 82 99 156 157 150 197 207 174 104 95 96 91 112 158 154 148 114 54 38 43 74 74 93 123 158 192 139 145 129 139 125 129
77 105 91 87 86 41 28 44 37 35 56 85 74 27 29 52 66 59 74 82 151 173 171 185 176 114 94 90 92 111 142 51 75 42 46 50 37 39 48 80 106 140 166 147 145 128 185 158 159
92 80 116 72 55 39 29 49 27 39 45 43 26 52 79 68 69 86 92 83 93 153 193 198 180 116 90 113 112 109 128 73 34 85 69 57 58 56 57 67 81 122 164 161 144 193 202 200 181
121 83 66 56 48 46 73 69 67 63 91 60 100 135 129 96 67 76 90 107 102 144 178 191 233 160 110 112 127 97 79 81 89 49 -2 75 47 46 69 81 87 108 152 181 164 202 196 184 201
72 56 38 45 45 56 77 75 61 114 129 130 129 101 77 69 73 84 94 136 169 140 143 168 201 202 124 120 146 153 109 75 102 78 68 86 68 72 83 81 84 110 135 164 184 194 232 248 194
42 35 43 104 71 48 45 82 114 165 110 110 91 40 41 34 22 81 108 149 183 149 112 145 168 154 153 166 182 155 120 72 60 44 50 71 79 60 57 78 72 110 107 112 131 143 175 199 213
44 63 51 64 30 29 38 42 81 62 93 54 33 9 45 28 33 59 94 122 133 109 77 102 135 205 150 140 157 158 110 103 108 96 82 72 65 53 56 70 104 104 112 124 134 139 144 184 175
46 63 55 45 24 24 49 55 34 71 64 57 65 76 100 88 100 56 46 84 83 61 32 103 169 111 215 126 177 172 160 132 117 98 86 79 73 65 58 61 81 94 134 130 163 175 162 143 156
42 36 20 23 24 41 77 38 -32 30 53 52 33 53 52 76 79 -96 -12 63 52 20 -9 75 83 88 82 89 117 115 117 76 73 79 83 81 70 56 49 65 81 85 137 122 155 213 228 216 189
32 37 44 32 49 50 13 23 26 89 60 18 12 9 59 55 -15 -153 -110 -42 118 64 55 5 93 104 100 100 100 90 81 88 71 58 61 69 70 60 61 69 72 112 140 148 147 158 211 237 222
25 30 35 50 23 1 -10 69 74 115 38 9 18 -30 -18 147 49 -68 15 -46 102 150 137 141 170 248 240 222 220 191 147 129 96 60 52 50 47 48 47 56 68 85 117 111 144 136 158 198 230
13 10 11 14 35 -10 93 69 68 127 50 8 7 -8 4 -3 -0 -16 -10 42 94 155 157 207 234 271 206 199 194 166 160 168 159 121 85 71 49 56 80 74 68 95 95 80 111 151 167 170 230
-26 -44 -27 -8 -8 4 79 59 127 162 64 1 -1 37 35 20 15 16 57 71 96 115 159 132 210 250 245 220 208 181 168 139 151 181 170 163 164 139 155 146 150 136 96 84 139 157 117 141 234
-19 -40 -54 -14 -10 30 54 117 135 110 83 45 15 -31 7 41 31 45 64 101 121 134 166 188 211 211 224 253 211 183 151 131 116 173 207 231 198 209 255 170 146 166 193 167 89 125 134 164 202
10 -40 -23 -11 -20 10 24 73 114 97 84 98 43 -1 6 -12 100 -6 69 120 168 168 182 222 248 240 234 208 211 202 188 127 97 124 199 242 156 180 176 253 170 127 130 156 158 145 93 117 169
-18 -29 -45 -3 72 40 40 64 94 88 62 35 70 59 51 20 -15 -17 28 67 121 181 194 198 162 190 204 224 244 252 186 152 129 65 57 94 146 85 84 79 62 77 104 100 124 99 103 105 70
-28 -40 -23 -46 -8 90 105 75 87 54 19 -7 -24 9 20 31 52 68 69 94 110 127 146 144 185 248 137 213 104 151 203 183 196 186 111 60 101 119 29 24 51 43 33 21 48 61 32 34 34

GFSSGP_con_3kmhel_108.txt.gz
Helicity
70 67 71 91 104 107 115 121 130 115 103 111 83 82 100 105 153 180 33 58 40 25 1 47 53 49 66 57 76 85 80 58 54 47 37 66 52 49 37 30 16 15 46 52 48 49 68 65 42
65 74 95 105 149 106 134 136 117 136 114 84 71 57 79 116 101 93 75 69 45 -5 -13 1 30 29 63 60 70 71 79 79 62 48 42 52 37 27 28 24 14 9 19 49 44 64 84 64 44
78 103 114 145 158 157 158 149 142 124 103 96 79 86 107 117 108 124 94 105 46 3 -13 1 26 14 57 63 65 64 64 64 53 44 47 41 25 8 8 14 18 3 14 37 76 75 71 60 50
99 100 109 138 140 151 172 123 138 111 95 117 109 89 91 101 102 126 141 101 76 48 12 41 27 23 38 46 55 58 50 55 49 39 16 47 23 3 2 17 14 20 30 57 85 59 49 47 46
124 100 142 135 141 138 123 110 117 114 101 106 126 126 104 80 81 125 172 131 135 90 36 28 27 36 39 47 42 41 44 46 43 34 27 33 19 7 12 17 23 28 57 94 89 59 47 32 27
105 105 80 84 89 75 69 60 60 71 79 80 97 112 96 99 144 158 190 153 110 101 89 58 49 41 46 59 52 47 47 31 24 29 32 31 22 21 22 25 36 40 67 87 81 62 59 41 15
51 45 58 69 67 48 48 45 39 51 43 46 82 86 107 72 139 160 177 176 146 115 107 66 48 35 41 50 53 58 45 36 31 21 19 23 26 27 35 43 49 63 70 84 78 56 63 64 51
58 61 57 61 66 71 61 52 52 48 54 56 47 51 85 98 114 135 143 148 178 166 117 120 74 56 43 43 48 51 52 52 46 32 22 18 24 29 34 45 50 67 84 85 83 66 65 75 65
61 77 79 70 66 80 69 67 52 54 42 29 40 29 35 59 62 94 115 147 161 169 182 164 101 89 59 53 59 55 51 50 55 47 36 35 23 24 27 42 63 48 84 87 81 70 75 88 83
92 92 88 75 79 82 64 59 59 43 27 26 31 23 32 43 52 61 94 104 141 184 207 164 172 125 98 80 67 66 76 63 49 42 37 40 31 33 42 48 71 55 87 82 73 78 90 81 77
95 115 91 91 89 89 84 71 66 52 43 46 47 62 63 59 73 80 83 95 96 117 149 170 170 151 119 100 95 101 127 109 88 62 51 46 53 50 51 53 67 67 90 78 76 74 73 68 77
106 97 96 88 94 106 107 99 83 45 81 66 69 81 82 93 96 105 106 110 125 123 127 149 142 154 145 131 121 104 116 103 108 105 80 64 63 64 55 59 59 66 76 74 74 80 61 71 76
104 82 72 76 79 73 61 54 46 52 44 57 77 82 74 85 84 83 92 106 123 116 120 134 134 134 128 122 117 106 110 131 121 121 106 83 74 69 74 68 71 64 80 77 78 74 75 87 93
81 63 65 71 61 44 45 47 63 54 93 106 91 75 68 55 45 44 33 35 72 101 118 158 153 125 113 110 103 106 92 118 152 161 148 93 75 74 59 59 71 69 68 102 106 105 111 115 81
66 74 62 54 58 49 31 20 8 57 97 87 59 40 28 35 44 46 64 69 68 85 95 95 180 183 133 112 109 129 99 106 132 146 216 136 67 35 34 51 46 48 62 86 156 111 122 91 108
81 65 84 83 76 58 37 52 57 62 63 70 61 46 63 83 95 93 80 74 71 69 87 108 160 199 190 135 113 138 126 128 129 95 106 128 83 19 29 34 37 40 46 57 83 98 115 104 154
94 94 87 66 82 49 55 51 64 53 58 59 75 119 112 110 107 96 83 71 68 69 62 105 134 178 195 156 126 125 146 143 151 120 97 66 41 32 28 42 59 57 66 70 88 99 114 135 161
85 79 64 51 58 33 33 25 38 47 61 85 109 100 109 121 87 68 74 48 41 89 119 117 154 202 237 196 160 158 208 184 140 122 85 75 128 67 40 65 60 77 87 71 77 91 139 141 134
75 60 53 38 36 7 33 45 37 56 117 114 118 88 89 82 61 50 48 31 32 63 91 126 132 133 236 215 176 201 192 188 163 134 85 101 133 59 -8 27 58 76 93 74 95 114 123 164 166
57 53 39 24 44 19 34 13 43 136 140 113 67 60 65 43 71 97 99 39 57 50 82 111 109 85 150 163 161 175 200 194 122 88 67 60 67 35 96 76 71 63 96 82 80 89 126 129 143
38 29 39 31 31 -27 1 9 66 81 74 66 54 57 40 74 59 59 77 124 98 62 47 37 55 68 118 107 125 139 132 190 165 130 105 82 82 89 95 86 68 49 64 100 77 65 81 124 131
34 32 35 19 -2 55 55 22 45 53 35 72 70 76 56 46 46 21 57 65 134 66 87 35 18 36 120 46 90 96 156 166 163 165 144 119 91 79 83 81 64 56 61 60 69 77 83 125 154
67 39 -1 -19 5 38 61 27 36 68 76 58 49 60 51 35 38 10 20 74 28 -8 45 62 35 23 87 12 74 173 195 161 120 120 106 105 91 88 85 70 60 64 67 54 60 90 86 148 196
14 2 -5 33 49 34 63 46 25 82 125 62 42 64 38 26 34 21 6 25 32 45 113 145 124 108 133 197 238 169 170 83 121 125 103 88 92 81 120 119 93 85 80 73 70 88 101 130 186
7 -4 22 24 29 43 118 60 30 106 106 103 75 22 37 38 42 31 -5 9 27 13 81 117 144 190 163 165 198 137 104 106 130 137 136 151 167 173 187 172 166 99 84 85 82 91 108 112 151
16 5 22 12 28 -3 88 3 65 111 102 125 107 62 37 35 31 35 31 36 62 52 32 37 102 154 171 147 170 150 142 102 108 132 136 145 160 167 176 183 171 191 181 190 167 127 86 105 164
-12 -4 -6 3 9 -1 13 36 62 82 52 63 77 113 63 -39 -35 52 36 53 56 93 135 98 62 73 92 81 74 105 113 127 147 154 146 159 183 213 179 184 174 192 205 173 220 135 170 146 105
8 -3 -13 -22 -20 -28 20 42 35 37 10 13 36 71 75 37 -26 -43 -23 17 75 93 115 191 193 175 206 235 212 188 202 227 181 174 176 189 218 213 228 241 237 202 215 177 158 185 138 189 187
-12 -17 -45 -26 -34 -27 -15 52 90 46 19 13 17 16 26 34 36 -2 -22 3 34 96 111 114 154 182 147 184 171 164 168 182 217 112 107 127 102 98 185 119 116 144 111 130 160 159 131 170 152
18 -24 -38 -46 -30 -23 -11 17 104 73 47 41 33 23 10 20 36 53 61 37 24 31 83 167 94 120 133 126 190 143 201 282 142 156 156 146 102 112 118 135 151 130 89 62 68 89 73 89 103

GFSSGP_con_3kmhel_111.txt.gz
Helicity
68 39 47 70 104 103 64 131 157 103 78 123 85 93 165 130 177 200 54 98 104 83 33 29 28 33 22 17 25 43 46 37 40 36 34 40 47 35 27 19 14 5 1 20 18 21 47 57 45
71 51 75 105 144 87 100 160 119 150 132 76 73 63 93 140 153 118 94 91 67 44 37 -8 55 13 14 22 28 40 40 32 42 44 38 32 40 30 13 9 0 -5 24 19 15 30 35 55 33
68 78 125 163 150 135 231 166 170 113 108 114 93 97 134 129 75 119 96 70 71 41 20 19 43 22 13 13 17 21 38 40 35 35 34 22 34 25 4 -2 -3 -7 14 16 33 66 59 29 22
78 88 103 163 119 225 246 192 144 104 99 120 119 96 79 89 69 102 106 75 84 122 40 59 44 37 24 23 29 32 30 30 27 24 25 29 28 23 5 1 6 -2 16 35 68 65 52 32 17
117 114 161 156 214 144 190 153 130 121 118 105 102 108 81 60 57 81 107 110 116 127 159 37 57 58 44 37 32 27 27 28 29 27 17 19 17 12 10 9 17 15 16 34 72 54 47 41 29
124 148 144 118 149 130 118 100 93 94 78 79 94 98 81 60 72 78 97 136 135 149 160 120 69 81 70 55 41 37 40 39 43 36 26 20 11 12 15 15 21 27 14 36 77 61 45 37 35
124 133 171 179 113 85 80 64 46 57 43 40 59 48 98 16 66 76 73 93 107 128 142 150 161 59 63 64 62 59 50 52 50 39 35 33 22 20 17 16 27 27 36 48 63 67 53 36 24
146 146 64 81 46 65 46 45 53 49 58 45 27 36 37 95 48 70 68 74 81 97 119 136 115 132 84 54 60 70 67 60 53 51 42 39 39 27 27 27 29 36 46 56 61 77 56 52 52
83 52 56 66 61 59 51 49 50 45 5 15 19 28 44 63 34 42 50 65 76 77 84 101 119 113 107 102 75 59 72 71 74 65 55 52 37 20 11 23 34 49 41 58 69 72 66 70 80
93 87 79 107 106 85 68 69 71 37 20 22 20 22 41 52 57 50 48 56 75 85 93 81 88 101 94 105 105 69 77 68 62 51 46 53 42 35 54 52 68 60 55 58 72 64 82 79 65
84 127 76 84 97 92 72 52 52 30 44 78 92 100 83 63 56 63 73 75 71 96 98 103 102 110 97 100 132 130 120 137 118 87 70 63 67 84 64 72 58 54 63 75 75 80 73 54 63
89 81 91 78 76 77 77 78 41 23 43 86 75 69 59 56 57 57 59 70 83 95 81 101 104 90 103 92 124 138 117 102 125 132 134 107 111 98 91 77 82 77 77 80 91 103 62 51 49
90 74 70 72 74 79 73 64 56 55 51 82 91 74 65 68 63 60 55 60 70 83 92 96 128 131 108 100 96 128 151 124 111 108 126 158 120 128 99 76 103 90 88 81 93 93 66 70 69
93 86 80 84 85 81 91 82 87 72 72 86 79 74 67 57 48 53 54 61 67 71 81 84 100 128 143 128 100 103 138 135 134 112 126 180 207 171 143 122 113 101 96 80 80 85 101 117 96
86 89 64 58 70 86 67 48 29 26 77 65 68 65 46 52 55 66 85 80 83 93 99 120 105 92 150 160 148 117 109 160 137 134 140 155 189 206 170 157 103 84 81 70 76 89 116 149 172
77 70 61 79 60 65 49 68 82 67 62 55 49 45 62 66 105 137 133 108 85 75 84 92 114 136 104 151 139 135 120 129 156 128 141 146 141 146 247 217 85 76 70 70 74 81 130 118 134
57 79 80 56 70 74 24 60 40 68 52 43 47 55 71 114 122 139 118 95 91 101 98 90 97 104 136 147 203 167 121 115 150 174 182 148 144 185 188 212 106 53 56 51 67 71 83 99 104
85 84 83 87 57 67 33 22 20 50 64 67 60 105 132 140 139 102 90 113 100 85 78 74 74 80 130 162 199 264 146 145 153 147 161 118 125 126 124 126 97 58 39 45 67 56 79 93 106
116 100 87 83 101 56 42 38 27 55 70 65 134 135 162 135 94 86 74 83 99 75 58 70 76 72 102 138 136 239 172 143 151 165 169 149 129 96 105 119 108 159 89 69 54 64 69 101 112
108 103 86 66 42 39 27 33 23 91 81 90 110 114 103 105 111 69 65 80 94 125 119 58 61 77 103 123 117 165 166 124 137 174 195 147 122 96 94 87 63 84 82 45 59 88 82 81 122
79 83 85 56 42 -8 42 9 62 55 55 62 98 135 103 94 82 53 40 26 43 59 69 105 78 48 62 68 88 80 160 127 125 131 151 144 109 100 122 76 65 60 59 73 52 86 73 72 85
62 53 37 28 42 52 62 64 33 86 42 56 118 122 121 84 66 53 25 28 30 32 40 46 37 32 43 53 56 55 124 98 102 181 189 204 138 129 140 113 101 83 92 92 71 73 74 74 87
67 34 31 30 21 34 75 35 45 64 43 82 94 99 83 55 59 41 35 22 34 37 63 51 86 86 55 60 39 89 86 82 92 161 254 293 227 178 149 127 91 92 95 83 79 75 86 104 114
24 17 10 4 36 43 82 51 33 76 84 83 44 73 54 62 55 76 31 52 45 59 40 55 81 98 111 111 131 94 35 121 130 86 293 263 245 231 228 209 214 175 140 110 89 82 73 88 107
10 21 41 53 53 49 54 54 -11 19 109 72 50 78 91 58 15 36 42 60 32 49 50 43 74 66 61 80 55 31 0 -6 75 91 112 98 129 150 192 183 175 170 160 151 159 157 162 99 99
33 27 40 24 28 36 84 17 30 77 61 94 71 93 99 97 16 -6 11 49 56 26 61 11 17 54 88 187 143 81 142 167 130 77 49 73 118 154 199 187 183 187 180 159 171 159 150 164 130
27 17 4 0 -29 -29 -31 4 51 58 44 46 39 57 53 76 71 22 -19 19 43 32 42 75 68 64 105 65 98 109 75 80 78 98 115 139 178 199 225 207 203 196 186 172 200 177 178 192 155
-2 19 -34 -44 -29 -29 -19 37 72 71 46 36 26 14 10 17 54 60 19 9 25 45 40 50 88 115 110 132 141 146 140 148 163 159 185 186 181 195 194 225 191 172 176 190 153 193 165 149 131
42 -19 -23 0 4 -35 -29 26 132 78 49 39 52 26 5 0 22 49 40 5 -7 11 50 61 63 59 55 71 92 115 119 85 112 131 169 161 115 116 160 144 155 173 140 101 178 207 189 156 149
38 29 57 1 65 102 -43 22 123 108 49 63 76 57 32 19 31 31 24 34 17 15 7 33 35 61 57 73 85 100 108 106 134 178 175 176 142 107 102 90 92 121 98 72 135 131 127 149 116

GFSSGP_con_3kmhel_114.txt.gz
Helicity
98 91 102 108 124 91 67 141 186 126 137 136 103 128 118 189 202 222 26 107 113 119 48 28 43 27 18 18 10 11 21 27 21 13 27 19 37 36 27 18 10 4 6 5 -0 -0 40 30 21
122 68 110 146 142 98 112 142 149 242 192 102 93 104 129 149 176 104 66 80 82 118 56 12 45 31 26 23 18 18 18 20 32 28 23 23 21 35 16 9 2 -7 -13 -4 10 22 33 65 18
121 110 182 155 150 167 237 244 276 151 126 118 106 138 162 113 85 87 76 63 86 89 101 21 71 38 37 32 23 23 23 26 24 25 25 19 17 26 21 4 2 -4 11 1 20 44 65 52 24
136 140 137 166 116 224 224 310 212 108 101 143 136 140 95 74 57 60 76 54 76 110 81 34 30 38 34 37 33 33 34 32 33 29 27 15 13 16 20 11 12 3 8 15 41 58 53 38 23
132 163 213 172 222 255 274 203 171 148 160 137 122 123 90 64 51 47 41 62 78 108 124 83 36 33 39 37 41 44 44 39 33 35 32 30 17 9 12 14 16 13 9 13 37 52 44 40 25
182 167 190 153 204 206 202 148 118 150 96 70 108 123 85 23 34 47 45 45 69 111 130 135 101 71 58 47 48 51 50 46 43 46 45 46 40 24 14 15 13 17 12 12 33 59 47 36 31
188 180 228 212 251 118 133 107 138 155 117 101 56 80 38 17 -29 25 53 52 53 75 123 137 114 96 71 73 58 49 48 50 54 55 51 48 50 47 32 24 24 17 15 20 42 67 60 43 32
205 198 215 306 176 171 103 88 83 68 88 47 31 75 130 120 16 12 32 49 41 45 61 108 128 117 96 100 86 70 61 58 57 63 56 52 51 50 47 40 32 35 32 36 48 54 67 53 36
154 179 158 202 231 84 40 40 32 34 33 48 39 43 55 48 13 17 21 30 39 43 45 70 98 119 107 80 73 66 69 67 72 73 65 68 78 65 56 62 52 48 48 48 55 60 75 71 64
185 197 186 180 173 66 61 74 62 60 54 39 31 55 81 71 47 29 29 34 38 45 46 34 63 84 115 108 102 83 69 102 97 92 97 111 88 78 63 88 89 70 66 50 51 72 88 90 93
113 111 46 80 109 121 82 53 60 51 42 88 116 89 70 56 47 41 42 49 53 62 66 64 56 68 84 95 110 113 111 115 109 101 88 87 98 95 85 118 107 108 87 107 85 101 125 107 78
78 85 110 69 74 72 63 65 47 30 38 60 77 78 71 41 38 36 41 56 62 60 58 54 60 61 67 94 91 115 132 122 124 134 124 148 107 126 131 130 128 141 149 134 134 142 117 92 73
89 75 78 73 60 59 57 34 36 39 23 56 100 53 28 40 52 55 62 62 62 60 63 68 61 61 88 98 114 101 122 137 125 125 129 147 211 185 155 138 138 159 169 150 155 140 109 95 90
92 77 72 77 69 49 63 54 81 54 87 65 39 50 66 57 48 47 50 68 77 86 82 80 86 81 74 90 118 139 114 130 131 138 139 138 214 244 184 137 122 149 151 141 146 145 121 91 86
71 59 41 43 64 80 74 61 37 22 81 46 35 59 56 41 28 72 122 125 117 100 105 108 110 115 118 108 109 138 152 132 147 143 156 174 163 179 189 159 162 126 141 143 164 141 124 132 156
71 64 61 80 63 85 80 61 55 79 47 44 42 50 56 26 82 151 130 101 108 103 97 101 94 105 107 118 129 144 156 189 139 130 142 173 161 185 225 205 190 177 159 187 195 122 125 125 150
82 104 58 62 59 83 52 56 32 111 71 43 55 78 60 148 195 142 108 97 88 116 95 96 121 121 116 117 151 130 145 191 193 132 130 157 196 198 224 228 208 213 256 231 180 100 107 116 142
158 113 114 72 40 43 51 53 41 54 63 88 92 135 176 208 182 126 92 98 120 86 78 112 100 115 122 107 113 135 151 157 222 179 163 190 163 188 206 228 210 238 265 143 205 99 81 75 88
141 131 118 118 98 65 48 48 42 49 102 77 138 147 180 148 100 104 150 140 82 49 50 115 114 119 121 144 151 165 155 164 218 174 160 134 172 174 178 177 188 224 170 143 108 115 80 62 68
127 109 117 80 94 63 50 47 68 66 107 95 88 148 136 97 65 105 133 66 42 53 72 82 81 78 113 138 120 123 109 136 141 145 123 161 129 150 186 191 176 156 161 125 117 198 299 123 77
86 110 115 80 57 31 33 21 72 55 69 47 43 121 121 48 56 111 107 77 73 76 79 83 84 91 76 92 104 134 125 134 103 133 122 82 101 166 230 190 155 138 125 119 94 108 106 113 101
81 77 63 64 70 48 75 48 48 93 19 23 187 141 100 56 93 106 80 66 65 66 55 43 33 42 58 56 99 105 114 106 90 82 88 106 86 122 207 122 185 94 110 85 93 81 83 97 75
74 44 35 53 38 54 51 75 55 94 55 127 90 63 80 71 93 108 104 81 51 41 40 34 43 26 25 48 54 89 110 111 77 9 42 27 106 218 575 396 332 186 155 127 119 99 90 90 95
24 25 15 3 34 58 82 98 49 123 89 68 74 72 85 62 83 112 79 34 45 43 68 48 39 14 35 71 122 139 110 70 41 6 49 72 150 392 421 354 272 223 188 140 122 116 89 76 70
30 58 38 58 64 70 51 71 39 67 113 80 66 76 72 63 60 89 80 72 38 32 67 44 31 29 36 1 -21 18 58 58 -0 55 15 66 135 93 260 215 196 190 174 157 135 122 119 122 124
46 34 57 47 74 44 122 55 47 123 79 85 71 81 54 37 45 91 65 41 40 41 34 65 57 64 55 105 71 61 71 22 70 99 44 161 133 123 124 145 172 178 176 166 154 137 127 150 153
32 22 46 46 36 26 -26 33 -11 144 118 86 71 86 36 3 17 52 88 50 27 31 19 30 51 78 56 102 122 130 93 78 95 76 116 126 51 81 140 148 168 186 195 186 166 113 143 139 176
-1 46 6 -28 -20 6 -23 -25 99 125 91 66 90 95 47 19 16 26 47 60 50 30 5 21 34 32 44 75 69 73 91 65 36 47 75 60 63 90 119 139 170 198 180 161 162 136 133 111 84
16 -6 -48 -17 -27 3 -37 23 106 111 81 66 69 80 69 29 36 19 13 28 59 52 43 38 -3 22 39 44 42 44 50 50 44 58 64 52 46 96 104 110 91 110 113 89 98 86 112 128 134
45 9 66 22 3 69 -7 51 180 147 104 77 45 94 98 60 43 36 22 17 19 35 51 48 26 30 41 50 35 26 31 46 45 39 63 86 133 127 112 124 130 126 129 139 117 109 110 90 66

GFSSGP_con_3kmhel_117.txt.gz
Helicity
114 144 128 120 125 110 136 111 104 151 131 118 79 112 82 105 142 78 -11 83 101 92 35 30 49 50 37 35 25 25 26 22 17 26 14 16 24 31 23 19 12 6 5 2 7 -1 35 50 31
111 164 166 154 145 151 163 176 221 165 102 113 119 143 134 112 139 89 81 81 83 79 58 43 36 38 41 39 35 32 31 29 31 28 20 24 17 39 20 12 9 5 -4 2 3 18 54 54 42
162 139 179 151 162 189 222 228 201 146 131 147 130 127 124 83 81 93 51 68 57 84 99 24 34 27 34 40 41 36 33 36 37 32 30 27 19 17 26 18 5 4 6 8 20 32 52 41 37
195 172 155 163 230 287 222 221 142 117 140 130 134 152 123 55 56 34 49 68 81 75 94 56 43 43 40 44 46 47 41 39 38 30 35 27 23 25 21 23 14 7 6 9 37 45 50 41 26
185 206 225 226 249 234 227 193 195 150 115 113 148 145 96 67 32 27 30 49 103 104 95 84 49 45 45 39 42 41 44 45 42 37 39 36 31 31 31 33 21 14 11 5 30 52 46 40 35
244 207 242 219 258 215 193 167 176 133 118 104 137 106 62 40 42 8 13 45 72 93 100 107 84 49 44 53 52 45 43 50 54 46 41 43 47 41 43 39 38 32 20 9 15 45 52 43 34
230 226 222 259 268 244 142 147 192 156 134 122 85 135 63 37 -35 14 19 32 50 82 91 98 114 81 41 47 56 59 63 57 48 47 51 45 46 47 44 45 41 38 39 30 35 45 63 51 38
191 204 264 263 205 227 140 110 109 143 125 63 52 98 66 -3 -33 9 21 34 32 39 67 86 91 96 103 66 36 39 49 66 65 60 56 48 48 46 45 46 44 46 43 43 52 61 66 65 53
167 203 312 342 268 154 115 109 84 46 43 44 43 66 68 44 25 32 13 33 52 47 27 49 71 89 90 82 82 55 40 38 55 73 64 67 81 67 57 56 56 54 61 59 58 67 74 83 63
187 237 259 234 178 119 89 79 64 63 65 46 61 88 72 27 13 9 20 38 49 59 64 34 34 64 85 92 93 80 74 67 82 88 97 109 108 97 70 63 61 75 71 73 75 77 89 101 105
206 203 158 173 138 120 69 54 55 54 47 70 53 40 56 35 45 54 52 48 49 48 47 42 37 27 46 80 97 100 96 89 86 79 94 107 111 113 104 104 104 132 89 118 102 102 134 132 118
148 170 104 86 91 81 59 51 50 46 17 56 56 54 47 49 45 41 47 54 58 56 54 57 57 48 49 58 84 87 118 125 101 106 99 107 115 106 116 131 135 152 156 139 146 164 166 145 117
97 83 79 58 54 50 47 32 33 33 5 4 55 69 50 26 26 32 50 96 124 111 95 99 102 84 71 81 75 80 81 121 131 109 111 134 137 126 119 131 168 167 186 174 174 176 176 152 129
76 61 48 56 53 39 43 37 76 43 62 70 67 54 41 28 11 76 132 98 81 58 72 64 80 103 120 107 99 108 110 95 112 123 106 108 131 150 164 214 203 181 184 195 173 171 160 153 156
79 84 68 54 49 52 55 47 10 14 64 54 39 37 52 28 120 139 107 84 58 49 70 103 104 109 107 119 119 121 122 144 121 135 124 107 135 159 182 183 183 168 164 167 188 171 181 176 163
109 93 101 70 62 58 69 53 75 38 45 48 36 42 58 203 222 188 130 95 103 109 79 75 102 127 138 120 115 131 128 136 132 130 151 130 111 140 146 181 171 173 187 207 188 183 187 186 196
127 116 74 67 51 63 71 57 44 49 65 74 73 99 202 232 196 146 119 80 78 82 84 86 81 85 109 132 139 115 116 125 97 97 153 155 143 125 165 184 197 202 235 239 213 226 219 188 177
120 114 98 76 44 64 70 65 44 52 89 72 97 212 235 168 125 87 75 73 89 128 106 83 67 65 69 72 108 132 127 113 112 106 118 134 126 131 152 195 188 213 243 256 260 232 200 200 151
92 107 118 86 51 48 57 59 64 86 85 105 197 161 139 117 89 78 55 83 119 121 89 78 59 70 89 90 87 117 124 135 120 141 155 110 108 126 164 174 220 242 250 235 213 230 208 141 131
128 113 115 87 83 67 66 57 72 62 79 138 163 134 120 97 78 63 60 99 124 92 77 66 89 86 84 110 115 147 151 127 119 131 141 104 85 87 127 168 185 205 217 223 219 218 200 133 145
124 101 106 83 72 55 68 62 72 92 97 142 160 116 116 94 75 41 82 115 114 85 80 83 100 52 68 75 87 96 108 87 86 67 60 76 112 117 61 113 192 219 211 197 190 182 161 148 132
113 91 100 101 89 76 71 41 68 73 62 123 142 92 78 52 50 65 93 124 79 60 65 88 98 66 43 12 36 55 69 64 53 19 -11 6 70 116 51 49 84 207 239 250 189 161 160 138 132
86 67 68 61 63 76 92 105 44 113 76 114 90 65 60 51 50 61 93 101 66 32 59 66 53 44 16 6 -6 33 70 92 103 98 51 18 5 42 38 88 -23 117 211 136 171 159 156 129 119
57 62 41 49 58 76 50 95 55 112 89 112 77 71 66 56 57 77 80 78 55 40 55 51 44 42 30 27 36 49 30 38 82 72 53 55 70 124 131 94 107 435 616 413 232 199 184 162 135
55 67 75 71 73 52 68 109 55 107 95 94 69 56 51 55 44 54 50 65 56 42 40 47 43 33 24 19 52 42 65 65 47 -7 36 73 48 11 83 138 88 159 143 250 207 158 142 139 129
43 60 65 60 66 63 108 20 33 74 96 96 63 44 36 50 31 19 36 53 48 28 38 44 44 46 47 41 43 63 63 4 73 -7 -2 44 -5 -37 61 116 244 340 94 82 93 126 138 129 121
45 43 43 62 58 29 24 -3 -24 150 128 88 62 59 54 57 27 -3 10 32 45 36 38 57 41 34 37 45 17 16 7 11 29 -10 4 10 69 35 80 37 29 57 104 120 146 153 169 150 120
13 9 -26 -26 -23 -30 -15 -15 36 87 59 58 47 12 33 36 22 -1 -13 1 22 31 34 23 26 24 23 30 17 29 25 10 4 1 11 10 39 90 60 44 72 87 99 111 131 133 149 170 150
18 4 -5 -4 -3 -1 -45 -13 52 54 58 52 64 26 20 47 43 5 12 18 15 10 8 17 29 30 43 55 64 40 42 26 22 20 21 17 38 47 37 34 49 70 84 91 102 103 116 92 92
57 41 71 68 13 90 70 102 41 75 94 90 60 57 70 68 66 45 26 22 26 27 30 36 43 43 52 54 51 58 53 47 36 22 38 41 44 51 54 72 82 80 102 79 85 101 119 125 126